<?xml version="1.0" encoding="UTF-8" standalone="no" ?>
<gpx xmlns="http://www.topografix.com/GPX/1/1" xmlns:xsi="http://www.w3.org/2001/XMLSchema-instance" xsi:schemaLocation="http://www.topografix.com/GPX/1/1 http://www.topografix.com/GPX/1/1/gpx.xsd" version="1.1" creator="VisuGPX - https://www.visugpx.com">
  <metadata>
    <name>Alentours Gite</name>
    <desc><![CDATA[Facile]]></desc>
  </metadata>
  <trk>
    <name><![CDATA[SAINTE HILAIROISE 2013]]></name>
    <extensions>
      <line xmlns="http://www.topografix.com/GPX/gpx_style/0/2">
        <color>0000FF</color>
        <width>3</width>
        <dasharray>6</dasharray>
          <extensions>
            <sens>1</sens>
          </extensions>
      </line>
    </extensions>
    <trkseg>
      <trkpt lat="44.05847" lon="4.18394">
        <ele>127</ele>
        <time>2013-03-03T08:48:21Z</time>
        <extensions>
          <visugpx:TrkExtension xmlns:visugpx="https://www.visugpx.com/editgpx/">
            <visugpx:node>3</visugpx:node>
            </visugpx:TrkExtension>
        </extensions>
      </trkpt>
      <trkpt lat="44.05853" lon="4.1839">
        <ele>127.4</ele>
        <time>2013-03-03T08:48:29Z</time>
      </trkpt>
      <trkpt lat="44.05858" lon="4.18388">
        <ele>130.374</ele>
        <time>2013-03-03T08:48:32Z</time>
      </trkpt>
      <trkpt lat="44.05861" lon="4.18402">
        <ele>131.385</ele>
        <time>2013-03-03T08:48:39Z</time>
      </trkpt>
      <trkpt lat="44.05865" lon="4.18416">
        <ele>130.134</ele>
        <time>2013-03-03T08:48:45Z</time>
      </trkpt>
      <trkpt lat="44.05861" lon="4.18424">
        <ele>130.063</ele>
        <time>2013-03-03T08:48:49Z</time>
      </trkpt>
      <trkpt lat="44.05856" lon="4.18428">
        <ele>130.293</ele>
        <time>2013-03-03T08:48:51Z</time>
      </trkpt>
      <trkpt lat="44.0585" lon="4.18434">
        <ele>128.182</ele>
        <time>2013-03-03T08:48:53Z</time>
      </trkpt>
      <trkpt lat="44.05846" lon="4.18458">
        <ele>127.372</ele>
        <time>2013-03-03T08:48:58Z</time>
      </trkpt>
      <trkpt lat="44.05857" lon="4.18492">
        <ele>125.662</ele>
        <time>2013-03-03T08:49:04Z</time>
      </trkpt>
      <trkpt lat="44.05868" lon="4.1851">
        <ele>123.482</ele>
        <time>2013-03-03T08:49:09Z</time>
      </trkpt>
      <trkpt lat="44.05872" lon="4.18522">
        <ele>121.211</ele>
        <time>2013-03-03T08:49:12Z</time>
      </trkpt>
      <trkpt lat="44.05885" lon="4.1854">
        <ele>119.411</ele>
        <time>2013-03-03T08:49:16Z</time>
      </trkpt>
      <trkpt lat="44.05912" lon="4.18571">
        <ele>119.173</ele>
        <time>2013-03-03T08:49:23Z</time>
      </trkpt>
      <trkpt lat="44.05926" lon="4.18592">
        <ele>121.134</ele>
        <time>2013-03-03T08:49:29Z</time>
      </trkpt>
      <trkpt lat="44.05936" lon="4.18606">
        <ele>122.324</ele>
        <time>2013-03-03T08:49:33Z</time>
      </trkpt>
      <trkpt lat="44.05955" lon="4.18626">
        <ele>124.275</ele>
        <time>2013-03-03T08:49:40Z</time>
      </trkpt>
      <trkpt lat="44.0597" lon="4.18643">
        <ele>123.594</ele>
        <time>2013-03-03T08:49:46Z</time>
      </trkpt>
      <trkpt lat="44.05987" lon="4.18667">
        <ele>126.995</ele>
        <time>2013-03-03T08:49:53Z</time>
      </trkpt>
      <trkpt lat="44.06005" lon="4.18696">
        <ele>128.215</ele>
        <time>2013-03-03T08:50:01Z</time>
      </trkpt>
      <trkpt lat="44.06026" lon="4.18729">
        <ele>126.794</ele>
        <time>2013-03-03T08:50:10Z</time>
      </trkpt>
      <trkpt lat="44.06046" lon="4.18749">
        <ele>128.345</ele>
        <time>2013-03-03T08:50:17Z</time>
      </trkpt>
      <trkpt lat="44.0606" lon="4.18756">
        <ele>132.657</ele>
        <time>2013-03-03T08:50:23Z</time>
      </trkpt>
      <trkpt lat="44.06074" lon="4.18758">
        <ele>136.477</ele>
        <time>2013-03-03T08:50:29Z</time>
      </trkpt>
      <trkpt lat="44.06097" lon="4.18761">
        <ele>138.306</ele>
        <time>2013-03-03T08:50:38Z</time>
      </trkpt>
      <trkpt lat="44.06116" lon="4.18774">
        <ele>137.405</ele>
        <time>2013-03-03T08:50:46Z</time>
      </trkpt>
      <trkpt lat="44.06132" lon="4.18784">
        <ele>137.646</ele>
        <time>2013-03-03T08:50:53Z</time>
      </trkpt>
      <trkpt lat="44.06145" lon="4.18786">
        <ele>140.506</ele>
        <time>2013-03-03T08:51:00Z</time>
      </trkpt>
      <trkpt lat="44.06162" lon="4.18784">
        <ele>143.436</ele>
        <time>2013-03-03T08:51:09Z</time>
      </trkpt>
      <trkpt lat="44.06181" lon="4.18783">
        <ele>146.837</ele>
        <time>2013-03-03T08:51:20Z</time>
      </trkpt>
      <trkpt lat="44.06197" lon="4.18783">
        <ele>148.477</ele>
        <time>2013-03-03T08:51:28Z</time>
      </trkpt>
      <trkpt lat="44.0621" lon="4.18781">
        <ele>150.036</ele>
        <time>2013-03-03T08:51:35Z</time>
      </trkpt>
      <trkpt lat="44.06222" lon="4.18783">
        <ele>150.306</ele>
        <time>2013-03-03T08:51:41Z</time>
      </trkpt>
      <trkpt lat="44.06238" lon="4.188">
        <ele>149.115</ele>
        <time>2013-03-03T08:51:48Z</time>
      </trkpt>
      <trkpt lat="44.06254" lon="4.18824">
        <ele>147.034</ele>
        <time>2013-03-03T08:51:53Z</time>
      </trkpt>
      <trkpt lat="44.06285" lon="4.18869">
        <ele>144.154</ele>
        <time>2013-03-03T08:52:01Z</time>
      </trkpt>
      <trkpt lat="44.06317" lon="4.18923">
        <ele>139.064</ele>
        <time>2013-03-03T08:52:10Z</time>
      </trkpt>
      <trkpt lat="44.06331" lon="4.18944">
        <ele>138.215</ele>
        <time>2013-03-03T08:52:15Z</time>
      </trkpt>
      <trkpt lat="44.06344" lon="4.18967">
        <ele>138.147</ele>
        <time>2013-03-03T08:52:21Z</time>
      </trkpt>
      <trkpt lat="44.06349" lon="4.18985">
        <ele>138.717</ele>
        <time>2013-03-03T08:52:27Z</time>
      </trkpt>
      <trkpt lat="44.0635" lon="4.19007">
        <ele>141.067</ele>
        <time>2013-03-03T08:52:35Z</time>
      </trkpt>
      <trkpt lat="44.06351" lon="4.19026">
        <ele>143.837</ele>
        <time>2013-03-03T08:52:42Z</time>
      </trkpt>
      <trkpt lat="44.06352" lon="4.19042">
        <ele>146.408</ele>
        <time>2013-03-03T08:52:49Z</time>
      </trkpt>
      <trkpt lat="44.06352" lon="4.19059">
        <ele>148.497</ele>
        <time>2013-03-03T08:52:56Z</time>
      </trkpt>
      <trkpt lat="44.0635" lon="4.19081">
        <ele>152.858</ele>
        <time>2013-03-03T08:53:05Z</time>
      </trkpt>
      <trkpt lat="44.06349" lon="4.19095">
        <ele>155.897</ele>
        <time>2013-03-03T08:53:11Z</time>
      </trkpt>
      <trkpt lat="44.06348" lon="4.19114">
        <ele>157.437</ele>
        <time>2013-03-03T08:53:19Z</time>
      </trkpt>
      <trkpt lat="44.06342" lon="4.19137">
        <ele>158.867</ele>
        <time>2013-03-03T08:53:27Z</time>
      </trkpt>
      <trkpt lat="44.06333" lon="4.19156">
        <ele>159.827</ele>
        <time>2013-03-03T08:53:35Z</time>
      </trkpt>
      <trkpt lat="44.06321" lon="4.19168">
        <ele>160.227</ele>
        <time>2013-03-03T08:53:43Z</time>
      </trkpt>
      <trkpt lat="44.06308" lon="4.19179">
        <ele>161.247</ele>
        <time>2013-03-03T08:53:51Z</time>
      </trkpt>
      <trkpt lat="44.06295" lon="4.19179">
        <ele>160.476</ele>
        <time>2013-03-03T08:53:57Z</time>
      </trkpt>
      <trkpt lat="44.06269" lon="4.19172">
        <ele>158.816</ele>
        <time>2013-03-03T08:54:07Z</time>
      </trkpt>
      <trkpt lat="44.06255" lon="4.19169">
        <ele>158.626</ele>
        <time>2013-03-03T08:54:11Z</time>
      </trkpt>
      <trkpt lat="44.06234" lon="4.19164">
        <ele>157.705</ele>
        <time>2013-03-03T08:54:16Z</time>
      </trkpt>
      <trkpt lat="44.06228" lon="4.19154">
        <ele>156.706</ele>
        <time>2013-03-03T08:54:19Z</time>
      </trkpt>
      <trkpt lat="44.06224" lon="4.1915">
        <ele>156.496</ele>
        <time>2013-03-03T08:54:21Z</time>
      </trkpt>
      <trkpt lat="44.06204" lon="4.19154">
        <ele>156.967</ele>
        <time>2013-03-03T08:54:28Z</time>
      </trkpt>
      <trkpt lat="44.06188" lon="4.19161">
        <ele>156.446</ele>
        <time>2013-03-03T08:54:33Z</time>
      </trkpt>
      <trkpt lat="44.06181" lon="4.19175">
        <ele>156.516</ele>
        <time>2013-03-03T08:54:38Z</time>
      </trkpt>
      <trkpt lat="44.06177" lon="4.19186">
        <ele>156.906</ele>
        <time>2013-03-03T08:54:42Z</time>
      </trkpt>
      <trkpt lat="44.06166" lon="4.192">
        <ele>156.986</ele>
        <time>2013-03-03T08:54:48Z</time>
      </trkpt>
      <trkpt lat="44.0615" lon="4.19205">
        <ele>156.976</ele>
        <time>2013-03-03T08:54:53Z</time>
      </trkpt>
      <trkpt lat="44.06137" lon="4.19211">
        <ele>156.486</ele>
        <time>2013-03-03T08:54:57Z</time>
      </trkpt>
      <trkpt lat="44.06134" lon="4.19213">
        <ele>156.346</ele>
        <time>2013-03-03T08:54:58Z</time>
      </trkpt>
      <trkpt lat="44.06125" lon="4.19227">
        <ele>156.507</ele>
        <time>2013-03-03T08:55:02Z</time>
      </trkpt>
      <trkpt lat="44.06118" lon="4.19242">
        <ele>157.036</ele>
        <time>2013-03-03T08:55:07Z</time>
      </trkpt>
      <trkpt lat="44.06112" lon="4.1926">
        <ele>157.666</ele>
        <time>2013-03-03T08:55:12Z</time>
      </trkpt>
      <trkpt lat="44.06106" lon="4.1928">
        <ele>158.897</ele>
        <time>2013-03-03T08:55:17Z</time>
      </trkpt>
      <trkpt lat="44.06096" lon="4.19288">
        <ele>157.705</ele>
        <time>2013-03-03T08:55:21Z</time>
      </trkpt>
      <trkpt lat="44.06091" lon="4.19299">
        <ele>157.016</ele>
        <time>2013-03-03T08:55:24Z</time>
      </trkpt>
      <trkpt lat="44.0609" lon="4.19308">
        <ele>156.875</ele>
        <time>2013-03-03T08:55:26Z</time>
      </trkpt>
      <trkpt lat="44.06085" lon="4.19345">
        <ele>156.646</ele>
        <time>2013-03-03T08:55:33Z</time>
      </trkpt>
      <trkpt lat="44.06076" lon="4.19372">
        <ele>156.185</ele>
        <time>2013-03-03T08:55:38Z</time>
      </trkpt>
      <trkpt lat="44.06066" lon="4.19418">
        <ele>155.856</ele>
        <time>2013-03-03T08:55:45Z</time>
      </trkpt>
      <trkpt lat="44.06063" lon="4.1943">
        <ele>155.646</ele>
        <time>2013-03-03T08:55:47Z</time>
      </trkpt>
      <trkpt lat="44.06057" lon="4.19446">
        <ele>155.575</ele>
        <time>2013-03-03T08:55:50Z</time>
      </trkpt>
      <trkpt lat="44.0605" lon="4.19482">
        <ele>155.046</ele>
        <time>2013-03-03T08:55:56Z</time>
      </trkpt>
      <trkpt lat="44.06039" lon="4.19497">
        <ele>155.136</ele>
        <time>2013-03-03T08:56:00Z</time>
      </trkpt>
      <trkpt lat="44.06035" lon="4.19496">
        <ele>155.297</ele>
        <time>2013-03-03T08:56:01Z</time>
      </trkpt>
      <trkpt lat="44.05994" lon="4.19487">
        <ele>157.848</ele>
        <time>2013-03-03T08:56:11Z</time>
      </trkpt>
      <trkpt lat="44.05962" lon="4.19485">
        <ele>157.865</ele>
        <time>2013-03-03T08:56:19Z</time>
      </trkpt>
      <trkpt lat="44.05936" lon="4.19485">
        <ele>155.484</ele>
        <time>2013-03-03T08:56:24Z</time>
      </trkpt>
      <trkpt lat="44.05919" lon="4.19489">
        <ele>153.784</ele>
        <time>2013-03-03T08:56:27Z</time>
      </trkpt>
      <trkpt lat="44.05868" lon="4.19494">
        <ele>149.664</ele>
        <time>2013-03-03T08:56:35Z</time>
      </trkpt>
      <trkpt lat="44.05844" lon="4.19505">
        <ele>148.214</ele>
        <time>2013-03-03T08:56:39Z</time>
      </trkpt>
      <trkpt lat="44.05835" lon="4.19514">
        <ele>147.535</ele>
        <time>2013-03-03T08:56:41Z</time>
      </trkpt>
      <trkpt lat="44.05813" lon="4.19525">
        <ele>146.946</ele>
        <time>2013-03-03T08:56:46Z</time>
      </trkpt>
      <trkpt lat="44.05804" lon="4.19535">
        <ele>146.906</ele>
        <time>2013-03-03T08:56:49Z</time>
      </trkpt>
      <trkpt lat="44.05797" lon="4.19556">
        <ele>147.346</ele>
        <time>2013-03-03T08:56:53Z</time>
      </trkpt>
      <trkpt lat="44.05788" lon="4.19576">
        <ele>147.316</ele>
        <time>2013-03-03T08:56:58Z</time>
      </trkpt>
      <trkpt lat="44.05789" lon="4.19577">
        <ele>147.126</ele>
        <time>2013-03-03T08:57:01Z</time>
      </trkpt>
      <trkpt lat="44.0579" lon="4.1958">
        <ele>145.254</ele>
        <time>2013-03-03T08:57:10Z</time>
      </trkpt>
      <trkpt lat="44.05786" lon="4.19594">
        <ele>143.995</ele>
        <time>2013-03-03T08:57:15Z</time>
      </trkpt>
      <trkpt lat="44.0579" lon="4.19614">
        <ele>143.234</ele>
        <time>2013-03-03T08:57:19Z</time>
      </trkpt>
      <trkpt lat="44.05793" lon="4.19639">
        <ele>141.915</ele>
        <time>2013-03-03T08:57:23Z</time>
      </trkpt>
      <trkpt lat="44.05794" lon="4.19645">
        <ele>141.805</ele>
        <time>2013-03-03T08:57:24Z</time>
      </trkpt>
      <trkpt lat="44.05796" lon="4.19669">
        <ele>141.516</ele>
        <time>2013-03-03T08:57:29Z</time>
      </trkpt>
      <trkpt lat="44.05792" lon="4.19687">
        <ele>141.125</ele>
        <time>2013-03-03T08:57:34Z</time>
      </trkpt>
      <trkpt lat="44.0578" lon="4.19695">
        <ele>139.935</ele>
        <time>2013-03-03T08:57:38Z</time>
      </trkpt>
      <trkpt lat="44.05771" lon="4.19701">
        <ele>138.514</ele>
        <time>2013-03-03T08:57:42Z</time>
      </trkpt>
      <trkpt lat="44.05767" lon="4.19707">
        <ele>137.665</ele>
        <time>2013-03-03T08:57:45Z</time>
      </trkpt>
      <trkpt lat="44.05765" lon="4.19719">
        <ele>136.814</ele>
        <time>2013-03-03T08:57:49Z</time>
      </trkpt>
      <trkpt lat="44.05763" lon="4.19722">
        <ele>136.283</ele>
        <time>2013-03-03T08:57:50Z</time>
      </trkpt>
      <trkpt lat="44.05748" lon="4.19738">
        <ele>133.793</ele>
        <time>2013-03-03T08:57:54Z</time>
      </trkpt>
      <trkpt lat="44.05732" lon="4.19758">
        <ele>131.604</ele>
        <time>2013-03-03T08:57:59Z</time>
      </trkpt>
      <trkpt lat="44.05728" lon="4.19764">
        <ele>130.845</ele>
        <time>2013-03-03T08:58:02Z</time>
      </trkpt>
      <trkpt lat="44.05719" lon="4.19766">
        <ele>128.874</ele>
        <time>2013-03-03T08:58:06Z</time>
      </trkpt>
      <trkpt lat="44.05714" lon="4.19759">
        <ele>127.524</ele>
        <time>2013-03-03T08:58:08Z</time>
      </trkpt>
      <trkpt lat="44.05698" lon="4.19751">
        <ele>124.264</ele>
        <time>2013-03-03T08:58:13Z</time>
      </trkpt>
      <trkpt lat="44.05691" lon="4.19761">
        <ele>122.313</ele>
        <time>2013-03-03T08:58:17Z</time>
      </trkpt>
      <trkpt lat="44.05679" lon="4.19776">
        <ele>120.994</ele>
        <time>2013-03-03T08:58:22Z</time>
      </trkpt>
      <trkpt lat="44.05674" lon="4.19783">
        <ele>119.534</ele>
        <time>2013-03-03T08:58:26Z</time>
      </trkpt>
      <trkpt lat="44.05674" lon="4.19786">
        <ele>119.208</ele>
        <time>2013-03-03T08:58:29Z</time>
      </trkpt>
      <trkpt lat="44.05677" lon="4.19787">
        <ele>119.266</ele>
        <time>2013-03-03T08:58:34Z</time>
      </trkpt>
      <trkpt lat="44.05685" lon="4.19793">
        <ele>118.596</ele>
        <time>2013-03-03T08:58:41Z</time>
      </trkpt>
      <trkpt lat="44.05695" lon="4.19806">
        <ele>118.076</ele>
        <time>2013-03-03T08:58:46Z</time>
      </trkpt>
      <trkpt lat="44.05707" lon="4.19819">
        <ele>116.404</ele>
        <time>2013-03-03T08:58:50Z</time>
      </trkpt>
      <trkpt lat="44.05717" lon="4.19833">
        <ele>115.145</ele>
        <time>2013-03-03T08:58:53Z</time>
      </trkpt>
      <trkpt lat="44.05723" lon="4.19849">
        <ele>113.654</ele>
        <time>2013-03-03T08:58:56Z</time>
      </trkpt>
      <trkpt lat="44.05724" lon="4.19881">
        <ele>110.683</ele>
        <time>2013-03-03T08:59:01Z</time>
      </trkpt>
      <trkpt lat="44.05715" lon="4.19913">
        <ele>108.455</ele>
        <time>2013-03-03T08:59:06Z</time>
      </trkpt>
      <trkpt lat="44.05716" lon="4.19925">
        <ele>107.984</ele>
        <time>2013-03-03T08:59:08Z</time>
      </trkpt>
      <trkpt lat="44.05719" lon="4.19947">
        <ele>107.605</ele>
        <time>2013-03-03T08:59:12Z</time>
      </trkpt>
      <trkpt lat="44.05739" lon="4.1999">
        <ele>109.466</ele>
        <time>2013-03-03T08:59:21Z</time>
      </trkpt>
      <trkpt lat="44.05754" lon="4.20027">
        <ele>110.277</ele>
        <time>2013-03-03T08:59:28Z</time>
      </trkpt>
      <trkpt lat="44.05767" lon="4.20059">
        <ele>110.817</ele>
        <time>2013-03-03T08:59:34Z</time>
      </trkpt>
      <trkpt lat="44.05779" lon="4.20077">
        <ele>110.887</ele>
        <time>2013-03-03T08:59:38Z</time>
      </trkpt>
      <trkpt lat="44.0581" lon="4.2011">
        <ele>110.847</ele>
        <time>2013-03-03T08:59:47Z</time>
      </trkpt>
      <trkpt lat="44.05833" lon="4.20141">
        <ele>111.167</ele>
        <time>2013-03-03T08:59:54Z</time>
      </trkpt>
      <trkpt lat="44.05836" lon="4.20146">
        <ele>111.087</ele>
        <time>2013-03-03T08:59:55Z</time>
      </trkpt>
      <trkpt lat="44.05853" lon="4.20184">
        <ele>110.397</ele>
        <time>2013-03-03T09:00:02Z</time>
      </trkpt>
      <trkpt lat="44.0587" lon="4.20205">
        <ele>111.277</ele>
        <time>2013-03-03T09:00:07Z</time>
      </trkpt>
      <trkpt lat="44.05888" lon="4.20214">
        <ele>111.937</ele>
        <time>2013-03-03T09:00:11Z</time>
      </trkpt>
      <trkpt lat="44.05928" lon="4.20226">
        <ele>113.267</ele>
        <time>2013-03-03T09:00:20Z</time>
      </trkpt>
      <trkpt lat="44.05961" lon="4.20236">
        <ele>113.788</ele>
        <time>2013-03-03T09:00:28Z</time>
      </trkpt>
      <trkpt lat="44.05999" lon="4.20246">
        <ele>114.038</ele>
        <time>2013-03-03T09:00:37Z</time>
      </trkpt>
      <trkpt lat="44.0603" lon="4.2025">
        <ele>114.038</ele>
        <time>2013-03-03T09:00:45Z</time>
      </trkpt>
      <trkpt lat="44.0606" lon="4.20258">
        <ele>115.769</ele>
        <time>2013-03-03T09:00:53Z</time>
      </trkpt>
      <trkpt lat="44.06089" lon="4.2028">
        <ele>116.058</ele>
        <time>2013-03-03T09:01:02Z</time>
      </trkpt>
      <trkpt lat="44.06101" lon="4.20283">
        <ele>115.838</ele>
        <time>2013-03-03T09:01:05Z</time>
      </trkpt>
      <trkpt lat="44.06127" lon="4.2028">
        <ele>117.179</ele>
        <time>2013-03-03T09:01:12Z</time>
      </trkpt>
      <trkpt lat="44.06154" lon="4.20278">
        <ele>118.059</ele>
        <time>2013-03-03T09:01:20Z</time>
      </trkpt>
      <trkpt lat="44.06187" lon="4.20274">
        <ele>119.059</ele>
        <time>2013-03-03T09:01:30Z</time>
      </trkpt>
      <trkpt lat="44.06215" lon="4.20273">
        <ele>119.059</ele>
        <time>2013-03-03T09:01:39Z</time>
      </trkpt>
      <trkpt lat="44.06248" lon="4.2027">
        <ele>118.889</ele>
        <time>2013-03-03T09:01:49Z</time>
      </trkpt>
      <trkpt lat="44.06279" lon="4.20266">
        <ele>120.509</ele>
        <time>2013-03-03T09:01:58Z</time>
      </trkpt>
      <trkpt lat="44.06307" lon="4.20262">
        <ele>122.66</ele>
        <time>2013-03-03T09:02:06Z</time>
      </trkpt>
      <trkpt lat="44.06339" lon="4.20259">
        <ele>124.259</ele>
        <time>2013-03-03T09:02:15Z</time>
      </trkpt>
      <trkpt lat="44.06374" lon="4.20261">
        <ele>124.229</ele>
        <time>2013-03-03T09:02:26Z</time>
      </trkpt>
      <trkpt lat="44.06406" lon="4.20271">
        <ele>125.499</ele>
        <time>2013-03-03T09:02:37Z</time>
      </trkpt>
      <trkpt lat="44.06439" lon="4.2028">
        <ele>125.92</ele>
        <time>2013-03-03T09:02:48Z</time>
      </trkpt>
      <trkpt lat="44.06463" lon="4.20283">
        <ele>126.379</ele>
        <time>2013-03-03T09:02:56Z</time>
      </trkpt>
      <trkpt lat="44.06501" lon="4.20283">
        <ele>126.789</ele>
        <time>2013-03-03T09:03:08Z</time>
      </trkpt>
      <trkpt lat="44.06527" lon="4.20289">
        <ele>126.059</ele>
        <time>2013-03-03T09:03:16Z</time>
      </trkpt>
      <trkpt lat="44.06549" lon="4.20289">
        <ele>126.059</ele>
        <time>2013-03-03T09:03:22Z</time>
      </trkpt>
      <trkpt lat="44.06575" lon="4.20277">
        <ele>126.94</ele>
        <time>2013-03-03T09:03:29Z</time>
      </trkpt>
      <trkpt lat="44.06589" lon="4.20273">
        <ele>127.63</ele>
        <time>2013-03-03T09:03:33Z</time>
      </trkpt>
      <trkpt lat="44.06598" lon="4.20286">
        <ele>128.13</ele>
        <time>2013-03-03T09:03:37Z</time>
      </trkpt>
      <trkpt lat="44.06615" lon="4.20327">
        <ele>129.16</ele>
        <time>2013-03-03T09:03:46Z</time>
      </trkpt>
      <trkpt lat="44.06634" lon="4.20373">
        <ele>128.229</ele>
        <time>2013-03-03T09:03:55Z</time>
      </trkpt>
      <trkpt lat="44.0665" lon="4.20422">
        <ele>127.409</ele>
        <time>2013-03-03T09:04:03Z</time>
      </trkpt>
      <trkpt lat="44.06667" lon="4.20471">
        <ele>126.579</ele>
        <time>2013-03-03T09:04:11Z</time>
      </trkpt>
      <trkpt lat="44.0668" lon="4.20509">
        <ele>126.059</ele>
        <time>2013-03-03T09:04:18Z</time>
      </trkpt>
      <trkpt lat="44.06691" lon="4.20544">
        <ele>125.339</ele>
        <time>2013-03-03T09:04:24Z</time>
      </trkpt>
      <trkpt lat="44.06706" lon="4.2058">
        <ele>124.911</ele>
        <time>2013-03-03T09:04:31Z</time>
      </trkpt>
      <trkpt lat="44.06725" lon="4.20625">
        <ele>124.121</ele>
        <time>2013-03-03T09:04:41Z</time>
      </trkpt>
      <trkpt lat="44.06743" lon="4.20664">
        <ele>123.861</ele>
        <time>2013-03-03T09:04:49Z</time>
      </trkpt>
      <trkpt lat="44.06754" lon="4.20693">
        <ele>123.23</ele>
        <time>2013-03-03T09:04:55Z</time>
      </trkpt>
      <trkpt lat="44.06768" lon="4.20694">
        <ele>123.011</ele>
        <time>2013-03-03T09:04:59Z</time>
      </trkpt>
      <trkpt lat="44.068" lon="4.20685">
        <ele>122.851</ele>
        <time>2013-03-03T09:05:06Z</time>
      </trkpt>
      <trkpt lat="44.06844" lon="4.20679">
        <ele>122.681</ele>
        <time>2013-03-03T09:05:15Z</time>
      </trkpt>
      <trkpt lat="44.06893" lon="4.2067">
        <ele>123.451</ele>
        <time>2013-03-03T09:05:25Z</time>
      </trkpt>
      <trkpt lat="44.06927" lon="4.20659">
        <ele>122.861</ele>
        <time>2013-03-03T09:05:33Z</time>
      </trkpt>
      <trkpt lat="44.06954" lon="4.2065">
        <ele>122.161</ele>
        <time>2013-03-03T09:05:40Z</time>
      </trkpt>
      <trkpt lat="44.06974" lon="4.20641">
        <ele>121.371</ele>
        <time>2013-03-03T09:05:45Z</time>
      </trkpt>
      <trkpt lat="44.06997" lon="4.20623">
        <ele>121.821</ele>
        <time>2013-03-03T09:05:51Z</time>
      </trkpt>
      <trkpt lat="44.07018" lon="4.20606">
        <ele>124.202</ele>
        <time>2013-03-03T09:05:56Z</time>
      </trkpt>
      <trkpt lat="44.07024" lon="4.20588">
        <ele>125.713</ele>
        <time>2013-03-03T09:06:00Z</time>
      </trkpt>
      <trkpt lat="44.07024" lon="4.20584">
        <ele>126.062</ele>
        <time>2013-03-03T09:06:01Z</time>
      </trkpt>
      <trkpt lat="44.07018" lon="4.20559">
        <ele>127.542</ele>
        <time>2013-03-03T09:06:08Z</time>
      </trkpt>
      <trkpt lat="44.07016" lon="4.20553">
        <ele>128.683</ele>
        <time>2013-03-03T09:06:10Z</time>
      </trkpt>
      <trkpt lat="44.07021" lon="4.20552">
        <ele>127.871</ele>
        <time>2013-03-03T09:06:14Z</time>
      </trkpt>
      <trkpt lat="44.07031" lon="4.2057">
        <ele>127.481</ele>
        <time>2013-03-03T09:06:19Z</time>
      </trkpt>
      <trkpt lat="44.07058" lon="4.20597">
        <ele>128.481</ele>
        <time>2013-03-03T09:06:28Z</time>
      </trkpt>
      <trkpt lat="44.0707" lon="4.20595">
        <ele>128.442</ele>
        <time>2013-03-03T09:06:32Z</time>
      </trkpt>
      <trkpt lat="44.0708" lon="4.20593">
        <ele>128.352</ele>
        <time>2013-03-03T09:06:37Z</time>
      </trkpt>
      <trkpt lat="44.07095" lon="4.20589">
        <ele>130.983</ele>
        <time>2013-03-03T09:06:43Z</time>
      </trkpt>
      <trkpt lat="44.07107" lon="4.20595">
        <ele>133.104</ele>
        <time>2013-03-03T09:06:48Z</time>
      </trkpt>
      <trkpt lat="44.07118" lon="4.20598">
        <ele>135.984</ele>
        <time>2013-03-03T09:06:53Z</time>
      </trkpt>
      <trkpt lat="44.07131" lon="4.20599">
        <ele>137.463</ele>
        <time>2013-03-03T09:06:59Z</time>
      </trkpt>
      <trkpt lat="44.07141" lon="4.20616">
        <ele>139.123</ele>
        <time>2013-03-03T09:07:06Z</time>
      </trkpt>
      <trkpt lat="44.07143" lon="4.20618">
        <ele>139.503</ele>
        <time>2013-03-03T09:07:07Z</time>
      </trkpt>
      <trkpt lat="44.07162" lon="4.20627">
        <ele>141.023</ele>
        <time>2013-03-03T09:07:15Z</time>
      </trkpt>
      <trkpt lat="44.0718" lon="4.20636">
        <ele>141.203</ele>
        <time>2013-03-03T09:07:23Z</time>
      </trkpt>
      <trkpt lat="44.07182" lon="4.20637">
        <ele>141.322</ele>
        <time>2013-03-03T09:07:24Z</time>
      </trkpt>
      <trkpt lat="44.07198" lon="4.20654">
        <ele>143.203</ele>
        <time>2013-03-03T09:07:32Z</time>
      </trkpt>
      <trkpt lat="44.07216" lon="4.20662">
        <ele>144.393</ele>
        <time>2013-03-03T09:07:40Z</time>
      </trkpt>
      <trkpt lat="44.07241" lon="4.20668">
        <ele>143.613</ele>
        <time>2013-03-03T09:07:50Z</time>
      </trkpt>
      <trkpt lat="44.07261" lon="4.2067">
        <ele>144.783</ele>
        <time>2013-03-03T09:07:58Z</time>
      </trkpt>
      <trkpt lat="44.07281" lon="4.2067">
        <ele>146.223</ele>
        <time>2013-03-03T09:08:06Z</time>
      </trkpt>
      <trkpt lat="44.07303" lon="4.20666">
        <ele>146.923</ele>
        <time>2013-03-03T09:08:14Z</time>
      </trkpt>
      <trkpt lat="44.07326" lon="4.2066">
        <ele>148.373</ele>
        <time>2013-03-03T09:08:23Z</time>
      </trkpt>
      <trkpt lat="44.07348" lon="4.20651">
        <ele>149.563</ele>
        <time>2013-03-03T09:08:31Z</time>
      </trkpt>
      <trkpt lat="44.07365" lon="4.20641">
        <ele>150.123</ele>
        <time>2013-03-03T09:08:38Z</time>
      </trkpt>
      <trkpt lat="44.07394" lon="4.20625">
        <ele>152.304</ele>
        <time>2013-03-03T09:08:49Z</time>
      </trkpt>
      <trkpt lat="44.07414" lon="4.20614">
        <ele>152.623</ele>
        <time>2013-03-03T09:08:56Z</time>
      </trkpt>
      <trkpt lat="44.07442" lon="4.20597">
        <ele>153.363</ele>
        <time>2013-03-03T09:09:05Z</time>
      </trkpt>
      <trkpt lat="44.07472" lon="4.20576">
        <ele>152.653</ele>
        <time>2013-03-03T09:09:14Z</time>
      </trkpt>
      <trkpt lat="44.07509" lon="4.20547">
        <ele>151.082</ele>
        <time>2013-03-03T09:09:25Z</time>
      </trkpt>
      <trkpt lat="44.07532" lon="4.2053">
        <ele>149.482</ele>
        <time>2013-03-03T09:09:32Z</time>
      </trkpt>
      <trkpt lat="44.07552" lon="4.20516">
        <ele>148.873</ele>
        <time>2013-03-03T09:09:37Z</time>
      </trkpt>
      <trkpt lat="44.07578" lon="4.20507">
        <ele>150.404</ele>
        <time>2013-03-03T09:09:44Z</time>
      </trkpt>
      <trkpt lat="44.07603" lon="4.20501">
        <ele>151.224</ele>
        <time>2013-03-03T09:09:51Z</time>
      </trkpt>
      <trkpt lat="44.07622" lon="4.20491">
        <ele>152.924</ele>
        <time>2013-03-03T09:09:58Z</time>
      </trkpt>
      <trkpt lat="44.0764" lon="4.20478">
        <ele>155.604</ele>
        <time>2013-03-03T09:10:06Z</time>
      </trkpt>
      <trkpt lat="44.07651" lon="4.20468">
        <ele>156.114</ele>
        <time>2013-03-03T09:10:12Z</time>
      </trkpt>
      <trkpt lat="44.07665" lon="4.20456">
        <ele>157.234</ele>
        <time>2013-03-03T09:10:20Z</time>
      </trkpt>
      <trkpt lat="44.07679" lon="4.20446">
        <ele>158.084</ele>
        <time>2013-03-03T09:10:26Z</time>
      </trkpt>
      <trkpt lat="44.07701" lon="4.20429">
        <ele>158.134</ele>
        <time>2013-03-03T09:10:35Z</time>
      </trkpt>
      <trkpt lat="44.07716" lon="4.20412">
        <ele>159.024</ele>
        <time>2013-03-03T09:10:42Z</time>
      </trkpt>
      <trkpt lat="44.07734" lon="4.20399">
        <ele>158.733</ele>
        <time>2013-03-03T09:10:49Z</time>
      </trkpt>
      <trkpt lat="44.07742" lon="4.20386">
        <ele>158.894</ele>
        <time>2013-03-03T09:10:54Z</time>
      </trkpt>
      <trkpt lat="44.07743" lon="4.20383">
        <ele>158.864</ele>
        <time>2013-03-03T09:10:55Z</time>
      </trkpt>
      <trkpt lat="44.07753" lon="4.20372">
        <ele>158.994</ele>
        <time>2013-03-03T09:11:00Z</time>
      </trkpt>
      <trkpt lat="44.07773" lon="4.20345">
        <ele>160.164</ele>
        <time>2013-03-03T09:11:10Z</time>
      </trkpt>
      <trkpt lat="44.07791" lon="4.20331">
        <ele>159.593</ele>
        <time>2013-03-03T09:11:17Z</time>
      </trkpt>
      <trkpt lat="44.07811" lon="4.20314">
        <ele>158.783</ele>
        <time>2013-03-03T09:11:24Z</time>
      </trkpt>
      <trkpt lat="44.07832" lon="4.2029">
        <ele>157.582</ele>
        <time>2013-03-03T09:11:32Z</time>
      </trkpt>
      <trkpt lat="44.07845" lon="4.20273">
        <ele>156.262</ele>
        <time>2013-03-03T09:11:37Z</time>
      </trkpt>
      <trkpt lat="44.07852" lon="4.20265">
        <ele>155.882</ele>
        <time>2013-03-03T09:11:39Z</time>
      </trkpt>
      <trkpt lat="44.07859" lon="4.20244">
        <ele>154.281</ele>
        <time>2013-03-03T09:11:43Z</time>
      </trkpt>
      <trkpt lat="44.07868" lon="4.20233">
        <ele>153.091</ele>
        <time>2013-03-03T09:11:46Z</time>
      </trkpt>
      <trkpt lat="44.07877" lon="4.20209">
        <ele>150.131</ele>
        <time>2013-03-03T09:11:51Z</time>
      </trkpt>
      <trkpt lat="44.07882" lon="4.20199">
        <ele>149.282</ele>
        <time>2013-03-03T09:11:53Z</time>
      </trkpt>
      <trkpt lat="44.07897" lon="4.20173">
        <ele>147.972</ele>
        <time>2013-03-03T09:11:59Z</time>
      </trkpt>
      <trkpt lat="44.0791" lon="4.20163">
        <ele>146.641</ele>
        <time>2013-03-03T09:12:02Z</time>
      </trkpt>
      <trkpt lat="44.07933" lon="4.20134">
        <ele>144.26</ele>
        <time>2013-03-03T09:12:07Z</time>
      </trkpt>
      <trkpt lat="44.07961" lon="4.20084">
        <ele>139.4</ele>
        <time>2013-03-03T09:12:14Z</time>
      </trkpt>
      <trkpt lat="44.07965" lon="4.20075">
        <ele>138.851</ele>
        <time>2013-03-03T09:12:16Z</time>
      </trkpt>
      <trkpt lat="44.07968" lon="4.20065">
        <ele>137.593</ele>
        <time>2013-03-03T09:12:21Z</time>
      </trkpt>
      <trkpt lat="44.07969" lon="4.20064">
        <ele>137.004</ele>
        <time>2013-03-03T09:12:24Z</time>
      </trkpt>
      <trkpt lat="44.07967" lon="4.20076">
        <ele>136.671</ele>
        <time>2013-03-03T09:12:30Z</time>
      </trkpt>
      <trkpt lat="44.07967" lon="4.20095">
        <ele>135.032</ele>
        <time>2013-03-03T09:12:35Z</time>
      </trkpt>
      <trkpt lat="44.07966" lon="4.201">
        <ele>135.183</ele>
        <time>2013-03-03T09:12:39Z</time>
      </trkpt>
      <trkpt lat="44.07967" lon="4.20106">
        <ele>134.973</ele>
        <time>2013-03-03T09:12:46Z</time>
      </trkpt>
      <trkpt lat="44.07971" lon="4.2011">
        <ele>137.714</ele>
        <time>2013-03-03T09:12:54Z</time>
      </trkpt>
      <trkpt lat="44.07972" lon="4.20111">
        <ele>137.388</ele>
        <time>2013-03-03T09:12:56Z</time>
      </trkpt>
      <trkpt lat="44.08" lon="4.2012">
        <ele>134.583</ele>
        <time>2013-03-03T09:13:17Z</time>
      </trkpt>
      <trkpt lat="44.08004" lon="4.20126">
        <ele>134.443</ele>
        <time>2013-03-03T09:13:26Z</time>
      </trkpt>
      <trkpt lat="44.08003" lon="4.20127">
        <ele>134.814</ele>
        <time>2013-03-03T09:13:28Z</time>
      </trkpt>
      <trkpt lat="44.08004" lon="4.2013">
        <ele>132.234</ele>
        <time>2013-03-03T09:14:12Z</time>
      </trkpt>
      <trkpt lat="44.08013" lon="4.20135">
        <ele>133.314</ele>
        <time>2013-03-03T09:14:17Z</time>
      </trkpt>
      <trkpt lat="44.08017" lon="4.20141">
        <ele>133.995</ele>
        <time>2013-03-03T09:14:20Z</time>
      </trkpt>
      <trkpt lat="44.08028" lon="4.20152">
        <ele>137.855</ele>
        <time>2013-03-03T09:14:28Z</time>
      </trkpt>
      <trkpt lat="44.08037" lon="4.20153">
        <ele>139.654</ele>
        <time>2013-03-03T09:14:35Z</time>
      </trkpt>
      <trkpt lat="44.08049" lon="4.20153">
        <ele>141.874</ele>
        <time>2013-03-03T09:14:42Z</time>
      </trkpt>
      <trkpt lat="44.08061" lon="4.20153">
        <ele>143.845</ele>
        <time>2013-03-03T09:14:50Z</time>
      </trkpt>
      <trkpt lat="44.08072" lon="4.20153">
        <ele>144.954</ele>
        <time>2013-03-03T09:14:57Z</time>
      </trkpt>
      <trkpt lat="44.08088" lon="4.20152">
        <ele>147.734</ele>
        <time>2013-03-03T09:15:07Z</time>
      </trkpt>
      <trkpt lat="44.08101" lon="4.20152">
        <ele>149.204</ele>
        <time>2013-03-03T09:15:14Z</time>
      </trkpt>
      <trkpt lat="44.0811" lon="4.20152">
        <ele>152.125</ele>
        <time>2013-03-03T09:15:20Z</time>
      </trkpt>
      <trkpt lat="44.08117" lon="4.20152">
        <ele>153.535</ele>
        <time>2013-03-03T09:15:24Z</time>
      </trkpt>
      <trkpt lat="44.0813" lon="4.20151">
        <ele>155.844</ele>
        <time>2013-03-03T09:15:33Z</time>
      </trkpt>
      <trkpt lat="44.08147" lon="4.20149">
        <ele>159.215</ele>
        <time>2013-03-03T09:15:43Z</time>
      </trkpt>
      <trkpt lat="44.08159" lon="4.20145">
        <ele>162.096</ele>
        <time>2013-03-03T09:15:49Z</time>
      </trkpt>
      <trkpt lat="44.08175" lon="4.20143">
        <ele>164.805</ele>
        <time>2013-03-03T09:15:57Z</time>
      </trkpt>
      <trkpt lat="44.08193" lon="4.2014">
        <ele>165.988</ele>
        <time>2013-03-03T09:16:07Z</time>
      </trkpt>
      <trkpt lat="44.08207" lon="4.20139">
        <ele>165.625</ele>
        <time>2013-03-03T09:16:15Z</time>
      </trkpt>
      <trkpt lat="44.08226" lon="4.20136">
        <ele>165.764</ele>
        <time>2013-03-03T09:16:25Z</time>
      </trkpt>
      <trkpt lat="44.08244" lon="4.20132">
        <ele>166.355</ele>
        <time>2013-03-03T09:16:34Z</time>
      </trkpt>
      <trkpt lat="44.08268" lon="4.20129">
        <ele>167.795</ele>
        <time>2013-03-03T09:16:46Z</time>
      </trkpt>
      <trkpt lat="44.08285" lon="4.20129">
        <ele>168.645</ele>
        <time>2013-03-03T09:16:55Z</time>
      </trkpt>
      <trkpt lat="44.08303" lon="4.20129">
        <ele>170.675</ele>
        <time>2013-03-03T09:17:05Z</time>
      </trkpt>
      <trkpt lat="44.08326" lon="4.20127">
        <ele>173.975</ele>
        <time>2013-03-03T09:17:17Z</time>
      </trkpt>
      <trkpt lat="44.0834" lon="4.20126">
        <ele>175.945</ele>
        <time>2013-03-03T09:17:25Z</time>
      </trkpt>
      <trkpt lat="44.08354" lon="4.20129">
        <ele>174.765</ele>
        <time>2013-03-03T09:17:34Z</time>
      </trkpt>
      <trkpt lat="44.0837" lon="4.20135">
        <ele>174.205</ele>
        <time>2013-03-03T09:17:44Z</time>
      </trkpt>
      <trkpt lat="44.08385" lon="4.2014">
        <ele>174.505</ele>
        <time>2013-03-03T09:17:53Z</time>
      </trkpt>
      <trkpt lat="44.08401" lon="4.20144">
        <ele>175.775</ele>
        <time>2013-03-03T09:18:02Z</time>
      </trkpt>
      <trkpt lat="44.08417" lon="4.20145">
        <ele>177.145</ele>
        <time>2013-03-03T09:18:11Z</time>
      </trkpt>
      <trkpt lat="44.08432" lon="4.20147">
        <ele>179.606</ele>
        <time>2013-03-03T09:18:19Z</time>
      </trkpt>
      <trkpt lat="44.08448" lon="4.20151">
        <ele>180.386</ele>
        <time>2013-03-03T09:18:29Z</time>
      </trkpt>
      <trkpt lat="44.08464" lon="4.20159">
        <ele>183.136</ele>
        <time>2013-03-03T09:18:39Z</time>
      </trkpt>
      <trkpt lat="44.08478" lon="4.20163">
        <ele>184.935</ele>
        <time>2013-03-03T09:18:48Z</time>
      </trkpt>
      <trkpt lat="44.08494" lon="4.2016">
        <ele>186.525</ele>
        <time>2013-03-03T09:18:57Z</time>
      </trkpt>
      <trkpt lat="44.08515" lon="4.2015">
        <ele>187.025</ele>
        <time>2013-03-03T09:19:08Z</time>
      </trkpt>
      <trkpt lat="44.0853" lon="4.20146">
        <ele>189.156</ele>
        <time>2013-03-03T09:19:16Z</time>
      </trkpt>
      <trkpt lat="44.08544" lon="4.20147">
        <ele>191.846</ele>
        <time>2013-03-03T09:19:23Z</time>
      </trkpt>
      <trkpt lat="44.08558" lon="4.2015">
        <ele>190.795</ele>
        <time>2013-03-03T09:19:31Z</time>
      </trkpt>
      <trkpt lat="44.08574" lon="4.20149">
        <ele>191.986</ele>
        <time>2013-03-03T09:19:40Z</time>
      </trkpt>
      <trkpt lat="44.08588" lon="4.20144">
        <ele>194.406</ele>
        <time>2013-03-03T09:19:48Z</time>
      </trkpt>
      <trkpt lat="44.08603" lon="4.20138">
        <ele>196.046</ele>
        <time>2013-03-03T09:19:56Z</time>
      </trkpt>
      <trkpt lat="44.08616" lon="4.20132">
        <ele>197.305</ele>
        <time>2013-03-03T09:20:03Z</time>
      </trkpt>
      <trkpt lat="44.08625" lon="4.2012">
        <ele>197.555</ele>
        <time>2013-03-03T09:20:10Z</time>
      </trkpt>
      <trkpt lat="44.08637" lon="4.20101">
        <ele>196.445</ele>
        <time>2013-03-03T09:20:20Z</time>
      </trkpt>
      <trkpt lat="44.08646" lon="4.20095">
        <ele>198.196</ele>
        <time>2013-03-03T09:20:26Z</time>
      </trkpt>
      <trkpt lat="44.08657" lon="4.2009">
        <ele>200.496</ele>
        <time>2013-03-03T09:20:33Z</time>
      </trkpt>
      <trkpt lat="44.0867" lon="4.20086">
        <ele>202.636</ele>
        <time>2013-03-03T09:20:41Z</time>
      </trkpt>
      <trkpt lat="44.08684" lon="4.2008">
        <ele>206.687</ele>
        <time>2013-03-03T09:20:49Z</time>
      </trkpt>
      <trkpt lat="44.08698" lon="4.20075">
        <ele>209.437</ele>
        <time>2013-03-03T09:20:58Z</time>
      </trkpt>
      <trkpt lat="44.0871" lon="4.20071">
        <ele>210.816</ele>
        <time>2013-03-03T09:21:06Z</time>
      </trkpt>
      <trkpt lat="44.08726" lon="4.20066">
        <ele>212.906</ele>
        <time>2013-03-03T09:21:16Z</time>
      </trkpt>
      <trkpt lat="44.08743" lon="4.2006">
        <ele>214.476</ele>
        <time>2013-03-03T09:21:26Z</time>
      </trkpt>
      <trkpt lat="44.08756" lon="4.20053">
        <ele>216.026</ele>
        <time>2013-03-03T09:21:34Z</time>
      </trkpt>
      <trkpt lat="44.08773" lon="4.20046">
        <ele>216.877</ele>
        <time>2013-03-03T09:21:44Z</time>
      </trkpt>
      <trkpt lat="44.08784" lon="4.20041">
        <ele>216.005</ele>
        <time>2013-03-03T09:21:51Z</time>
      </trkpt>
      <trkpt lat="44.08795" lon="4.20032">
        <ele>217.076</ele>
        <time>2013-03-03T09:21:58Z</time>
      </trkpt>
      <trkpt lat="44.08807" lon="4.20023">
        <ele>217.665</ele>
        <time>2013-03-03T09:22:04Z</time>
      </trkpt>
      <trkpt lat="44.0882" lon="4.2001">
        <ele>217.315</ele>
        <time>2013-03-03T09:22:10Z</time>
      </trkpt>
      <trkpt lat="44.08828" lon="4.20006">
        <ele>217.736</ele>
        <time>2013-03-03T09:22:13Z</time>
      </trkpt>
      <trkpt lat="44.08844" lon="4.19989">
        <ele>217.605</ele>
        <time>2013-03-03T09:22:19Z</time>
      </trkpt>
      <trkpt lat="44.08853" lon="4.19981">
        <ele>215.074</ele>
        <time>2013-03-03T09:22:22Z</time>
      </trkpt>
      <trkpt lat="44.08856" lon="4.19962">
        <ele>210.932</ele>
        <time>2013-03-03T09:22:26Z</time>
      </trkpt>
      <trkpt lat="44.08866" lon="4.1994">
        <ele>207.452</ele>
        <time>2013-03-03T09:22:30Z</time>
      </trkpt>
      <trkpt lat="44.08873" lon="4.19937">
        <ele>207.183</ele>
        <time>2013-03-03T09:22:32Z</time>
      </trkpt>
      <trkpt lat="44.08884" lon="4.19935">
        <ele>207.143</ele>
        <time>2013-03-03T09:22:35Z</time>
      </trkpt>
      <trkpt lat="44.08896" lon="4.19918">
        <ele>204.653</ele>
        <time>2013-03-03T09:22:39Z</time>
      </trkpt>
      <trkpt lat="44.08903" lon="4.19911">
        <ele>202.122</ele>
        <time>2013-03-03T09:22:41Z</time>
      </trkpt>
      <trkpt lat="44.08904" lon="4.19895">
        <ele>198.662</ele>
        <time>2013-03-03T09:22:44Z</time>
      </trkpt>
      <trkpt lat="44.08913" lon="4.19884">
        <ele>194.812</ele>
        <time>2013-03-03T09:22:48Z</time>
      </trkpt>
      <trkpt lat="44.08921" lon="4.19881">
        <ele>193.491</ele>
        <time>2013-03-03T09:22:50Z</time>
      </trkpt>
      <trkpt lat="44.08927" lon="4.19894">
        <ele>191.385</ele>
        <time>2013-03-03T09:22:55Z</time>
      </trkpt>
      <trkpt lat="44.0894" lon="4.19914">
        <ele>191.286</ele>
        <time>2013-03-03T09:23:04Z</time>
      </trkpt>
      <trkpt lat="44.08952" lon="4.19931">
        <ele>192.606</ele>
        <time>2013-03-03T09:23:13Z</time>
      </trkpt>
      <trkpt lat="44.08967" lon="4.19949">
        <ele>194.106</ele>
        <time>2013-03-03T09:23:24Z</time>
      </trkpt>
      <trkpt lat="44.08981" lon="4.19963">
        <ele>197.326</ele>
        <time>2013-03-03T09:23:34Z</time>
      </trkpt>
      <trkpt lat="44.08996" lon="4.19973">
        <ele>201.207</ele>
        <time>2013-03-03T09:23:44Z</time>
      </trkpt>
      <trkpt lat="44.0901" lon="4.19982">
        <ele>204.237</ele>
        <time>2013-03-03T09:23:53Z</time>
      </trkpt>
      <trkpt lat="44.09022" lon="4.19992">
        <ele>201.816</ele>
        <time>2013-03-03T09:23:59Z</time>
      </trkpt>
      <trkpt lat="44.09036" lon="4.19996">
        <ele>202.597</ele>
        <time>2013-03-03T09:24:07Z</time>
      </trkpt>
      <trkpt lat="44.09047" lon="4.19998">
        <ele>203.947</ele>
        <time>2013-03-03T09:24:14Z</time>
      </trkpt>
      <trkpt lat="44.0906" lon="4.19999">
        <ele>205.286</ele>
        <time>2013-03-03T09:24:22Z</time>
      </trkpt>
      <trkpt lat="44.09077" lon="4.19997">
        <ele>208.427</ele>
        <time>2013-03-03T09:24:32Z</time>
      </trkpt>
      <trkpt lat="44.09093" lon="4.19994">
        <ele>211.476</ele>
        <time>2013-03-03T09:24:42Z</time>
      </trkpt>
      <trkpt lat="44.09105" lon="4.19995">
        <ele>212.367</ele>
        <time>2013-03-03T09:24:50Z</time>
      </trkpt>
      <trkpt lat="44.09118" lon="4.19996">
        <ele>213.577</ele>
        <time>2013-03-03T09:24:58Z</time>
      </trkpt>
      <trkpt lat="44.09131" lon="4.20003">
        <ele>214.697</ele>
        <time>2013-03-03T09:25:05Z</time>
      </trkpt>
      <trkpt lat="44.09142" lon="4.20018">
        <ele>216.212</ele>
        <time>2013-03-03T09:25:14Z</time>
      </trkpt>
      <trkpt lat="44.09148" lon="4.20038">
        <ele>217.587</ele>
        <time>2013-03-03T09:25:23Z</time>
      </trkpt>
      <trkpt lat="44.09155" lon="4.20061">
        <ele>220.868</ele>
        <time>2013-03-03T09:25:34Z</time>
      </trkpt>
      <trkpt lat="44.0916" lon="4.20078">
        <ele>223.137</ele>
        <time>2013-03-03T09:25:43Z</time>
      </trkpt>
      <trkpt lat="44.09165" lon="4.20101">
        <ele>224.477</ele>
        <time>2013-03-03T09:25:53Z</time>
      </trkpt>
      <trkpt lat="44.09167" lon="4.20123">
        <ele>226.308</ele>
        <time>2013-03-03T09:26:02Z</time>
      </trkpt>
      <trkpt lat="44.09167" lon="4.20125">
        <ele>226.318</ele>
        <time>2013-03-03T09:26:03Z</time>
      </trkpt>
      <trkpt lat="44.09165" lon="4.20137">
        <ele>226.287</ele>
        <time>2013-03-03T09:26:08Z</time>
      </trkpt>
      <trkpt lat="44.09163" lon="4.20146">
        <ele>226.017</ele>
        <time>2013-03-03T09:26:12Z</time>
      </trkpt>
      <trkpt lat="44.09163" lon="4.2015">
        <ele>225.667</ele>
        <time>2013-03-03T09:26:16Z</time>
      </trkpt>
      <trkpt lat="44.09175" lon="4.2015">
        <ele>222.842</ele>
        <time>2013-03-03T09:26:57Z</time>
      </trkpt>
      <trkpt lat="44.09191" lon="4.20156">
        <ele>221.311</ele>
        <time>2013-03-03T09:27:01Z</time>
      </trkpt>
      <trkpt lat="44.09221" lon="4.20154">
        <ele>218.97</ele>
        <time>2013-03-03T09:27:06Z</time>
      </trkpt>
      <trkpt lat="44.09233" lon="4.20151">
        <ele>218.253</ele>
        <time>2013-03-03T09:27:08Z</time>
      </trkpt>
      <trkpt lat="44.0926" lon="4.20134">
        <ele>216.631</ele>
        <time>2013-03-03T09:27:13Z</time>
      </trkpt>
      <trkpt lat="44.09276" lon="4.20122">
        <ele>216.114</ele>
        <time>2013-03-03T09:27:16Z</time>
      </trkpt>
      <trkpt lat="44.09297" lon="4.20095">
        <ele>214.963</ele>
        <time>2013-03-03T09:27:21Z</time>
      </trkpt>
      <trkpt lat="44.09314" lon="4.2005">
        <ele>213.152</ele>
        <time>2013-03-03T09:27:27Z</time>
      </trkpt>
      <trkpt lat="44.0933" lon="4.20008">
        <ele>210.672</ele>
        <time>2013-03-03T09:27:32Z</time>
      </trkpt>
      <trkpt lat="44.09339" lon="4.19998">
        <ele>210.03</ele>
        <time>2013-03-03T09:27:35Z</time>
      </trkpt>
      <trkpt lat="44.09342" lon="4.20009">
        <ele>208.572</ele>
        <time>2013-03-03T09:27:38Z</time>
      </trkpt>
      <trkpt lat="44.09345" lon="4.2002">
        <ele>207.219</ele>
        <time>2013-03-03T09:27:40Z</time>
      </trkpt>
      <trkpt lat="44.09357" lon="4.2005">
        <ele>203.122</ele>
        <time>2013-03-03T09:27:44Z</time>
      </trkpt>
      <trkpt lat="44.0937" lon="4.20068">
        <ele>201.368</ele>
        <time>2013-03-03T09:27:47Z</time>
      </trkpt>
      <trkpt lat="44.09393" lon="4.20112">
        <ele>199.793</ele>
        <time>2013-03-03T09:27:54Z</time>
      </trkpt>
      <trkpt lat="44.09408" lon="4.20139">
        <ele>196.958</ele>
        <time>2013-03-03T09:27:59Z</time>
      </trkpt>
      <trkpt lat="44.09423" lon="4.20184">
        <ele>193.367</ele>
        <time>2013-03-03T09:28:05Z</time>
      </trkpt>
      <trkpt lat="44.0942" lon="4.20222">
        <ele>189.555</ele>
        <time>2013-03-03T09:28:09Z</time>
      </trkpt>
      <trkpt lat="44.0941" lon="4.2025">
        <ele>188</ele>
        <time>2013-03-03T09:28:12Z</time>
      </trkpt>
      <trkpt lat="44.09396" lon="4.20274">
        <ele>186.943</ele>
        <time>2013-03-03T09:28:15Z</time>
      </trkpt>
      <trkpt lat="44.09371" lon="4.20326">
        <ele>183.714</ele>
        <time>2013-03-03T09:28:22Z</time>
      </trkpt>
      <trkpt lat="44.09368" lon="4.20332">
        <ele>183.029</ele>
        <time>2013-03-03T09:28:23Z</time>
      </trkpt>
      <trkpt lat="44.09363" lon="4.20365">
        <ele>181.723</ele>
        <time>2013-03-03T09:28:27Z</time>
      </trkpt>
      <trkpt lat="44.09357" lon="4.20383">
        <ele>181.426</ele>
        <time>2013-03-03T09:28:30Z</time>
      </trkpt>
      <trkpt lat="44.09348" lon="4.20394">
        <ele>181.265</ele>
        <time>2013-03-03T09:28:33Z</time>
      </trkpt>
      <trkpt lat="44.09322" lon="4.20429">
        <ele>177.9</ele>
        <time>2013-03-03T09:28:39Z</time>
      </trkpt>
      <trkpt lat="44.09311" lon="4.20439">
        <ele>176.992</ele>
        <time>2013-03-03T09:28:41Z</time>
      </trkpt>
      <trkpt lat="44.09297" lon="4.20464">
        <ele>176.016</ele>
        <time>2013-03-03T09:28:45Z</time>
      </trkpt>
      <trkpt lat="44.09302" lon="4.20482">
        <ele>175.606</ele>
        <time>2013-03-03T09:28:48Z</time>
      </trkpt>
      <trkpt lat="44.09306" lon="4.20495">
        <ele>175.595</ele>
        <time>2013-03-03T09:28:50Z</time>
      </trkpt>
      <trkpt lat="44.09318" lon="4.20555">
        <ele>175.687</ele>
        <time>2013-03-03T09:28:58Z</time>
      </trkpt>
      <trkpt lat="44.09325" lon="4.20585">
        <ele>175.467</ele>
        <time>2013-03-03T09:29:02Z</time>
      </trkpt>
      <trkpt lat="44.09321" lon="4.20636">
        <ele>172.969</ele>
        <time>2013-03-03T09:29:08Z</time>
      </trkpt>
      <trkpt lat="44.09319" lon="4.20674">
        <ele>171.413</ele>
        <time>2013-03-03T09:29:12Z</time>
      </trkpt>
      <trkpt lat="44.09327" lon="4.20692">
        <ele>170.395</ele>
        <time>2013-03-03T09:29:16Z</time>
      </trkpt>
      <trkpt lat="44.09331" lon="4.20692">
        <ele>170.194</ele>
        <time>2013-03-03T09:29:17Z</time>
      </trkpt>
      <trkpt lat="44.09368" lon="4.20683">
        <ele>170.068</ele>
        <time>2013-03-03T09:29:25Z</time>
      </trkpt>
      <trkpt lat="44.09406" lon="4.20666">
        <ele>170.918</ele>
        <time>2013-03-03T09:29:34Z</time>
      </trkpt>
      <trkpt lat="44.0944" lon="4.20641">
        <ele>169.982</ele>
        <time>2013-03-03T09:29:42Z</time>
      </trkpt>
      <trkpt lat="44.09454" lon="4.20635">
        <ele>169.362</ele>
        <time>2013-03-03T09:29:45Z</time>
      </trkpt>
      <trkpt lat="44.09479" lon="4.20636">
        <ele>170.851</ele>
        <time>2013-03-03T09:29:51Z</time>
      </trkpt>
      <trkpt lat="44.0949" lon="4.20634">
        <ele>172.141</ele>
        <time>2013-03-03T09:29:55Z</time>
      </trkpt>
      <trkpt lat="44.09512" lon="4.20622">
        <ele>175.35</ele>
        <time>2013-03-03T09:30:04Z</time>
      </trkpt>
      <trkpt lat="44.09531" lon="4.20604">
        <ele>178.883</ele>
        <time>2013-03-03T09:30:12Z</time>
      </trkpt>
      <trkpt lat="44.09549" lon="4.20593">
        <ele>179.399</ele>
        <time>2013-03-03T09:30:19Z</time>
      </trkpt>
      <trkpt lat="44.09568" lon="4.20589">
        <ele>179.698</ele>
        <time>2013-03-03T09:30:25Z</time>
      </trkpt>
      <trkpt lat="44.09589" lon="4.20598">
        <ele>180.019</ele>
        <time>2013-03-03T09:30:32Z</time>
      </trkpt>
      <trkpt lat="44.09603" lon="4.20617">
        <ele>178.118</ele>
        <time>2013-03-03T09:30:38Z</time>
      </trkpt>
      <trkpt lat="44.09608" lon="4.20624">
        <ele>177.188</ele>
        <time>2013-03-03T09:30:42Z</time>
      </trkpt>
      <trkpt lat="44.09615" lon="4.20627">
        <ele>177.339</ele>
        <time>2013-03-03T09:30:46Z</time>
      </trkpt>
      <trkpt lat="44.09624" lon="4.2063">
        <ele>177.66</ele>
        <time>2013-03-03T09:30:50Z</time>
      </trkpt>
      <trkpt lat="44.09633" lon="4.20625">
        <ele>178.451</ele>
        <time>2013-03-03T09:30:55Z</time>
      </trkpt>
      <trkpt lat="44.0964" lon="4.20622">
        <ele>179.432</ele>
        <time>2013-03-03T09:30:59Z</time>
      </trkpt>
      <trkpt lat="44.09654" lon="4.20611">
        <ele>180.431</ele>
        <time>2013-03-03T09:31:07Z</time>
      </trkpt>
      <trkpt lat="44.09663" lon="4.20603">
        <ele>181.812</ele>
        <time>2013-03-03T09:31:13Z</time>
      </trkpt>
      <trkpt lat="44.09672" lon="4.20596">
        <ele>182.842</ele>
        <time>2013-03-03T09:31:19Z</time>
      </trkpt>
      <trkpt lat="44.09685" lon="4.20588">
        <ele>184.41</ele>
        <time>2013-03-03T09:31:27Z</time>
      </trkpt>
      <trkpt lat="44.09701" lon="4.20583">
        <ele>184.761</ele>
        <time>2013-03-03T09:31:36Z</time>
      </trkpt>
      <trkpt lat="44.09714" lon="4.20578">
        <ele>186.88</ele>
        <time>2013-03-03T09:31:44Z</time>
      </trkpt>
      <trkpt lat="44.09729" lon="4.20575">
        <ele>189.073</ele>
        <time>2013-03-03T09:31:53Z</time>
      </trkpt>
      <trkpt lat="44.09742" lon="4.20576">
        <ele>190.46</ele>
        <time>2013-03-03T09:32:02Z</time>
      </trkpt>
      <trkpt lat="44.09757" lon="4.20574">
        <ele>191.75</ele>
        <time>2013-03-03T09:32:12Z</time>
      </trkpt>
      <trkpt lat="44.09769" lon="4.20571">
        <ele>192.841</ele>
        <time>2013-03-03T09:32:20Z</time>
      </trkpt>
      <trkpt lat="44.09783" lon="4.20568">
        <ele>194.944</ele>
        <time>2013-03-03T09:32:29Z</time>
      </trkpt>
      <trkpt lat="44.09795" lon="4.20565">
        <ele>197.054</ele>
        <time>2013-03-03T09:32:37Z</time>
      </trkpt>
      <trkpt lat="44.09808" lon="4.2056">
        <ele>198.762</ele>
        <time>2013-03-03T09:32:46Z</time>
      </trkpt>
      <trkpt lat="44.09817" lon="4.20555">
        <ele>200.844</ele>
        <time>2013-03-03T09:32:52Z</time>
      </trkpt>
      <trkpt lat="44.0983" lon="4.20544">
        <ele>201.148</ele>
        <time>2013-03-03T09:33:00Z</time>
      </trkpt>
      <trkpt lat="44.09843" lon="4.20536">
        <ele>199.543</ele>
        <time>2013-03-03T09:33:06Z</time>
      </trkpt>
      <trkpt lat="44.0986" lon="4.20528">
        <ele>197.592</ele>
        <time>2013-03-03T09:33:11Z</time>
      </trkpt>
      <trkpt lat="44.09879" lon="4.20518">
        <ele>196.103</ele>
        <time>2013-03-03T09:33:17Z</time>
      </trkpt>
      <trkpt lat="44.09905" lon="4.20499">
        <ele>193.713</ele>
        <time>2013-03-03T09:33:24Z</time>
      </trkpt>
      <trkpt lat="44.09926" lon="4.20483">
        <ele>193.046</ele>
        <time>2013-03-03T09:33:29Z</time>
      </trkpt>
      <trkpt lat="44.09947" lon="4.20475">
        <ele>192.968</ele>
        <time>2013-03-03T09:33:35Z</time>
      </trkpt>
      <trkpt lat="44.09962" lon="4.20475">
        <ele>193.16</ele>
        <time>2013-03-03T09:33:40Z</time>
      </trkpt>
      <trkpt lat="44.09975" lon="4.20467">
        <ele>193.482</ele>
        <time>2013-03-03T09:33:45Z</time>
      </trkpt>
      <trkpt lat="44.09982" lon="4.20463">
        <ele>193.784</ele>
        <time>2013-03-03T09:33:48Z</time>
      </trkpt>
      <trkpt lat="44.09981" lon="4.20453">
        <ele>193.88</ele>
        <time>2013-03-03T09:33:53Z</time>
      </trkpt>
      <trkpt lat="44.0998" lon="4.20452">
        <ele>193.869</ele>
        <time>2013-03-03T09:33:54Z</time>
      </trkpt>
      <trkpt lat="44.09979" lon="4.20448">
        <ele>193.708</ele>
        <time>2013-03-03T09:33:56Z</time>
      </trkpt>
      <trkpt lat="44.0998" lon="4.20443">
        <ele>192.998</ele>
        <time>2013-03-03T09:33:58Z</time>
      </trkpt>
      <trkpt lat="44.09974" lon="4.20434">
        <ele>192.61</ele>
        <time>2013-03-03T09:34:04Z</time>
      </trkpt>
      <trkpt lat="44.09966" lon="4.20424">
        <ele>192.561</ele>
        <time>2013-03-03T09:34:09Z</time>
      </trkpt>
      <trkpt lat="44.09964" lon="4.2041">
        <ele>192.719</ele>
        <time>2013-03-03T09:34:14Z</time>
      </trkpt>
      <trkpt lat="44.09963" lon="4.20388">
        <ele>192.724</ele>
        <time>2013-03-03T09:34:22Z</time>
      </trkpt>
      <trkpt lat="44.09963" lon="4.20371">
        <ele>193.441</ele>
        <time>2013-03-03T09:34:29Z</time>
      </trkpt>
      <trkpt lat="44.09963" lon="4.20354">
        <ele>193.401</ele>
        <time>2013-03-03T09:34:37Z</time>
      </trkpt>
      <trkpt lat="44.09963" lon="4.20335">
        <ele>194.249</ele>
        <time>2013-03-03T09:34:46Z</time>
      </trkpt>
      <trkpt lat="44.09962" lon="4.20315">
        <ele>194.729</ele>
        <time>2013-03-03T09:34:55Z</time>
      </trkpt>
      <trkpt lat="44.09957" lon="4.20294">
        <ele>198.861</ele>
        <time>2013-03-03T09:35:04Z</time>
      </trkpt>
      <trkpt lat="44.09953" lon="4.20274">
        <ele>201.39</ele>
        <time>2013-03-03T09:35:13Z</time>
      </trkpt>
      <trkpt lat="44.09951" lon="4.20255">
        <ele>203.231</ele>
        <time>2013-03-03T09:35:22Z</time>
      </trkpt>
      <trkpt lat="44.0995" lon="4.20238">
        <ele>204.35</ele>
        <time>2013-03-03T09:35:30Z</time>
      </trkpt>
      <trkpt lat="44.09952" lon="4.20219">
        <ele>205.371</ele>
        <time>2013-03-03T09:35:39Z</time>
      </trkpt>
      <trkpt lat="44.09951" lon="4.20202">
        <ele>206.601</ele>
        <time>2013-03-03T09:35:47Z</time>
      </trkpt>
      <trkpt lat="44.0995" lon="4.2019">
        <ele>207.811</ele>
        <time>2013-03-03T09:35:53Z</time>
      </trkpt>
      <trkpt lat="44.09948" lon="4.20176">
        <ele>209.352</ele>
        <time>2013-03-03T09:36:00Z</time>
      </trkpt>
      <trkpt lat="44.09944" lon="4.20161">
        <ele>212.011</ele>
        <time>2013-03-03T09:36:08Z</time>
      </trkpt>
      <trkpt lat="44.09944" lon="4.20158">
        <ele>212.007</ele>
        <time>2013-03-03T09:36:10Z</time>
      </trkpt>
      <trkpt lat="44.09943" lon="4.20149">
        <ele>211.798</ele>
        <time>2013-03-03T09:36:15Z</time>
      </trkpt>
      <trkpt lat="44.09941" lon="4.20132">
        <ele>213.711</ele>
        <time>2013-03-03T09:36:24Z</time>
      </trkpt>
      <trkpt lat="44.0994" lon="4.20119">
        <ele>214.128</ele>
        <time>2013-03-03T09:36:31Z</time>
      </trkpt>
      <trkpt lat="44.09938" lon="4.201">
        <ele>216.211</ele>
        <time>2013-03-03T09:36:40Z</time>
      </trkpt>
      <trkpt lat="44.09937" lon="4.20088">
        <ele>217.94</ele>
        <time>2013-03-03T09:36:46Z</time>
      </trkpt>
      <trkpt lat="44.09935" lon="4.20078">
        <ele>218.266</ele>
        <time>2013-03-03T09:36:51Z</time>
      </trkpt>
      <trkpt lat="44.09934" lon="4.20063">
        <ele>218.578</ele>
        <time>2013-03-03T09:36:58Z</time>
      </trkpt>
      <trkpt lat="44.09932" lon="4.20044">
        <ele>218.785</ele>
        <time>2013-03-03T09:37:07Z</time>
      </trkpt>
      <trkpt lat="44.09929" lon="4.2003">
        <ele>220.268</ele>
        <time>2013-03-03T09:37:13Z</time>
      </trkpt>
      <trkpt lat="44.09923" lon="4.20029">
        <ele>221.281</ele>
        <time>2013-03-03T09:37:18Z</time>
      </trkpt>
      <trkpt lat="44.0992" lon="4.20033">
        <ele>221.92</ele>
        <time>2013-03-03T09:37:21Z</time>
      </trkpt>
      <trkpt lat="44.0991" lon="4.20037">
        <ele>223.98</ele>
        <time>2013-03-03T09:37:29Z</time>
      </trkpt>
      <trkpt lat="44.09895" lon="4.20039">
        <ele>225.249</ele>
        <time>2013-03-03T09:37:37Z</time>
      </trkpt>
      <trkpt lat="44.09883" lon="4.20043">
        <ele>224.939</ele>
        <time>2013-03-03T09:37:43Z</time>
      </trkpt>
      <trkpt lat="44.09873" lon="4.20051">
        <ele>225.349</ele>
        <time>2013-03-03T09:37:48Z</time>
      </trkpt>
      <trkpt lat="44.09865" lon="4.2006">
        <ele>226.179</ele>
        <time>2013-03-03T09:37:53Z</time>
      </trkpt>
      <trkpt lat="44.09855" lon="4.20075">
        <ele>227.319</ele>
        <time>2013-03-03T09:37:59Z</time>
      </trkpt>
      <trkpt lat="44.09851" lon="4.20081">
        <ele>226.848</ele>
        <time>2013-03-03T09:38:02Z</time>
      </trkpt>
      <trkpt lat="44.09837" lon="4.20081">
        <ele>226.508</ele>
        <time>2013-03-03T09:38:07Z</time>
      </trkpt>
      <trkpt lat="44.09826" lon="4.20078">
        <ele>226.428</ele>
        <time>2013-03-03T09:38:11Z</time>
      </trkpt>
      <trkpt lat="44.09815" lon="4.20069">
        <ele>225.717</ele>
        <time>2013-03-03T09:38:15Z</time>
      </trkpt>
      <trkpt lat="44.09809" lon="4.20055">
        <ele>225.749</ele>
        <time>2013-03-03T09:38:20Z</time>
      </trkpt>
      <trkpt lat="44.09808" lon="4.20052">
        <ele>225.869</ele>
        <time>2013-03-03T09:38:21Z</time>
      </trkpt>
      <trkpt lat="44.098" lon="4.20035">
        <ele>227.97</ele>
        <time>2013-03-03T09:38:27Z</time>
      </trkpt>
      <trkpt lat="44.0979" lon="4.20018">
        <ele>230.2</ele>
        <time>2013-03-03T09:38:33Z</time>
      </trkpt>
      <trkpt lat="44.09781" lon="4.19994">
        <ele>231.019</ele>
        <time>2013-03-03T09:38:40Z</time>
      </trkpt>
      <trkpt lat="44.09776" lon="4.19976">
        <ele>232.56</ele>
        <time>2013-03-03T09:38:45Z</time>
      </trkpt>
      <trkpt lat="44.0977" lon="4.19959">
        <ele>232.619</ele>
        <time>2013-03-03T09:38:50Z</time>
      </trkpt>
      <trkpt lat="44.0976" lon="4.19934">
        <ele>233.629</ele>
        <time>2013-03-03T09:38:57Z</time>
      </trkpt>
      <trkpt lat="44.09758" lon="4.19913">
        <ele>234.779</ele>
        <time>2013-03-03T09:39:03Z</time>
      </trkpt>
      <trkpt lat="44.09758" lon="4.19902">
        <ele>234.578</ele>
        <time>2013-03-03T09:39:06Z</time>
      </trkpt>
      <trkpt lat="44.09757" lon="4.19878">
        <ele>234.017</ele>
        <time>2013-03-03T09:39:12Z</time>
      </trkpt>
      <trkpt lat="44.09748" lon="4.19853">
        <ele>232.497</ele>
        <time>2013-03-03T09:39:18Z</time>
      </trkpt>
      <trkpt lat="44.09736" lon="4.19836">
        <ele>229.866</ele>
        <time>2013-03-03T09:39:23Z</time>
      </trkpt>
      <trkpt lat="44.0973" lon="4.1982">
        <ele>228.226</ele>
        <time>2013-03-03T09:39:26Z</time>
      </trkpt>
      <trkpt lat="44.09713" lon="4.19792">
        <ele>226.947</ele>
        <time>2013-03-03T09:39:32Z</time>
      </trkpt>
      <trkpt lat="44.09714" lon="4.19791">
        <ele>226.988</ele>
        <time>2013-03-03T09:39:36Z</time>
      </trkpt>
      <trkpt lat="44.09722" lon="4.19787">
        <ele>227.068</ele>
        <time>2013-03-03T09:39:42Z</time>
      </trkpt>
      <trkpt lat="44.0973" lon="4.19776">
        <ele>226.848</ele>
        <time>2013-03-03T09:39:47Z</time>
      </trkpt>
      <trkpt lat="44.09738" lon="4.19768">
        <ele>225.888</ele>
        <time>2013-03-03T09:39:51Z</time>
      </trkpt>
      <trkpt lat="44.09748" lon="4.19756">
        <ele>224.677</ele>
        <time>2013-03-03T09:39:56Z</time>
      </trkpt>
      <trkpt lat="44.09764" lon="4.19738">
        <ele>222.836</ele>
        <time>2013-03-03T09:40:02Z</time>
      </trkpt>
      <trkpt lat="44.09783" lon="4.19727">
        <ele>221.547</ele>
        <time>2013-03-03T09:40:08Z</time>
      </trkpt>
      <trkpt lat="44.09792" lon="4.19723">
        <ele>220.145</ele>
        <time>2013-03-03T09:40:11Z</time>
      </trkpt>
      <trkpt lat="44.09796" lon="4.19706">
        <ele>218.305</ele>
        <time>2013-03-03T09:40:15Z</time>
      </trkpt>
      <trkpt lat="44.09792" lon="4.19692">
        <ele>218.827</ele>
        <time>2013-03-03T09:40:18Z</time>
      </trkpt>
      <trkpt lat="44.09793" lon="4.19668">
        <ele>218.007</ele>
        <time>2013-03-03T09:40:24Z</time>
      </trkpt>
      <trkpt lat="44.09796" lon="4.19652">
        <ele>218.118</ele>
        <time>2013-03-03T09:40:28Z</time>
      </trkpt>
      <trkpt lat="44.09797" lon="4.19649">
        <ele>218.258</ele>
        <time>2013-03-03T09:40:29Z</time>
      </trkpt>
      <trkpt lat="44.09799" lon="4.19631">
        <ele>218.718</ele>
        <time>2013-03-03T09:40:34Z</time>
      </trkpt>
      <trkpt lat="44.09804" lon="4.19612">
        <ele>219.298</ele>
        <time>2013-03-03T09:40:40Z</time>
      </trkpt>
      <trkpt lat="44.09806" lon="4.19596">
        <ele>219.628</ele>
        <time>2013-03-03T09:40:45Z</time>
      </trkpt>
      <trkpt lat="44.09805" lon="4.19578">
        <ele>219.167</ele>
        <time>2013-03-03T09:40:49Z</time>
      </trkpt>
      <trkpt lat="44.09799" lon="4.19562">
        <ele>218.647</ele>
        <time>2013-03-03T09:40:53Z</time>
      </trkpt>
      <trkpt lat="44.09784" lon="4.19546">
        <ele>218.457</ele>
        <time>2013-03-03T09:40:59Z</time>
      </trkpt>
      <trkpt lat="44.09774" lon="4.19536">
        <ele>218.267</ele>
        <time>2013-03-03T09:41:04Z</time>
      </trkpt>
      <trkpt lat="44.09764" lon="4.19524">
        <ele>218.097</ele>
        <time>2013-03-03T09:41:08Z</time>
      </trkpt>
      <trkpt lat="44.09755" lon="4.19516">
        <ele>218.217</ele>
        <time>2013-03-03T09:41:11Z</time>
      </trkpt>
      <trkpt lat="44.0975" lon="4.19498">
        <ele>217.416</ele>
        <time>2013-03-03T09:41:15Z</time>
      </trkpt>
      <trkpt lat="44.09735" lon="4.19466">
        <ele>215.075</ele>
        <time>2013-03-03T09:41:21Z</time>
      </trkpt>
      <trkpt lat="44.09718" lon="4.1942">
        <ele>213.596</ele>
        <time>2013-03-03T09:41:28Z</time>
      </trkpt>
      <trkpt lat="44.09708" lon="4.19391">
        <ele>212.256</ele>
        <time>2013-03-03T09:41:33Z</time>
      </trkpt>
      <trkpt lat="44.09698" lon="4.19373">
        <ele>210.616</ele>
        <time>2013-03-03T09:41:38Z</time>
      </trkpt>
      <trkpt lat="44.09686" lon="4.19371">
        <ele>210.107</ele>
        <time>2013-03-03T09:41:42Z</time>
      </trkpt>
      <trkpt lat="44.09661" lon="4.19354">
        <ele>210.777</ele>
        <time>2013-03-03T09:41:49Z</time>
      </trkpt>
      <trkpt lat="44.0965" lon="4.19358">
        <ele>210.667</ele>
        <time>2013-03-03T09:41:53Z</time>
      </trkpt>
      <trkpt lat="44.09645" lon="4.19375">
        <ele>210.577</ele>
        <time>2013-03-03T09:41:57Z</time>
      </trkpt>
      <trkpt lat="44.0964" lon="4.19406">
        <ele>211.927</ele>
        <time>2013-03-03T09:42:05Z</time>
      </trkpt>
      <trkpt lat="44.09632" lon="4.19423">
        <ele>212.927</ele>
        <time>2013-03-03T09:42:10Z</time>
      </trkpt>
      <trkpt lat="44.0962" lon="4.19447">
        <ele>213.187</ele>
        <time>2013-03-03T09:42:17Z</time>
      </trkpt>
      <trkpt lat="44.09602" lon="4.19471">
        <ele>213.257</ele>
        <time>2013-03-03T09:42:25Z</time>
      </trkpt>
      <trkpt lat="44.09593" lon="4.19482">
        <ele>213.307</ele>
        <time>2013-03-03T09:42:29Z</time>
      </trkpt>
      <trkpt lat="44.09582" lon="4.19476">
        <ele>213.476</ele>
        <time>2013-03-03T09:42:34Z</time>
      </trkpt>
      <trkpt lat="44.0958" lon="4.19473">
        <ele>213.546</ele>
        <time>2013-03-03T09:42:35Z</time>
      </trkpt>
      <trkpt lat="44.09563" lon="4.19444">
        <ele>214.347</ele>
        <time>2013-03-03T09:42:43Z</time>
      </trkpt>
      <trkpt lat="44.0955" lon="4.19423">
        <ele>215.327</ele>
        <time>2013-03-03T09:42:49Z</time>
      </trkpt>
      <trkpt lat="44.09538" lon="4.19397">
        <ele>215.827</ele>
        <time>2013-03-03T09:42:55Z</time>
      </trkpt>
      <trkpt lat="44.0953" lon="4.1937">
        <ele>216.306</ele>
        <time>2013-03-03T09:43:01Z</time>
      </trkpt>
      <trkpt lat="44.0952" lon="4.19325">
        <ele>217.827</ele>
        <time>2013-03-03T09:43:11Z</time>
      </trkpt>
      <trkpt lat="44.0951" lon="4.19305">
        <ele>219.237</ele>
        <time>2013-03-03T09:43:17Z</time>
      </trkpt>
      <trkpt lat="44.09502" lon="4.19293">
        <ele>220.528</ele>
        <time>2013-03-03T09:43:22Z</time>
      </trkpt>
      <trkpt lat="44.09507" lon="4.1928">
        <ele>219.916</ele>
        <time>2013-03-03T09:43:27Z</time>
      </trkpt>
      <trkpt lat="44.0952" lon="4.19258">
        <ele>218.696</ele>
        <time>2013-03-03T09:43:35Z</time>
      </trkpt>
      <trkpt lat="44.09539" lon="4.19233">
        <ele>218.116</ele>
        <time>2013-03-03T09:43:44Z</time>
      </trkpt>
      <trkpt lat="44.09541" lon="4.1923">
        <ele>217.916</ele>
        <time>2013-03-03T09:43:45Z</time>
      </trkpt>
      <trkpt lat="44.0954" lon="4.19217">
        <ele>218.316</ele>
        <time>2013-03-03T09:43:49Z</time>
      </trkpt>
      <trkpt lat="44.09538" lon="4.19206">
        <ele>218.195</ele>
        <time>2013-03-03T09:43:52Z</time>
      </trkpt>
      <trkpt lat="44.09546" lon="4.19193">
        <ele>217.536</ele>
        <time>2013-03-03T09:43:56Z</time>
      </trkpt>
      <trkpt lat="44.0955" lon="4.19185">
        <ele>217.356</ele>
        <time>2013-03-03T09:43:58Z</time>
      </trkpt>
      <trkpt lat="44.09563" lon="4.19157">
        <ele>216.406</ele>
        <time>2013-03-03T09:44:05Z</time>
      </trkpt>
      <trkpt lat="44.09566" lon="4.19148">
        <ele>216.235</ele>
        <time>2013-03-03T09:44:07Z</time>
      </trkpt>
      <trkpt lat="44.09575" lon="4.19131">
        <ele>214.594</ele>
        <time>2013-03-03T09:44:12Z</time>
      </trkpt>
      <trkpt lat="44.0957" lon="4.19125">
        <ele>214.165</ele>
        <time>2013-03-03T09:44:14Z</time>
      </trkpt>
      <trkpt lat="44.09563" lon="4.19114">
        <ele>214.245</ele>
        <time>2013-03-03T09:44:17Z</time>
      </trkpt>
      <trkpt lat="44.09548" lon="4.19101">
        <ele>214.195</ele>
        <time>2013-03-03T09:44:21Z</time>
      </trkpt>
      <trkpt lat="44.09544" lon="4.19101">
        <ele>214.055</ele>
        <time>2013-03-03T09:44:22Z</time>
      </trkpt>
      <trkpt lat="44.0953" lon="4.19099">
        <ele>214.025</ele>
        <time>2013-03-03T09:44:25Z</time>
      </trkpt>
      <trkpt lat="44.09516" lon="4.19098">
        <ele>214.436</ele>
        <time>2013-03-03T09:44:28Z</time>
      </trkpt>
      <trkpt lat="44.09501" lon="4.19096">
        <ele>214.555</ele>
        <time>2013-03-03T09:44:31Z</time>
      </trkpt>
      <trkpt lat="44.09492" lon="4.19094">
        <ele>214.285</ele>
        <time>2013-03-03T09:44:33Z</time>
      </trkpt>
      <trkpt lat="44.09484" lon="4.19093">
        <ele>214.535</ele>
        <time>2013-03-03T09:44:35Z</time>
      </trkpt>
      <trkpt lat="44.0947" lon="4.19091">
        <ele>213.975</ele>
        <time>2013-03-03T09:44:38Z</time>
      </trkpt>
      <trkpt lat="44.09448" lon="4.19083">
        <ele>212.935</ele>
        <time>2013-03-03T09:44:43Z</time>
      </trkpt>
      <trkpt lat="44.09436" lon="4.19071">
        <ele>212.145</ele>
        <time>2013-03-03T09:44:47Z</time>
      </trkpt>
      <trkpt lat="44.09434" lon="4.19067">
        <ele>212.315</ele>
        <time>2013-03-03T09:44:48Z</time>
      </trkpt>
      <trkpt lat="44.09424" lon="4.19051">
        <ele>212.816</ele>
        <time>2013-03-03T09:44:53Z</time>
      </trkpt>
      <trkpt lat="44.09414" lon="4.19031">
        <ele>212.165</ele>
        <time>2013-03-03T09:44:58Z</time>
      </trkpt>
      <trkpt lat="44.09407" lon="4.1902">
        <ele>212.355</ele>
        <time>2013-03-03T09:45:01Z</time>
      </trkpt>
      <trkpt lat="44.09409" lon="4.19003">
        <ele>211.344</ele>
        <time>2013-03-03T09:45:05Z</time>
      </trkpt>
      <trkpt lat="44.09412" lon="4.18977">
        <ele>209.924</ele>
        <time>2013-03-03T09:45:10Z</time>
      </trkpt>
      <trkpt lat="44.09412" lon="4.18961">
        <ele>208.753</ele>
        <time>2013-03-03T09:45:13Z</time>
      </trkpt>
      <trkpt lat="44.09393" lon="4.1895">
        <ele>207.203</ele>
        <time>2013-03-03T09:45:18Z</time>
      </trkpt>
      <trkpt lat="44.0939" lon="4.18934">
        <ele>205.133</ele>
        <time>2013-03-03T09:45:21Z</time>
      </trkpt>
      <trkpt lat="44.09393" lon="4.18909">
        <ele>202.162</ele>
        <time>2013-03-03T09:45:25Z</time>
      </trkpt>
      <trkpt lat="44.09386" lon="4.18892">
        <ele>200.822</ele>
        <time>2013-03-03T09:45:28Z</time>
      </trkpt>
      <trkpt lat="44.09378" lon="4.18873">
        <ele>199.392</ele>
        <time>2013-03-03T09:45:31Z</time>
      </trkpt>
      <trkpt lat="44.09375" lon="4.18867">
        <ele>199.062</ele>
        <time>2013-03-03T09:45:32Z</time>
      </trkpt>
      <trkpt lat="44.09357" lon="4.18838">
        <ele>196.742</ele>
        <time>2013-03-03T09:45:37Z</time>
      </trkpt>
      <trkpt lat="44.09343" lon="4.1882">
        <ele>194.912</ele>
        <time>2013-03-03T09:45:40Z</time>
      </trkpt>
      <trkpt lat="44.09325" lon="4.18805">
        <ele>192.021</ele>
        <time>2013-03-03T09:45:44Z</time>
      </trkpt>
      <trkpt lat="44.09319" lon="4.18796">
        <ele>190.972</ele>
        <time>2013-03-03T09:45:46Z</time>
      </trkpt>
      <trkpt lat="44.09313" lon="4.18762">
        <ele>186.702</ele>
        <time>2013-03-03T09:45:53Z</time>
      </trkpt>
      <trkpt lat="44.09308" lon="4.18736">
        <ele>184.092</ele>
        <time>2013-03-03T09:45:58Z</time>
      </trkpt>
      <trkpt lat="44.09306" lon="4.18726">
        <ele>182.602</ele>
        <time>2013-03-03T09:46:02Z</time>
      </trkpt>
      <trkpt lat="44.09304" lon="4.18728">
        <ele>182.134</ele>
        <time>2013-03-03T09:46:16Z</time>
      </trkpt>
      <trkpt lat="44.09301" lon="4.18727">
        <ele>182.454</ele>
        <time>2013-03-03T09:46:22Z</time>
      </trkpt>
      <trkpt lat="44.093" lon="4.18727">
        <ele>182.696</ele>
        <time>2013-03-03T09:46:24Z</time>
      </trkpt>
      <trkpt lat="44.09301" lon="4.18728">
        <ele>184.055</ele>
        <time>2013-03-03T09:46:42Z</time>
      </trkpt>
      <trkpt lat="44.0931" lon="4.18721">
        <ele>179.223</ele>
        <time>2013-03-03T09:47:04Z</time>
      </trkpt>
      <trkpt lat="44.0931" lon="4.18724">
        <ele>180.396</ele>
        <time>2013-03-03T09:49:43Z</time>
      </trkpt>
      <trkpt lat="44.09305" lon="4.18725">
        <ele>182.045</ele>
        <time>2013-03-03T09:53:52Z</time>
      </trkpt>
      <trkpt lat="44.09301" lon="4.18727">
        <ele>184.005</ele>
        <time>2013-03-03T09:53:59Z</time>
      </trkpt>
      <trkpt lat="44.09301" lon="4.18726">
        <ele>185.021</ele>
        <time>2013-03-03T09:54:00Z</time>
      </trkpt>
      <trkpt lat="44.09303" lon="4.18723">
        <ele>182.888</ele>
        <time>2013-03-03T09:54:32Z</time>
      </trkpt>
      <trkpt lat="44.09304" lon="4.18728">
        <ele>181.938</ele>
        <time>2013-03-03T09:55:07Z</time>
      </trkpt>
      <trkpt lat="44.09309" lon="4.18727">
        <ele>182.734</ele>
        <time>2013-03-03T09:55:58Z</time>
      </trkpt>
      <trkpt lat="44.09314" lon="4.18726">
        <ele>182.154</ele>
        <time>2013-03-03T09:56:06Z</time>
      </trkpt>
      <trkpt lat="44.09315" lon="4.18727">
        <ele>182.359</ele>
        <time>2013-03-03T09:56:09Z</time>
      </trkpt>
      <trkpt lat="44.09327" lon="4.18743">
        <ele>182.935</ele>
        <time>2013-03-03T09:56:19Z</time>
      </trkpt>
      <trkpt lat="44.09339" lon="4.18745">
        <ele>183.855</ele>
        <time>2013-03-03T09:56:24Z</time>
      </trkpt>
      <trkpt lat="44.09355" lon="4.18751">
        <ele>184.305</ele>
        <time>2013-03-03T09:56:30Z</time>
      </trkpt>
      <trkpt lat="44.09372" lon="4.18765">
        <ele>185.055</ele>
        <time>2013-03-03T09:56:37Z</time>
      </trkpt>
      <trkpt lat="44.0939" lon="4.18769">
        <ele>186.775</ele>
        <time>2013-03-03T09:56:43Z</time>
      </trkpt>
      <trkpt lat="44.09412" lon="4.18772">
        <ele>188.046</ele>
        <time>2013-03-03T09:56:50Z</time>
      </trkpt>
      <trkpt lat="44.09429" lon="4.18781">
        <ele>189.315</ele>
        <time>2013-03-03T09:56:56Z</time>
      </trkpt>
      <trkpt lat="44.09447" lon="4.18792">
        <ele>191.146</ele>
        <time>2013-03-03T09:57:04Z</time>
      </trkpt>
      <trkpt lat="44.09452" lon="4.18798">
        <ele>192.316</ele>
        <time>2013-03-03T09:57:08Z</time>
      </trkpt>
      <trkpt lat="44.09464" lon="4.18808">
        <ele>194.497</ele>
        <time>2013-03-03T09:57:14Z</time>
      </trkpt>
      <trkpt lat="44.0947" lon="4.18811">
        <ele>195.497</ele>
        <time>2013-03-03T09:57:17Z</time>
      </trkpt>
      <trkpt lat="44.09476" lon="4.18822">
        <ele>196.656</ele>
        <time>2013-03-03T09:57:22Z</time>
      </trkpt>
      <trkpt lat="44.09482" lon="4.18827">
        <ele>197.086</ele>
        <time>2013-03-03T09:57:26Z</time>
      </trkpt>
      <trkpt lat="44.09485" lon="4.18833">
        <ele>198.226</ele>
        <time>2013-03-03T09:57:29Z</time>
      </trkpt>
      <trkpt lat="44.09496" lon="4.18834">
        <ele>198.765</ele>
        <time>2013-03-03T09:57:34Z</time>
      </trkpt>
      <trkpt lat="44.09502" lon="4.18837">
        <ele>198.375</ele>
        <time>2013-03-03T09:57:37Z</time>
      </trkpt>
      <trkpt lat="44.09515" lon="4.18848">
        <ele>198.556</ele>
        <time>2013-03-03T09:57:44Z</time>
      </trkpt>
      <trkpt lat="44.09525" lon="4.18855">
        <ele>199.086</ele>
        <time>2013-03-03T09:57:49Z</time>
      </trkpt>
      <trkpt lat="44.09534" lon="4.18868">
        <ele>200.937</ele>
        <time>2013-03-03T09:57:56Z</time>
      </trkpt>
      <trkpt lat="44.09543" lon="4.18878">
        <ele>201.156</ele>
        <time>2013-03-03T09:58:02Z</time>
      </trkpt>
      <trkpt lat="44.09559" lon="4.18883">
        <ele>199.955</ele>
        <time>2013-03-03T09:58:09Z</time>
      </trkpt>
      <trkpt lat="44.09567" lon="4.1888">
        <ele>198.674</ele>
        <time>2013-03-03T09:58:12Z</time>
      </trkpt>
      <trkpt lat="44.09573" lon="4.18857">
        <ele>196.705</ele>
        <time>2013-03-03T09:58:18Z</time>
      </trkpt>
      <trkpt lat="44.09579" lon="4.18835">
        <ele>196.026</ele>
        <time>2013-03-03T09:58:26Z</time>
      </trkpt>
      <trkpt lat="44.09583" lon="4.18821">
        <ele>196.936</ele>
        <time>2013-03-03T09:58:33Z</time>
      </trkpt>
      <trkpt lat="44.09585" lon="4.1881">
        <ele>197.996</ele>
        <time>2013-03-03T09:58:40Z</time>
      </trkpt>
      <trkpt lat="44.09587" lon="4.188">
        <ele>198.576</ele>
        <time>2013-03-03T09:58:46Z</time>
      </trkpt>
      <trkpt lat="44.0959" lon="4.18789">
        <ele>199.036</ele>
        <time>2013-03-03T09:58:53Z</time>
      </trkpt>
      <trkpt lat="44.09595" lon="4.18771">
        <ele>200.366</ele>
        <time>2013-03-03T09:59:03Z</time>
      </trkpt>
      <trkpt lat="44.09599" lon="4.18754">
        <ele>202.106</ele>
        <time>2013-03-03T09:59:13Z</time>
      </trkpt>
      <trkpt lat="44.09605" lon="4.18738">
        <ele>203.315</ele>
        <time>2013-03-03T09:59:20Z</time>
      </trkpt>
      <trkpt lat="44.09612" lon="4.18733">
        <ele>204.005</ele>
        <time>2013-03-03T09:59:25Z</time>
      </trkpt>
      <trkpt lat="44.09626" lon="4.18731">
        <ele>204.245</ele>
        <time>2013-03-03T09:59:33Z</time>
      </trkpt>
      <trkpt lat="44.09639" lon="4.18727">
        <ele>205.955</ele>
        <time>2013-03-03T09:59:41Z</time>
      </trkpt>
      <trkpt lat="44.0965" lon="4.18726">
        <ele>206.405</ele>
        <time>2013-03-03T09:59:48Z</time>
      </trkpt>
      <trkpt lat="44.09662" lon="4.18723">
        <ele>208.406</ele>
        <time>2013-03-03T09:59:56Z</time>
      </trkpt>
      <trkpt lat="44.09674" lon="4.1872">
        <ele>209.306</ele>
        <time>2013-03-03T10:00:04Z</time>
      </trkpt>
      <trkpt lat="44.09689" lon="4.18722">
        <ele>210.285</ele>
        <time>2013-03-03T10:00:13Z</time>
      </trkpt>
      <trkpt lat="44.09706" lon="4.18728">
        <ele>215.506</ele>
        <time>2013-03-03T10:00:23Z</time>
      </trkpt>
      <trkpt lat="44.09719" lon="4.18732">
        <ele>216.086</ele>
        <time>2013-03-03T10:00:31Z</time>
      </trkpt>
      <trkpt lat="44.09734" lon="4.18734">
        <ele>214.735</ele>
        <time>2013-03-03T10:00:39Z</time>
      </trkpt>
      <trkpt lat="44.0975" lon="4.18736">
        <ele>214.466</ele>
        <time>2013-03-03T10:00:46Z</time>
      </trkpt>
      <trkpt lat="44.09768" lon="4.1874">
        <ele>214.346</ele>
        <time>2013-03-03T10:00:54Z</time>
      </trkpt>
      <trkpt lat="44.09783" lon="4.18741">
        <ele>214.376</ele>
        <time>2013-03-03T10:01:01Z</time>
      </trkpt>
      <trkpt lat="44.09801" lon="4.18739">
        <ele>214.376</ele>
        <time>2013-03-03T10:01:09Z</time>
      </trkpt>
      <trkpt lat="44.09815" lon="4.18733">
        <ele>213.886</ele>
        <time>2013-03-03T10:01:15Z</time>
      </trkpt>
      <trkpt lat="44.0983" lon="4.18716">
        <ele>212.155</ele>
        <time>2013-03-03T10:01:23Z</time>
      </trkpt>
      <trkpt lat="44.09838" lon="4.18701">
        <ele>211.245</ele>
        <time>2013-03-03T10:01:28Z</time>
      </trkpt>
      <trkpt lat="44.09851" lon="4.18677">
        <ele>210.075</ele>
        <time>2013-03-03T10:01:34Z</time>
      </trkpt>
      <trkpt lat="44.09862" lon="4.1865">
        <ele>208.915</ele>
        <time>2013-03-03T10:01:40Z</time>
      </trkpt>
      <trkpt lat="44.09867" lon="4.18619">
        <ele>207.305</ele>
        <time>2013-03-03T10:01:47Z</time>
      </trkpt>
      <trkpt lat="44.09875" lon="4.18587">
        <ele>205.365</ele>
        <time>2013-03-03T10:01:54Z</time>
      </trkpt>
      <trkpt lat="44.0988" lon="4.18579">
        <ele>205.095</ele>
        <time>2013-03-03T10:01:56Z</time>
      </trkpt>
      <trkpt lat="44.09888" lon="4.18564">
        <ele>204.785</ele>
        <time>2013-03-03T10:01:59Z</time>
      </trkpt>
      <trkpt lat="44.09904" lon="4.18546">
        <ele>203.634</ele>
        <time>2013-03-03T10:02:03Z</time>
      </trkpt>
      <trkpt lat="44.09916" lon="4.18532">
        <ele>203.965</ele>
        <time>2013-03-03T10:02:07Z</time>
      </trkpt>
      <trkpt lat="44.09913" lon="4.18521">
        <ele>204.296</ele>
        <time>2013-03-03T10:02:10Z</time>
      </trkpt>
      <trkpt lat="44.09907" lon="4.18503">
        <ele>206.887</ele>
        <time>2013-03-03T10:02:18Z</time>
      </trkpt>
      <trkpt lat="44.09904" lon="4.18498">
        <ele>208.798</ele>
        <time>2013-03-03T10:02:21Z</time>
      </trkpt>
      <trkpt lat="44.099" lon="4.18491">
        <ele>212.559</ele>
        <time>2013-03-03T10:02:27Z</time>
      </trkpt>
      <trkpt lat="44.09895" lon="4.18489">
        <ele>212.346</ele>
        <time>2013-03-03T10:02:39Z</time>
      </trkpt>
      <trkpt lat="44.09894" lon="4.18485">
        <ele>214.386</ele>
        <time>2013-03-03T10:02:54Z</time>
      </trkpt>
      <trkpt lat="44.0989" lon="4.18481">
        <ele>214.156</ele>
        <time>2013-03-03T10:03:01Z</time>
      </trkpt>
      <trkpt lat="44.09885" lon="4.18475">
        <ele>214.156</ele>
        <time>2013-03-03T10:03:08Z</time>
      </trkpt>
      <trkpt lat="44.09881" lon="4.1847">
        <ele>214.165</ele>
        <time>2013-03-03T10:03:16Z</time>
      </trkpt>
      <trkpt lat="44.09877" lon="4.18466">
        <ele>211.595</ele>
        <time>2013-03-03T10:03:45Z</time>
      </trkpt>
      <trkpt lat="44.09869" lon="4.18454">
        <ele>211.105</ele>
        <time>2013-03-03T10:03:52Z</time>
      </trkpt>
      <trkpt lat="44.09866" lon="4.1844">
        <ele>217.227</ele>
        <time>2013-03-03T10:03:58Z</time>
      </trkpt>
      <trkpt lat="44.09867" lon="4.18424">
        <ele>219.706</ele>
        <time>2013-03-03T10:04:04Z</time>
      </trkpt>
      <trkpt lat="44.09859" lon="4.18409">
        <ele>225.848</ele>
        <time>2013-03-03T10:04:11Z</time>
      </trkpt>
      <trkpt lat="44.09856" lon="4.18391">
        <ele>228.866</ele>
        <time>2013-03-03T10:04:18Z</time>
      </trkpt>
      <trkpt lat="44.09844" lon="4.1838">
        <ele>232.947</ele>
        <time>2013-03-03T10:04:25Z</time>
      </trkpt>
      <trkpt lat="44.09828" lon="4.18371">
        <ele>235.896</ele>
        <time>2013-03-03T10:04:33Z</time>
      </trkpt>
      <trkpt lat="44.09821" lon="4.18364">
        <ele>236.496</ele>
        <time>2013-03-03T10:04:36Z</time>
      </trkpt>
      <trkpt lat="44.09821" lon="4.18344">
        <ele>234.165</ele>
        <time>2013-03-03T10:04:41Z</time>
      </trkpt>
      <trkpt lat="44.09816" lon="4.18314">
        <ele>232.925</ele>
        <time>2013-03-03T10:04:48Z</time>
      </trkpt>
      <trkpt lat="44.0982" lon="4.18292">
        <ele>232.625</ele>
        <time>2013-03-03T10:04:53Z</time>
      </trkpt>
      <trkpt lat="44.09825" lon="4.18273">
        <ele>231.895</ele>
        <time>2013-03-03T10:04:58Z</time>
      </trkpt>
      <trkpt lat="44.09825" lon="4.18269">
        <ele>231.564</ele>
        <time>2013-03-03T10:04:59Z</time>
      </trkpt>
      <trkpt lat="44.0982" lon="4.1826">
        <ele>231.633</ele>
        <time>2013-03-03T10:05:03Z</time>
      </trkpt>
      <trkpt lat="44.09813" lon="4.18255">
        <ele>231.405</ele>
        <time>2013-03-03T10:05:07Z</time>
      </trkpt>
      <trkpt lat="44.09812" lon="4.18253">
        <ele>231.535</ele>
        <time>2013-03-03T10:05:08Z</time>
      </trkpt>
      <trkpt lat="44.09812" lon="4.18233">
        <ele>230.594</ele>
        <time>2013-03-03T10:05:13Z</time>
      </trkpt>
      <trkpt lat="44.09813" lon="4.18193">
        <ele>228.042</ele>
        <time>2013-03-03T10:05:21Z</time>
      </trkpt>
      <trkpt lat="44.09813" lon="4.1817">
        <ele>227.083</ele>
        <time>2013-03-03T10:05:25Z</time>
      </trkpt>
      <trkpt lat="44.09816" lon="4.18167">
        <ele>227.166</ele>
        <time>2013-03-03T10:05:29Z</time>
      </trkpt>
      <trkpt lat="44.0983" lon="4.18163">
        <ele>228.095</ele>
        <time>2013-03-03T10:05:36Z</time>
      </trkpt>
      <trkpt lat="44.09851" lon="4.18161">
        <ele>229.295</ele>
        <time>2013-03-03T10:05:42Z</time>
      </trkpt>
      <trkpt lat="44.09875" lon="4.18163">
        <ele>230.846</ele>
        <time>2013-03-03T10:05:49Z</time>
      </trkpt>
      <trkpt lat="44.09888" lon="4.1817">
        <ele>231.846</ele>
        <time>2013-03-03T10:05:53Z</time>
      </trkpt>
      <trkpt lat="44.09912" lon="4.18153">
        <ele>233.705</ele>
        <time>2013-03-03T10:06:01Z</time>
      </trkpt>
      <trkpt lat="44.09925" lon="4.18147">
        <ele>234.475</ele>
        <time>2013-03-03T10:06:06Z</time>
      </trkpt>
      <trkpt lat="44.09943" lon="4.18138">
        <ele>235.855</ele>
        <time>2013-03-03T10:06:12Z</time>
      </trkpt>
      <trkpt lat="44.09961" lon="4.18125">
        <ele>237.156</ele>
        <time>2013-03-03T10:06:18Z</time>
      </trkpt>
      <trkpt lat="44.09976" lon="4.18114">
        <ele>238.636</ele>
        <time>2013-03-03T10:06:24Z</time>
      </trkpt>
      <trkpt lat="44.09981" lon="4.1811">
        <ele>239.176</ele>
        <time>2013-03-03T10:06:26Z</time>
      </trkpt>
      <trkpt lat="44.09994" lon="4.18112">
        <ele>239.666</ele>
        <time>2013-03-03T10:06:31Z</time>
      </trkpt>
      <trkpt lat="44.09996" lon="4.18112">
        <ele>239.765</ele>
        <time>2013-03-03T10:06:32Z</time>
      </trkpt>
      <trkpt lat="44.10002" lon="4.18103">
        <ele>239.545</ele>
        <time>2013-03-03T10:06:36Z</time>
      </trkpt>
      <trkpt lat="44.10008" lon="4.1809">
        <ele>239.025</ele>
        <time>2013-03-03T10:06:41Z</time>
      </trkpt>
      <trkpt lat="44.10012" lon="4.18088">
        <ele>239.375</ele>
        <time>2013-03-03T10:06:43Z</time>
      </trkpt>
      <trkpt lat="44.10023" lon="4.18081">
        <ele>240.095</ele>
        <time>2013-03-03T10:06:48Z</time>
      </trkpt>
      <trkpt lat="44.1003" lon="4.18068">
        <ele>240.065</ele>
        <time>2013-03-03T10:06:54Z</time>
      </trkpt>
      <trkpt lat="44.10038" lon="4.1807">
        <ele>241.086</ele>
        <time>2013-03-03T10:06:57Z</time>
      </trkpt>
      <trkpt lat="44.10047" lon="4.18074">
        <ele>241.466</ele>
        <time>2013-03-03T10:07:01Z</time>
      </trkpt>
      <trkpt lat="44.10055" lon="4.1808">
        <ele>243.307</ele>
        <time>2013-03-03T10:07:05Z</time>
      </trkpt>
      <trkpt lat="44.10063" lon="4.18081">
        <ele>244.267</ele>
        <time>2013-03-03T10:07:08Z</time>
      </trkpt>
      <trkpt lat="44.10081" lon="4.18082">
        <ele>245.157</ele>
        <time>2013-03-03T10:07:15Z</time>
      </trkpt>
      <trkpt lat="44.10095" lon="4.18086">
        <ele>245.816</ele>
        <time>2013-03-03T10:07:21Z</time>
      </trkpt>
      <trkpt lat="44.10103" lon="4.18076">
        <ele>245.315</ele>
        <time>2013-03-03T10:07:26Z</time>
      </trkpt>
      <trkpt lat="44.10112" lon="4.1806">
        <ele>244.875</ele>
        <time>2013-03-03T10:07:33Z</time>
      </trkpt>
      <trkpt lat="44.10112" lon="4.18059">
        <ele>245.115</ele>
        <time>2013-03-03T10:07:35Z</time>
      </trkpt>
      <trkpt lat="44.10112" lon="4.18056">
        <ele>244.158</ele>
        <time>2013-03-03T10:07:40Z</time>
      </trkpt>
      <trkpt lat="44.10111" lon="4.18051">
        <ele>244.856</ele>
        <time>2013-03-03T10:07:48Z</time>
      </trkpt>
      <trkpt lat="44.1011" lon="4.1805">
        <ele>244.866</ele>
        <time>2013-03-03T10:07:50Z</time>
      </trkpt>
      <trkpt lat="44.1011" lon="4.18047">
        <ele>243.123</ele>
        <time>2013-03-03T10:07:58Z</time>
      </trkpt>
      <trkpt lat="44.10113" lon="4.18045">
        <ele>241.715</ele>
        <time>2013-03-03T10:08:12Z</time>
      </trkpt>
      <trkpt lat="44.10113" lon="4.18044">
        <ele>241.876</ele>
        <time>2013-03-03T10:08:13Z</time>
      </trkpt>
      <trkpt lat="44.1011" lon="4.18034">
        <ele>239.945</ele>
        <time>2013-03-03T10:10:58Z</time>
      </trkpt>
      <trkpt lat="44.1011" lon="4.18026">
        <ele>239.655</ele>
        <time>2013-03-03T10:11:00Z</time>
      </trkpt>
      <trkpt lat="44.10112" lon="4.18006">
        <ele>239.145</ele>
        <time>2013-03-03T10:11:05Z</time>
      </trkpt>
      <trkpt lat="44.10114" lon="4.17988">
        <ele>238.035</ele>
        <time>2013-03-03T10:11:09Z</time>
      </trkpt>
      <trkpt lat="44.10118" lon="4.17976">
        <ele>237.885</ele>
        <time>2013-03-03T10:11:12Z</time>
      </trkpt>
      <trkpt lat="44.10115" lon="4.17966">
        <ele>237.184</ele>
        <time>2013-03-03T10:11:16Z</time>
      </trkpt>
      <trkpt lat="44.10107" lon="4.17962">
        <ele>237.964</ele>
        <time>2013-03-03T10:11:19Z</time>
      </trkpt>
      <trkpt lat="44.10095" lon="4.17967">
        <ele>238.345</ele>
        <time>2013-03-03T10:11:23Z</time>
      </trkpt>
      <trkpt lat="44.10077" lon="4.1797">
        <ele>240.045</ele>
        <time>2013-03-03T10:11:28Z</time>
      </trkpt>
      <trkpt lat="44.1006" lon="4.17965">
        <ele>242.235</ele>
        <time>2013-03-03T10:11:33Z</time>
      </trkpt>
      <trkpt lat="44.10042" lon="4.17954">
        <ele>244.025</ele>
        <time>2013-03-03T10:11:38Z</time>
      </trkpt>
      <trkpt lat="44.10035" lon="4.17948">
        <ele>245.216</ele>
        <time>2013-03-03T10:11:40Z</time>
      </trkpt>
      <trkpt lat="44.10015" lon="4.17937">
        <ele>246.556</ele>
        <time>2013-03-03T10:11:45Z</time>
      </trkpt>
      <trkpt lat="44.10012" lon="4.17934">
        <ele>246.916</ele>
        <time>2013-03-03T10:11:46Z</time>
      </trkpt>
      <trkpt lat="44.09994" lon="4.17921">
        <ele>249.536</ele>
        <time>2013-03-03T10:11:52Z</time>
      </trkpt>
      <trkpt lat="44.09978" lon="4.17913">
        <ele>250.726</ele>
        <time>2013-03-03T10:11:57Z</time>
      </trkpt>
      <trkpt lat="44.0996" lon="4.17905">
        <ele>252.766</ele>
        <time>2013-03-03T10:12:03Z</time>
      </trkpt>
      <trkpt lat="44.09942" lon="4.17906">
        <ele>253.245</ele>
        <time>2013-03-03T10:12:08Z</time>
      </trkpt>
      <trkpt lat="44.09929" lon="4.17911">
        <ele>254.115</ele>
        <time>2013-03-03T10:12:12Z</time>
      </trkpt>
      <trkpt lat="44.09912" lon="4.17917">
        <ele>254.185</ele>
        <time>2013-03-03T10:12:17Z</time>
      </trkpt>
      <trkpt lat="44.09896" lon="4.17917">
        <ele>253.263</ele>
        <time>2013-03-03T10:12:21Z</time>
      </trkpt>
      <trkpt lat="44.09892" lon="4.17916">
        <ele>252.844</ele>
        <time>2013-03-03T10:12:22Z</time>
      </trkpt>
      <trkpt lat="44.09892" lon="4.17903">
        <ele>250.023</ele>
        <time>2013-03-03T10:12:26Z</time>
      </trkpt>
      <trkpt lat="44.09899" lon="4.17883">
        <ele>246.492</ele>
        <time>2013-03-03T10:12:31Z</time>
      </trkpt>
      <trkpt lat="44.09907" lon="4.17863">
        <ele>245.293</ele>
        <time>2013-03-03T10:12:36Z</time>
      </trkpt>
      <trkpt lat="44.09913" lon="4.17839">
        <ele>244.954</ele>
        <time>2013-03-03T10:12:42Z</time>
      </trkpt>
      <trkpt lat="44.09918" lon="4.17818">
        <ele>243.463</ele>
        <time>2013-03-03T10:12:47Z</time>
      </trkpt>
      <trkpt lat="44.09935" lon="4.17789">
        <ele>244.444</ele>
        <time>2013-03-03T10:12:55Z</time>
      </trkpt>
      <trkpt lat="44.09948" lon="4.17767">
        <ele>245.744</ele>
        <time>2013-03-03T10:13:01Z</time>
      </trkpt>
      <trkpt lat="44.09943" lon="4.17756">
        <ele>247.115</ele>
        <time>2013-03-03T10:13:05Z</time>
      </trkpt>
      <trkpt lat="44.09934" lon="4.17742">
        <ele>247.655</ele>
        <time>2013-03-03T10:13:09Z</time>
      </trkpt>
      <trkpt lat="44.09926" lon="4.17731">
        <ele>247.484</ele>
        <time>2013-03-03T10:13:12Z</time>
      </trkpt>
      <trkpt lat="44.09917" lon="4.17716">
        <ele>248.504</ele>
        <time>2013-03-03T10:13:16Z</time>
      </trkpt>
      <trkpt lat="44.09911" lon="4.17693">
        <ele>247.513</ele>
        <time>2013-03-03T10:13:22Z</time>
      </trkpt>
      <trkpt lat="44.09908" lon="4.17691">
        <ele>247.503</ele>
        <time>2013-03-03T10:13:23Z</time>
      </trkpt>
      <trkpt lat="44.09894" lon="4.17684">
        <ele>246.053</ele>
        <time>2013-03-03T10:13:28Z</time>
      </trkpt>
      <trkpt lat="44.09892" lon="4.17675">
        <ele>244.172</ele>
        <time>2013-03-03T10:13:31Z</time>
      </trkpt>
      <trkpt lat="44.09881" lon="4.17661">
        <ele>241.202</ele>
        <time>2013-03-03T10:13:36Z</time>
      </trkpt>
      <trkpt lat="44.09873" lon="4.17649">
        <ele>238.931</ele>
        <time>2013-03-03T10:13:39Z</time>
      </trkpt>
      <trkpt lat="44.09863" lon="4.17636">
        <ele>237.662</ele>
        <time>2013-03-03T10:13:42Z</time>
      </trkpt>
      <trkpt lat="44.09855" lon="4.17629">
        <ele>236.231</ele>
        <time>2013-03-03T10:13:44Z</time>
      </trkpt>
      <trkpt lat="44.09838" lon="4.17608">
        <ele>233.27</ele>
        <time>2013-03-03T10:13:49Z</time>
      </trkpt>
      <trkpt lat="44.09821" lon="4.17591">
        <ele>232.812</ele>
        <time>2013-03-03T10:13:54Z</time>
      </trkpt>
      <trkpt lat="44.0981" lon="4.17584">
        <ele>231.732</ele>
        <time>2013-03-03T10:13:57Z</time>
      </trkpt>
      <trkpt lat="44.09798" lon="4.17581">
        <ele>230.821</ele>
        <time>2013-03-03T10:14:00Z</time>
      </trkpt>
      <trkpt lat="44.0979" lon="4.17566">
        <ele>229.842</ele>
        <time>2013-03-03T10:14:05Z</time>
      </trkpt>
      <trkpt lat="44.098" lon="4.17559">
        <ele>230.523</ele>
        <time>2013-03-03T10:14:08Z</time>
      </trkpt>
      <trkpt lat="44.09817" lon="4.17557">
        <ele>231.754</ele>
        <time>2013-03-03T10:14:12Z</time>
      </trkpt>
      <trkpt lat="44.09821" lon="4.17558">
        <ele>232.154</ele>
        <time>2013-03-03T10:14:13Z</time>
      </trkpt>
      <trkpt lat="44.09834" lon="4.17562">
        <ele>233.145</ele>
        <time>2013-03-03T10:14:16Z</time>
      </trkpt>
      <trkpt lat="44.09853" lon="4.17558">
        <ele>234.805</ele>
        <time>2013-03-03T10:14:21Z</time>
      </trkpt>
      <trkpt lat="44.09856" lon="4.17556">
        <ele>234.894</ele>
        <time>2013-03-03T10:14:22Z</time>
      </trkpt>
      <trkpt lat="44.09874" lon="4.17551">
        <ele>236.054</ele>
        <time>2013-03-03T10:14:27Z</time>
      </trkpt>
      <trkpt lat="44.09886" lon="4.17539">
        <ele>235.023</ele>
        <time>2013-03-03T10:14:30Z</time>
      </trkpt>
      <trkpt lat="44.09899" lon="4.17521">
        <ele>233.402</ele>
        <time>2013-03-03T10:14:34Z</time>
      </trkpt>
      <trkpt lat="44.09895" lon="4.17515">
        <ele>232.242</ele>
        <time>2013-03-03T10:14:38Z</time>
      </trkpt>
      <trkpt lat="44.09883" lon="4.17509">
        <ele>230.132</ele>
        <time>2013-03-03T10:14:42Z</time>
      </trkpt>
      <trkpt lat="44.09869" lon="4.17507">
        <ele>229.222</ele>
        <time>2013-03-03T10:14:46Z</time>
      </trkpt>
      <trkpt lat="44.09866" lon="4.175">
        <ele>228.022</ele>
        <time>2013-03-03T10:14:48Z</time>
      </trkpt>
      <trkpt lat="44.09851" lon="4.17478">
        <ele>224.951</ele>
        <time>2013-03-03T10:14:53Z</time>
      </trkpt>
      <trkpt lat="44.09842" lon="4.1746">
        <ele>222.541</ele>
        <time>2013-03-03T10:14:57Z</time>
      </trkpt>
      <trkpt lat="44.09834" lon="4.17449">
        <ele>220.399</ele>
        <time>2013-03-03T10:15:01Z</time>
      </trkpt>
      <trkpt lat="44.09829" lon="4.17435">
        <ele>218.459</ele>
        <time>2013-03-03T10:15:04Z</time>
      </trkpt>
      <trkpt lat="44.09821" lon="4.17413">
        <ele>215.2</ele>
        <time>2013-03-03T10:15:09Z</time>
      </trkpt>
      <trkpt lat="44.09817" lon="4.17404">
        <ele>213.129</ele>
        <time>2013-03-03T10:15:11Z</time>
      </trkpt>
      <trkpt lat="44.0981" lon="4.17381">
        <ele>209.619</ele>
        <time>2013-03-03T10:15:16Z</time>
      </trkpt>
      <trkpt lat="44.09811" lon="4.17374">
        <ele>210.08</ele>
        <time>2013-03-03T10:15:17Z</time>
      </trkpt>
      <trkpt lat="44.09813" lon="4.17362">
        <ele>211.421</ele>
        <time>2013-03-03T10:15:19Z</time>
      </trkpt>
      <trkpt lat="44.09813" lon="4.17349">
        <ele>213.772</ele>
        <time>2013-03-03T10:15:21Z</time>
      </trkpt>
      <trkpt lat="44.09806" lon="4.17319">
        <ele>215.673</ele>
        <time>2013-03-03T10:15:26Z</time>
      </trkpt>
      <trkpt lat="44.09806" lon="4.17299">
        <ele>217.003</ele>
        <time>2013-03-03T10:15:30Z</time>
      </trkpt>
      <trkpt lat="44.09805" lon="4.17269">
        <ele>218.714</ele>
        <time>2013-03-03T10:15:35Z</time>
      </trkpt>
      <trkpt lat="44.09802" lon="4.17255">
        <ele>218.702</ele>
        <time>2013-03-03T10:15:38Z</time>
      </trkpt>
      <trkpt lat="44.09798" lon="4.17251">
        <ele>219.083</ele>
        <time>2013-03-03T10:15:39Z</time>
      </trkpt>
      <trkpt lat="44.09791" lon="4.17244">
        <ele>219.294</ele>
        <time>2013-03-03T10:15:41Z</time>
      </trkpt>
      <trkpt lat="44.09771" lon="4.17217">
        <ele>220.734</ele>
        <time>2013-03-03T10:15:48Z</time>
      </trkpt>
      <trkpt lat="44.09761" lon="4.17204">
        <ele>221.794</ele>
        <time>2013-03-03T10:15:53Z</time>
      </trkpt>
      <trkpt lat="44.0975" lon="4.17188">
        <ele>223.644</ele>
        <time>2013-03-03T10:15:59Z</time>
      </trkpt>
      <trkpt lat="44.09737" lon="4.17173">
        <ele>224.484</ele>
        <time>2013-03-03T10:16:04Z</time>
      </trkpt>
      <trkpt lat="44.0973" lon="4.17158">
        <ele>223.813</ele>
        <time>2013-03-03T10:16:08Z</time>
      </trkpt>
      <trkpt lat="44.09727" lon="4.17137">
        <ele>223.803</ele>
        <time>2013-03-03T10:16:13Z</time>
      </trkpt>
      <trkpt lat="44.09725" lon="4.17133">
        <ele>223.743</ele>
        <time>2013-03-03T10:16:14Z</time>
      </trkpt>
      <trkpt lat="44.09721" lon="4.17124">
        <ele>223.092</ele>
        <time>2013-03-03T10:16:16Z</time>
      </trkpt>
      <trkpt lat="44.09702" lon="4.1711">
        <ele>222.012</ele>
        <time>2013-03-03T10:16:21Z</time>
      </trkpt>
      <trkpt lat="44.09688" lon="4.17114">
        <ele>221.672</ele>
        <time>2013-03-03T10:16:24Z</time>
      </trkpt>
      <trkpt lat="44.09663" lon="4.17132">
        <ele>220.721</ele>
        <time>2013-03-03T10:16:30Z</time>
      </trkpt>
      <trkpt lat="44.09647" lon="4.17144">
        <ele>219.811</ele>
        <time>2013-03-03T10:16:34Z</time>
      </trkpt>
      <trkpt lat="44.09638" lon="4.17142">
        <ele>219.712</ele>
        <time>2013-03-03T10:16:36Z</time>
      </trkpt>
      <trkpt lat="44.09623" lon="4.17138">
        <ele>218.931</ele>
        <time>2013-03-03T10:16:39Z</time>
      </trkpt>
      <trkpt lat="44.09602" lon="4.1712">
        <ele>217.001</ele>
        <time>2013-03-03T10:16:44Z</time>
      </trkpt>
      <trkpt lat="44.09584" lon="4.17104">
        <ele>215.591</ele>
        <time>2013-03-03T10:16:48Z</time>
      </trkpt>
      <trkpt lat="44.09569" lon="4.17096">
        <ele>214.441</ele>
        <time>2013-03-03T10:16:51Z</time>
      </trkpt>
      <trkpt lat="44.09544" lon="4.17095">
        <ele>212.61</ele>
        <time>2013-03-03T10:16:56Z</time>
      </trkpt>
      <trkpt lat="44.09522" lon="4.17093">
        <ele>210.74</ele>
        <time>2013-03-03T10:17:01Z</time>
      </trkpt>
      <trkpt lat="44.09509" lon="4.1709">
        <ele>209.42</ele>
        <time>2013-03-03T10:17:04Z</time>
      </trkpt>
      <trkpt lat="44.09501" lon="4.17086">
        <ele>208.42</ele>
        <time>2013-03-03T10:17:06Z</time>
      </trkpt>
      <trkpt lat="44.09492" lon="4.17084">
        <ele>207.36</ele>
        <time>2013-03-03T10:17:08Z</time>
      </trkpt>
      <trkpt lat="44.09476" lon="4.17077">
        <ele>205.149</ele>
        <time>2013-03-03T10:17:12Z</time>
      </trkpt>
      <trkpt lat="44.09459" lon="4.17059">
        <ele>203.061</ele>
        <time>2013-03-03T10:17:17Z</time>
      </trkpt>
      <trkpt lat="44.09444" lon="4.17037">
        <ele>200.329</ele>
        <time>2013-03-03T10:17:22Z</time>
      </trkpt>
      <trkpt lat="44.09428" lon="4.17019">
        <ele>197.529</ele>
        <time>2013-03-03T10:17:27Z</time>
      </trkpt>
      <trkpt lat="44.09417" lon="4.17001">
        <ele>195.648</ele>
        <time>2013-03-03T10:17:30Z</time>
      </trkpt>
      <trkpt lat="44.09406" lon="4.16991">
        <ele>193.248</ele>
        <time>2013-03-03T10:17:33Z</time>
      </trkpt>
      <trkpt lat="44.09391" lon="4.16996">
        <ele>191.839</ele>
        <time>2013-03-03T10:17:36Z</time>
      </trkpt>
      <trkpt lat="44.09378" lon="4.17">
        <ele>190.068</ele>
        <time>2013-03-03T10:17:39Z</time>
      </trkpt>
      <trkpt lat="44.09351" lon="4.16998">
        <ele>188.06</ele>
        <time>2013-03-03T10:17:44Z</time>
      </trkpt>
      <trkpt lat="44.09341" lon="4.16995">
        <ele>187.72</ele>
        <time>2013-03-03T10:17:46Z</time>
      </trkpt>
      <trkpt lat="44.09317" lon="4.16983">
        <ele>185.309</ele>
        <time>2013-03-03T10:17:51Z</time>
      </trkpt>
      <trkpt lat="44.09282" lon="4.16972">
        <ele>179.947</ele>
        <time>2013-03-03T10:17:58Z</time>
      </trkpt>
      <trkpt lat="44.09276" lon="4.1697">
        <ele>179.328</ele>
        <time>2013-03-03T10:17:59Z</time>
      </trkpt>
      <trkpt lat="44.09256" lon="4.16965">
        <ele>177.628</ele>
        <time>2013-03-03T10:18:03Z</time>
      </trkpt>
      <trkpt lat="44.09249" lon="4.16957">
        <ele>177.54</ele>
        <time>2013-03-03T10:18:07Z</time>
      </trkpt>
      <trkpt lat="44.09245" lon="4.16952">
        <ele>176.01</ele>
        <time>2013-03-03T10:18:17Z</time>
      </trkpt>
      <trkpt lat="44.09243" lon="4.16951">
        <ele>175.991</ele>
        <time>2013-03-03T10:18:19Z</time>
      </trkpt>
      <trkpt lat="44.09241" lon="4.16953">
        <ele>176.611</ele>
        <time>2013-03-03T10:18:21Z</time>
      </trkpt>
      <trkpt lat="44.09225" lon="4.16935">
        <ele>175.42</ele>
        <time>2013-03-03T10:18:35Z</time>
      </trkpt>
      <trkpt lat="44.09223" lon="4.16934">
        <ele>175.31</ele>
        <time>2013-03-03T10:18:36Z</time>
      </trkpt>
      <trkpt lat="44.09221" lon="4.16927">
        <ele>173.41</ele>
        <time>2013-03-03T10:18:41Z</time>
      </trkpt>
      <trkpt lat="44.09217" lon="4.16911">
        <ele>171.639</ele>
        <time>2013-03-03T10:18:47Z</time>
      </trkpt>
      <trkpt lat="44.0921" lon="4.16896">
        <ele>171.149</ele>
        <time>2013-03-03T10:18:52Z</time>
      </trkpt>
      <trkpt lat="44.09197" lon="4.16903">
        <ele>171.04</ele>
        <time>2013-03-03T10:18:56Z</time>
      </trkpt>
      <trkpt lat="44.09185" lon="4.16923">
        <ele>170.839</ele>
        <time>2013-03-03T10:19:01Z</time>
      </trkpt>
      <trkpt lat="44.0918" lon="4.16931">
        <ele>171.2</ele>
        <time>2013-03-03T10:19:03Z</time>
      </trkpt>
      <trkpt lat="44.09158" lon="4.16933">
        <ele>171.68</ele>
        <time>2013-03-03T10:19:08Z</time>
      </trkpt>
      <trkpt lat="44.09144" lon="4.16922">
        <ele>170.679</ele>
        <time>2013-03-03T10:19:11Z</time>
      </trkpt>
      <trkpt lat="44.09126" lon="4.16905">
        <ele>167.598</ele>
        <time>2013-03-03T10:19:15Z</time>
      </trkpt>
      <trkpt lat="44.09109" lon="4.169">
        <ele>166.86</ele>
        <time>2013-03-03T10:19:19Z</time>
      </trkpt>
      <trkpt lat="44.09078" lon="4.16913">
        <ele>168.511</ele>
        <time>2013-03-03T10:19:27Z</time>
      </trkpt>
      <trkpt lat="44.0907" lon="4.16918">
        <ele>169.151</ele>
        <time>2013-03-03T10:19:29Z</time>
      </trkpt>
      <trkpt lat="44.09045" lon="4.16923">
        <ele>169.81</ele>
        <time>2013-03-03T10:19:35Z</time>
      </trkpt>
      <trkpt lat="44.09043" lon="4.16925">
        <ele>169.8</ele>
        <time>2013-03-03T10:19:36Z</time>
      </trkpt>
      <trkpt lat="44.09037" lon="4.16926">
        <ele>169.279</ele>
        <time>2013-03-03T10:19:39Z</time>
      </trkpt>
      <trkpt lat="44.0903" lon="4.16917">
        <ele>168.249</ele>
        <time>2013-03-03T10:19:43Z</time>
      </trkpt>
      <trkpt lat="44.09021" lon="4.16913">
        <ele>168.561</ele>
        <time>2013-03-03T10:19:47Z</time>
      </trkpt>
      <trkpt lat="44.09004" lon="4.16928">
        <ele>169.601</ele>
        <time>2013-03-03T10:19:53Z</time>
      </trkpt>
      <trkpt lat="44.08991" lon="4.16937">
        <ele>169.189</ele>
        <time>2013-03-03T10:19:57Z</time>
      </trkpt>
      <trkpt lat="44.08979" lon="4.16936">
        <ele>168.629</ele>
        <time>2013-03-03T10:20:00Z</time>
      </trkpt>
      <trkpt lat="44.08968" lon="4.16936">
        <ele>168.45</ele>
        <time>2013-03-03T10:20:04Z</time>
      </trkpt>
      <trkpt lat="44.0897" lon="4.16931">
        <ele>168.41</ele>
        <time>2013-03-03T10:20:06Z</time>
      </trkpt>
      <trkpt lat="44.08974" lon="4.16927">
        <ele>168.521</ele>
        <time>2013-03-03T10:20:08Z</time>
      </trkpt>
      <trkpt lat="44.08971" lon="4.1691">
        <ele>167.959</ele>
        <time>2013-03-03T10:20:13Z</time>
      </trkpt>
      <trkpt lat="44.08967" lon="4.16901">
        <ele>167.359</ele>
        <time>2013-03-03T10:20:15Z</time>
      </trkpt>
      <trkpt lat="44.08946" lon="4.16872">
        <ele>165.179</ele>
        <time>2013-03-03T10:20:21Z</time>
      </trkpt>
      <trkpt lat="44.08922" lon="4.16837">
        <ele>163.969</ele>
        <time>2013-03-03T10:20:28Z</time>
      </trkpt>
      <trkpt lat="44.089" lon="4.16813">
        <ele>162.558</ele>
        <time>2013-03-03T10:20:33Z</time>
      </trkpt>
      <trkpt lat="44.08891" lon="4.16805">
        <ele>162.009</ele>
        <time>2013-03-03T10:20:35Z</time>
      </trkpt>
      <trkpt lat="44.08869" lon="4.16782">
        <ele>160.959</ele>
        <time>2013-03-03T10:20:41Z</time>
      </trkpt>
      <trkpt lat="44.08854" lon="4.16774">
        <ele>160.499</ele>
        <time>2013-03-03T10:20:46Z</time>
      </trkpt>
      <trkpt lat="44.08851" lon="4.16771">
        <ele>160.118</ele>
        <time>2013-03-03T10:20:47Z</time>
      </trkpt>
      <trkpt lat="44.08843" lon="4.16749">
        <ele>157.727</ele>
        <time>2013-03-03T10:20:52Z</time>
      </trkpt>
      <trkpt lat="44.08832" lon="4.16735">
        <ele>155.969</ele>
        <time>2013-03-03T10:20:57Z</time>
      </trkpt>
      <trkpt lat="44.0882" lon="4.16727">
        <ele>155.929</ele>
        <time>2013-03-03T10:21:01Z</time>
      </trkpt>
      <trkpt lat="44.08808" lon="4.16705">
        <ele>155.189</ele>
        <time>2013-03-03T10:21:06Z</time>
      </trkpt>
      <trkpt lat="44.088" lon="4.16688">
        <ele>153.789</ele>
        <time>2013-03-03T10:21:11Z</time>
      </trkpt>
      <trkpt lat="44.08787" lon="4.16674">
        <ele>151.969</ele>
        <time>2013-03-03T10:21:17Z</time>
      </trkpt>
      <trkpt lat="44.08779" lon="4.16667">
        <ele>151.679</ele>
        <time>2013-03-03T10:21:20Z</time>
      </trkpt>
      <trkpt lat="44.08763" lon="4.16666">
        <ele>151.589</ele>
        <time>2013-03-03T10:21:24Z</time>
      </trkpt>
      <trkpt lat="44.08754" lon="4.16666">
        <ele>151.619</ele>
        <time>2013-03-03T10:21:26Z</time>
      </trkpt>
      <trkpt lat="44.08732" lon="4.16651">
        <ele>150.238</ele>
        <time>2013-03-03T10:21:32Z</time>
      </trkpt>
      <trkpt lat="44.08715" lon="4.16641">
        <ele>149.348</ele>
        <time>2013-03-03T10:21:36Z</time>
      </trkpt>
      <trkpt lat="44.08704" lon="4.16631">
        <ele>148.407</ele>
        <time>2013-03-03T10:21:39Z</time>
      </trkpt>
      <trkpt lat="44.08697" lon="4.16625">
        <ele>147.547</ele>
        <time>2013-03-03T10:21:41Z</time>
      </trkpt>
      <trkpt lat="44.08682" lon="4.166">
        <ele>145.057</ele>
        <time>2013-03-03T10:21:46Z</time>
      </trkpt>
      <trkpt lat="44.08671" lon="4.16587">
        <ele>143.867</ele>
        <time>2013-03-03T10:21:49Z</time>
      </trkpt>
      <trkpt lat="44.08652" lon="4.16565">
        <ele>142.338</ele>
        <time>2013-03-03T10:21:55Z</time>
      </trkpt>
      <trkpt lat="44.08651" lon="4.1656">
        <ele>142.088</ele>
        <time>2013-03-03T10:21:56Z</time>
      </trkpt>
      <trkpt lat="44.08638" lon="4.16533">
        <ele>140.768</ele>
        <time>2013-03-03T10:22:01Z</time>
      </trkpt>
      <trkpt lat="44.08615" lon="4.1651">
        <ele>139.648</ele>
        <time>2013-03-03T10:22:07Z</time>
      </trkpt>
      <trkpt lat="44.08578" lon="4.16493">
        <ele>138.678</ele>
        <time>2013-03-03T10:22:15Z</time>
      </trkpt>
      <trkpt lat="44.08558" lon="4.16493">
        <ele>138.389</ele>
        <time>2013-03-03T10:22:19Z</time>
      </trkpt>
      <trkpt lat="44.08542" lon="4.16486">
        <ele>138.028</ele>
        <time>2013-03-03T10:22:23Z</time>
      </trkpt>
      <trkpt lat="44.08524" lon="4.16464">
        <ele>136.776</ele>
        <time>2013-03-03T10:22:29Z</time>
      </trkpt>
      <trkpt lat="44.08528" lon="4.16449">
        <ele>136.097</ele>
        <time>2013-03-03T10:22:32Z</time>
      </trkpt>
      <trkpt lat="44.08524" lon="4.16432">
        <ele>135.577</ele>
        <time>2013-03-03T10:22:35Z</time>
      </trkpt>
      <trkpt lat="44.08521" lon="4.16428">
        <ele>135.497</ele>
        <time>2013-03-03T10:22:36Z</time>
      </trkpt>
      <trkpt lat="44.08492" lon="4.16396">
        <ele>135.188</ele>
        <time>2013-03-03T10:22:44Z</time>
      </trkpt>
      <trkpt lat="44.08494" lon="4.16378">
        <ele>134.628</ele>
        <time>2013-03-03T10:22:48Z</time>
      </trkpt>
      <trkpt lat="44.08495" lon="4.16363">
        <ele>134.348</ele>
        <time>2013-03-03T10:22:51Z</time>
      </trkpt>
      <trkpt lat="44.08498" lon="4.16339">
        <ele>133.908</ele>
        <time>2013-03-03T10:22:55Z</time>
      </trkpt>
      <trkpt lat="44.08501" lon="4.16334">
        <ele>133.878</ele>
        <time>2013-03-03T10:22:56Z</time>
      </trkpt>
      <trkpt lat="44.08511" lon="4.16314">
        <ele>132.927</ele>
        <time>2013-03-03T10:23:01Z</time>
      </trkpt>
      <trkpt lat="44.08516" lon="4.16302">
        <ele>131.916</ele>
        <time>2013-03-03T10:23:04Z</time>
      </trkpt>
      <trkpt lat="44.08518" lon="4.16289">
        <ele>130.795</ele>
        <time>2013-03-03T10:23:06Z</time>
      </trkpt>
      <trkpt lat="44.08532" lon="4.16257">
        <ele>127.475</ele>
        <time>2013-03-03T10:23:11Z</time>
      </trkpt>
      <trkpt lat="44.08545" lon="4.16203">
        <ele>125.877</ele>
        <time>2013-03-03T10:23:18Z</time>
      </trkpt>
      <trkpt lat="44.08558" lon="4.16146">
        <ele>126.218</ele>
        <time>2013-03-03T10:23:26Z</time>
      </trkpt>
      <trkpt lat="44.08562" lon="4.16133">
        <ele>126.167</ele>
        <time>2013-03-03T10:23:28Z</time>
      </trkpt>
      <trkpt lat="44.08577" lon="4.16118">
        <ele>126.508</ele>
        <time>2013-03-03T10:23:32Z</time>
      </trkpt>
      <trkpt lat="44.08589" lon="4.16101">
        <ele>126.837</ele>
        <time>2013-03-03T10:23:36Z</time>
      </trkpt>
      <trkpt lat="44.08591" lon="4.16095">
        <ele>126.757</ele>
        <time>2013-03-03T10:23:37Z</time>
      </trkpt>
      <trkpt lat="44.08599" lon="4.16079">
        <ele>126.457</ele>
        <time>2013-03-03T10:23:40Z</time>
      </trkpt>
      <trkpt lat="44.08604" lon="4.16039">
        <ele>128.008</ele>
        <time>2013-03-03T10:23:47Z</time>
      </trkpt>
      <trkpt lat="44.08607" lon="4.16005">
        <ele>129.597</ele>
        <time>2013-03-03T10:23:54Z</time>
      </trkpt>
      <trkpt lat="44.08611" lon="4.15966">
        <ele>129.783</ele>
        <time>2013-03-03T10:24:02Z</time>
      </trkpt>
      <trkpt lat="44.08611" lon="4.15961">
        <ele>129.787</ele>
        <time>2013-03-03T10:24:03Z</time>
      </trkpt>
      <trkpt lat="44.08602" lon="4.1595">
        <ele>129.577</ele>
        <time>2013-03-03T10:24:07Z</time>
      </trkpt>
      <trkpt lat="44.08598" lon="4.15949">
        <ele>129.647</ele>
        <time>2013-03-03T10:24:08Z</time>
      </trkpt>
      <trkpt lat="44.08577" lon="4.15941">
        <ele>129.247</ele>
        <time>2013-03-03T10:24:14Z</time>
      </trkpt>
      <trkpt lat="44.08551" lon="4.15929">
        <ele>130.388</ele>
        <time>2013-03-03T10:24:21Z</time>
      </trkpt>
      <trkpt lat="44.08524" lon="4.15917">
        <ele>131.207</ele>
        <time>2013-03-03T10:24:28Z</time>
      </trkpt>
      <trkpt lat="44.08499" lon="4.15902">
        <ele>131.147</ele>
        <time>2013-03-03T10:24:35Z</time>
      </trkpt>
      <trkpt lat="44.08462" lon="4.1588">
        <ele>132.678</ele>
        <time>2013-03-03T10:24:44Z</time>
      </trkpt>
      <trkpt lat="44.08438" lon="4.15855">
        <ele>132.908</ele>
        <time>2013-03-03T10:24:51Z</time>
      </trkpt>
      <trkpt lat="44.08428" lon="4.15828">
        <ele>132.027</ele>
        <time>2013-03-03T10:24:57Z</time>
      </trkpt>
      <trkpt lat="44.08436" lon="4.15816">
        <ele>131.587</ele>
        <time>2013-03-03T10:25:01Z</time>
      </trkpt>
      <trkpt lat="44.08454" lon="4.15811">
        <ele>132.317</ele>
        <time>2013-03-03T10:25:07Z</time>
      </trkpt>
      <trkpt lat="44.08481" lon="4.15807">
        <ele>134.117</ele>
        <time>2013-03-03T10:25:17Z</time>
      </trkpt>
      <trkpt lat="44.08499" lon="4.15801">
        <ele>135.978</ele>
        <time>2013-03-03T10:25:24Z</time>
      </trkpt>
      <trkpt lat="44.08512" lon="4.15799">
        <ele>137.457</ele>
        <time>2013-03-03T10:25:29Z</time>
      </trkpt>
      <trkpt lat="44.08527" lon="4.15796">
        <ele>138.445</ele>
        <time>2013-03-03T10:25:35Z</time>
      </trkpt>
      <trkpt lat="44.08543" lon="4.15792">
        <ele>140.017</ele>
        <time>2013-03-03T10:25:41Z</time>
      </trkpt>
      <trkpt lat="44.08559" lon="4.15789">
        <ele>140.427</ele>
        <time>2013-03-03T10:25:47Z</time>
      </trkpt>
      <trkpt lat="44.0857" lon="4.1578">
        <ele>140.607</ele>
        <time>2013-03-03T10:25:52Z</time>
      </trkpt>
      <trkpt lat="44.08587" lon="4.1576">
        <ele>140.447</ele>
        <time>2013-03-03T10:26:00Z</time>
      </trkpt>
      <trkpt lat="44.08605" lon="4.15745">
        <ele>140.877</ele>
        <time>2013-03-03T10:26:08Z</time>
      </trkpt>
      <trkpt lat="44.08623" lon="4.15742">
        <ele>141.268</ele>
        <time>2013-03-03T10:26:14Z</time>
      </trkpt>
      <trkpt lat="44.08649" lon="4.15735">
        <ele>141.121</ele>
        <time>2013-03-03T10:26:21Z</time>
      </trkpt>
      <trkpt lat="44.08673" lon="4.15731">
        <ele>140.871</ele>
        <time>2013-03-03T10:26:26Z</time>
      </trkpt>
      <trkpt lat="44.08711" lon="4.15733">
        <ele>140.034</ele>
        <time>2013-03-03T10:26:34Z</time>
      </trkpt>
      <trkpt lat="44.08716" lon="4.15733">
        <ele>139.994</ele>
        <time>2013-03-03T10:26:35Z</time>
      </trkpt>
      <trkpt lat="44.08726" lon="4.15732">
        <ele>139.965</ele>
        <time>2013-03-03T10:26:37Z</time>
      </trkpt>
      <trkpt lat="44.08739" lon="4.1573">
        <ele>140.089</ele>
        <time>2013-03-03T10:26:40Z</time>
      </trkpt>
      <trkpt lat="44.08777" lon="4.15713">
        <ele>140.154</ele>
        <time>2013-03-03T10:26:49Z</time>
      </trkpt>
      <trkpt lat="44.08807" lon="4.15697">
        <ele>139.827</ele>
        <time>2013-03-03T10:26:56Z</time>
      </trkpt>
      <trkpt lat="44.08842" lon="4.15668">
        <ele>140.649</ele>
        <time>2013-03-03T10:27:06Z</time>
      </trkpt>
      <trkpt lat="44.08865" lon="4.15645">
        <ele>140.526</ele>
        <time>2013-03-03T10:27:14Z</time>
      </trkpt>
      <trkpt lat="44.08884" lon="4.15607">
        <ele>140.237</ele>
        <time>2013-03-03T10:27:23Z</time>
      </trkpt>
      <trkpt lat="44.08898" lon="4.15574">
        <ele>140.645</ele>
        <time>2013-03-03T10:27:31Z</time>
      </trkpt>
      <trkpt lat="44.08916" lon="4.15533">
        <ele>140.567</ele>
        <time>2013-03-03T10:27:41Z</time>
      </trkpt>
      <trkpt lat="44.08928" lon="4.15509">
        <ele>140.787</ele>
        <time>2013-03-03T10:27:47Z</time>
      </trkpt>
      <trkpt lat="44.0894" lon="4.15477">
        <ele>140.688</ele>
        <time>2013-03-03T10:27:54Z</time>
      </trkpt>
      <trkpt lat="44.08953" lon="4.15459">
        <ele>140.998</ele>
        <time>2013-03-03T10:27:59Z</time>
      </trkpt>
      <trkpt lat="44.08975" lon="4.15447">
        <ele>142.098</ele>
        <time>2013-03-03T10:28:06Z</time>
      </trkpt>
      <trkpt lat="44.08989" lon="4.15432">
        <ele>142.774</ele>
        <time>2013-03-03T10:28:11Z</time>
      </trkpt>
      <trkpt lat="44.08997" lon="4.15408">
        <ele>142.861</ele>
        <time>2013-03-03T10:28:17Z</time>
      </trkpt>
      <trkpt lat="44.09008" lon="4.15369">
        <ele>143.537</ele>
        <time>2013-03-03T10:28:26Z</time>
      </trkpt>
      <trkpt lat="44.09009" lon="4.15341">
        <ele>142.576</ele>
        <time>2013-03-03T10:28:32Z</time>
      </trkpt>
      <trkpt lat="44.08999" lon="4.15328">
        <ele>142.407</ele>
        <time>2013-03-03T10:28:36Z</time>
      </trkpt>
      <trkpt lat="44.08981" lon="4.15314">
        <ele>142.637</ele>
        <time>2013-03-03T10:28:42Z</time>
      </trkpt>
      <trkpt lat="44.08955" lon="4.15299">
        <ele>144.308</ele>
        <time>2013-03-03T10:28:51Z</time>
      </trkpt>
      <trkpt lat="44.08932" lon="4.15287">
        <ele>145.608</ele>
        <time>2013-03-03T10:29:00Z</time>
      </trkpt>
      <trkpt lat="44.08919" lon="4.15272">
        <ele>147.308</ele>
        <time>2013-03-03T10:29:08Z</time>
      </trkpt>
      <trkpt lat="44.08909" lon="4.15255">
        <ele>148.418</ele>
        <time>2013-03-03T10:29:16Z</time>
      </trkpt>
      <trkpt lat="44.08896" lon="4.15245">
        <ele>150.048</ele>
        <time>2013-03-03T10:29:24Z</time>
      </trkpt>
      <trkpt lat="44.08884" lon="4.15241">
        <ele>152.048</ele>
        <time>2013-03-03T10:29:31Z</time>
      </trkpt>
      <trkpt lat="44.08875" lon="4.15233">
        <ele>153.997</ele>
        <time>2013-03-03T10:29:39Z</time>
      </trkpt>
      <trkpt lat="44.08869" lon="4.15224">
        <ele>154.357</ele>
        <time>2013-03-03T10:29:44Z</time>
      </trkpt>
      <trkpt lat="44.08853" lon="4.15212">
        <ele>155.787</ele>
        <time>2013-03-03T10:29:54Z</time>
      </trkpt>
      <trkpt lat="44.08838" lon="4.15199">
        <ele>157.498</ele>
        <time>2013-03-03T10:30:04Z</time>
      </trkpt>
      <trkpt lat="44.0882" lon="4.15185">
        <ele>158.757</ele>
        <time>2013-03-03T10:30:15Z</time>
      </trkpt>
      <trkpt lat="44.08809" lon="4.15171">
        <ele>159.337</ele>
        <time>2013-03-03T10:30:22Z</time>
      </trkpt>
      <trkpt lat="44.08794" lon="4.15155">
        <ele>159.847</ele>
        <time>2013-03-03T10:30:31Z</time>
      </trkpt>
      <trkpt lat="44.0878" lon="4.1514">
        <ele>160.078</ele>
        <time>2013-03-03T10:30:39Z</time>
      </trkpt>
      <trkpt lat="44.0877" lon="4.15123">
        <ele>159.816</ele>
        <time>2013-03-03T10:30:46Z</time>
      </trkpt>
      <trkpt lat="44.08765" lon="4.15102">
        <ele>159.216</ele>
        <time>2013-03-03T10:30:51Z</time>
      </trkpt>
      <trkpt lat="44.08753" lon="4.15077">
        <ele>158.896</ele>
        <time>2013-03-03T10:30:57Z</time>
      </trkpt>
      <trkpt lat="44.08737" lon="4.15051">
        <ele>159.076</ele>
        <time>2013-03-03T10:31:04Z</time>
      </trkpt>
      <trkpt lat="44.08726" lon="4.15027">
        <ele>159.266</ele>
        <time>2013-03-03T10:31:10Z</time>
      </trkpt>
      <trkpt lat="44.08712" lon="4.15014">
        <ele>159.987</ele>
        <time>2013-03-03T10:31:15Z</time>
      </trkpt>
      <trkpt lat="44.08695" lon="4.15016">
        <ele>160.747</ele>
        <time>2013-03-03T10:31:20Z</time>
      </trkpt>
      <trkpt lat="44.08674" lon="4.15024">
        <ele>161.036</ele>
        <time>2013-03-03T10:31:27Z</time>
      </trkpt>
      <trkpt lat="44.08672" lon="4.15016">
        <ele>160.705</ele>
        <time>2013-03-03T10:31:31Z</time>
      </trkpt>
      <trkpt lat="44.08671" lon="4.14997">
        <ele>160.365</ele>
        <time>2013-03-03T10:31:35Z</time>
      </trkpt>
      <trkpt lat="44.08665" lon="4.14991">
        <ele>160.265</ele>
        <time>2013-03-03T10:31:37Z</time>
      </trkpt>
      <trkpt lat="44.08641" lon="4.14977">
        <ele>161.936</ele>
        <time>2013-03-03T10:31:45Z</time>
      </trkpt>
      <trkpt lat="44.08632" lon="4.1497">
        <ele>162.226</ele>
        <time>2013-03-03T10:31:48Z</time>
      </trkpt>
      <trkpt lat="44.08626" lon="4.14948">
        <ele>161.115</ele>
        <time>2013-03-03T10:31:52Z</time>
      </trkpt>
      <trkpt lat="44.08612" lon="4.14916">
        <ele>159.254</ele>
        <time>2013-03-03T10:31:57Z</time>
      </trkpt>
      <trkpt lat="44.08612" lon="4.14883">
        <ele>156.403</ele>
        <time>2013-03-03T10:32:02Z</time>
      </trkpt>
      <trkpt lat="44.08615" lon="4.14876">
        <ele>155.843</ele>
        <time>2013-03-03T10:32:03Z</time>
      </trkpt>
      <trkpt lat="44.08624" lon="4.14862">
        <ele>154.633</ele>
        <time>2013-03-03T10:32:05Z</time>
      </trkpt>
      <trkpt lat="44.08633" lon="4.1483">
        <ele>153.105</ele>
        <time>2013-03-03T10:32:09Z</time>
      </trkpt>
      <trkpt lat="44.08628" lon="4.1481">
        <ele>151.603</ele>
        <time>2013-03-03T10:32:12Z</time>
      </trkpt>
      <trkpt lat="44.08614" lon="4.14807">
        <ele>150.814</ele>
        <time>2013-03-03T10:32:14Z</time>
      </trkpt>
      <trkpt lat="44.08591" lon="4.14816">
        <ele>149.995</ele>
        <time>2013-03-03T10:32:18Z</time>
      </trkpt>
      <trkpt lat="44.08576" lon="4.14809">
        <ele>149.625</ele>
        <time>2013-03-03T10:32:21Z</time>
      </trkpt>
      <trkpt lat="44.08571" lon="4.14789">
        <ele>149.425</ele>
        <time>2013-03-03T10:32:24Z</time>
      </trkpt>
      <trkpt lat="44.08571" lon="4.14782">
        <ele>149.656</ele>
        <time>2013-03-03T10:32:25Z</time>
      </trkpt>
      <trkpt lat="44.08568" lon="4.14765">
        <ele>150.286</ele>
        <time>2013-03-03T10:32:31Z</time>
      </trkpt>
      <trkpt lat="44.08562" lon="4.14746">
        <ele>151.586</ele>
        <time>2013-03-03T10:32:38Z</time>
      </trkpt>
      <trkpt lat="44.08553" lon="4.1473">
        <ele>152.225</ele>
        <time>2013-03-03T10:32:45Z</time>
      </trkpt>
      <trkpt lat="44.08548" lon="4.14703">
        <ele>153.426</ele>
        <time>2013-03-03T10:32:54Z</time>
      </trkpt>
      <trkpt lat="44.08539" lon="4.14687">
        <ele>153.915</ele>
        <time>2013-03-03T10:33:01Z</time>
      </trkpt>
      <trkpt lat="44.08537" lon="4.14685">
        <ele>154.086</ele>
        <time>2013-03-03T10:33:02Z</time>
      </trkpt>
      <trkpt lat="44.08536" lon="4.14663">
        <ele>154.625</ele>
        <time>2013-03-03T10:33:09Z</time>
      </trkpt>
      <trkpt lat="44.08536" lon="4.14647">
        <ele>154.554</ele>
        <time>2013-03-03T10:33:14Z</time>
      </trkpt>
      <trkpt lat="44.08537" lon="4.14623">
        <ele>154.295</ele>
        <time>2013-03-03T10:33:21Z</time>
      </trkpt>
      <trkpt lat="44.08535" lon="4.14602">
        <ele>154.295</ele>
        <time>2013-03-03T10:33:27Z</time>
      </trkpt>
      <trkpt lat="44.0853" lon="4.14578">
        <ele>154.144</ele>
        <time>2013-03-03T10:33:35Z</time>
      </trkpt>
      <trkpt lat="44.08524" lon="4.1456">
        <ele>154.425</ele>
        <time>2013-03-03T10:33:41Z</time>
      </trkpt>
      <trkpt lat="44.08515" lon="4.14536">
        <ele>155.555</ele>
        <time>2013-03-03T10:33:49Z</time>
      </trkpt>
      <trkpt lat="44.08505" lon="4.14515">
        <ele>157.015</ele>
        <time>2013-03-03T10:33:57Z</time>
      </trkpt>
      <trkpt lat="44.08494" lon="4.14505">
        <ele>159.615</ele>
        <time>2013-03-03T10:34:04Z</time>
      </trkpt>
      <trkpt lat="44.08479" lon="4.14494">
        <ele>161.785</ele>
        <time>2013-03-03T10:34:12Z</time>
      </trkpt>
      <trkpt lat="44.08471" lon="4.1448">
        <ele>161.304</ele>
        <time>2013-03-03T10:34:16Z</time>
      </trkpt>
      <trkpt lat="44.0846" lon="4.14455">
        <ele>160.474</ele>
        <time>2013-03-03T10:34:22Z</time>
      </trkpt>
      <trkpt lat="44.08447" lon="4.14432">
        <ele>160.464</ele>
        <time>2013-03-03T10:34:28Z</time>
      </trkpt>
      <trkpt lat="44.08435" lon="4.14421">
        <ele>160.104</ele>
        <time>2013-03-03T10:34:32Z</time>
      </trkpt>
      <trkpt lat="44.08427" lon="4.14413">
        <ele>159.843</ele>
        <time>2013-03-03T10:34:35Z</time>
      </trkpt>
      <trkpt lat="44.08424" lon="4.14382">
        <ele>158.343</ele>
        <time>2013-03-03T10:34:42Z</time>
      </trkpt>
      <trkpt lat="44.08419" lon="4.14356">
        <ele>158.334</ele>
        <time>2013-03-03T10:34:48Z</time>
      </trkpt>
      <trkpt lat="44.08409" lon="4.14349">
        <ele>160.045</ele>
        <time>2013-03-03T10:34:52Z</time>
      </trkpt>
      <trkpt lat="44.08392" lon="4.14335">
        <ele>161.544</ele>
        <time>2013-03-03T10:34:59Z</time>
      </trkpt>
      <trkpt lat="44.08373" lon="4.14317">
        <ele>162.444</ele>
        <time>2013-03-03T10:35:07Z</time>
      </trkpt>
      <trkpt lat="44.08354" lon="4.14294">
        <ele>164.024</ele>
        <time>2013-03-03T10:35:16Z</time>
      </trkpt>
      <trkpt lat="44.08343" lon="4.14268">
        <ele>163.003</ele>
        <time>2013-03-03T10:35:22Z</time>
      </trkpt>
      <trkpt lat="44.08334" lon="4.14241">
        <ele>161.903</ele>
        <time>2013-03-03T10:35:28Z</time>
      </trkpt>
      <trkpt lat="44.08332" lon="4.14236">
        <ele>161.663</ele>
        <time>2013-03-03T10:35:29Z</time>
      </trkpt>
      <trkpt lat="44.0833" lon="4.14225">
        <ele>160.883</ele>
        <time>2013-03-03T10:35:31Z</time>
      </trkpt>
      <trkpt lat="44.08318" lon="4.14174">
        <ele>160.252</ele>
        <time>2013-03-03T10:35:39Z</time>
      </trkpt>
      <trkpt lat="44.08311" lon="4.14154">
        <ele>160.562</ele>
        <time>2013-03-03T10:35:42Z</time>
      </trkpt>
      <trkpt lat="44.08304" lon="4.1412">
        <ele>160.052</ele>
        <time>2013-03-03T10:35:47Z</time>
      </trkpt>
      <trkpt lat="44.08296" lon="4.14052">
        <ele>156.261</ele>
        <time>2013-03-03T10:35:56Z</time>
      </trkpt>
      <trkpt lat="44.08294" lon="4.14009">
        <ele>154.261</ele>
        <time>2013-03-03T10:36:01Z</time>
      </trkpt>
      <trkpt lat="44.0828" lon="4.13984">
        <ele>154.153</ele>
        <time>2013-03-03T10:36:05Z</time>
      </trkpt>
      <trkpt lat="44.08276" lon="4.13981">
        <ele>154.363</ele>
        <time>2013-03-03T10:36:06Z</time>
      </trkpt>
      <trkpt lat="44.08243" lon="4.13946">
        <ele>156.154</ele>
        <time>2013-03-03T10:36:15Z</time>
      </trkpt>
      <trkpt lat="44.08228" lon="4.13929">
        <ele>157.864</ele>
        <time>2013-03-03T10:36:20Z</time>
      </trkpt>
      <trkpt lat="44.082" lon="4.139">
        <ele>158.103</ele>
        <time>2013-03-03T10:36:28Z</time>
      </trkpt>
      <trkpt lat="44.08193" lon="4.1389">
        <ele>157.642</ele>
        <time>2013-03-03T10:36:30Z</time>
      </trkpt>
      <trkpt lat="44.08181" lon="4.13851">
        <ele>156.341</ele>
        <time>2013-03-03T10:36:36Z</time>
      </trkpt>
      <trkpt lat="44.08178" lon="4.13845">
        <ele>156.271</ele>
        <time>2013-03-03T10:36:37Z</time>
      </trkpt>
      <trkpt lat="44.08148" lon="4.13792">
        <ele>155.102</ele>
        <time>2013-03-03T10:36:47Z</time>
      </trkpt>
      <trkpt lat="44.08118" lon="4.13741">
        <ele>154.381</ele>
        <time>2013-03-03T10:36:56Z</time>
      </trkpt>
      <trkpt lat="44.08106" lon="4.1372">
        <ele>154.482</ele>
        <time>2013-03-03T10:37:00Z</time>
      </trkpt>
      <trkpt lat="44.08098" lon="4.13692">
        <ele>153.481</ele>
        <time>2013-03-03T10:37:05Z</time>
      </trkpt>
      <trkpt lat="44.08097" lon="4.13686">
        <ele>153.101</ele>
        <time>2013-03-03T10:37:06Z</time>
      </trkpt>
      <trkpt lat="44.08094" lon="4.13663">
        <ele>152.291</ele>
        <time>2013-03-03T10:37:10Z</time>
      </trkpt>
      <trkpt lat="44.08078" lon="4.13618">
        <ele>149.951</ele>
        <time>2013-03-03T10:37:17Z</time>
      </trkpt>
      <trkpt lat="44.08052" lon="4.13578">
        <ele>148.541</ele>
        <time>2013-03-03T10:37:24Z</time>
      </trkpt>
      <trkpt lat="44.08037" lon="4.13561">
        <ele>149.162</ele>
        <time>2013-03-03T10:37:28Z</time>
      </trkpt>
      <trkpt lat="44.08027" lon="4.13547">
        <ele>149.602</ele>
        <time>2013-03-03T10:37:31Z</time>
      </trkpt>
      <trkpt lat="44.08002" lon="4.13494">
        <ele>149.591</ele>
        <time>2013-03-03T10:37:40Z</time>
      </trkpt>
      <trkpt lat="44.07993" lon="4.13481">
        <ele>149.641</ele>
        <time>2013-03-03T10:37:43Z</time>
      </trkpt>
      <trkpt lat="44.07985" lon="4.13456">
        <ele>148.919</ele>
        <time>2013-03-03T10:37:47Z</time>
      </trkpt>
      <trkpt lat="44.07982" lon="4.13442">
        <ele>147.829</ele>
        <time>2013-03-03T10:37:49Z</time>
      </trkpt>
      <trkpt lat="44.07984" lon="4.13397">
        <ele>144.898</ele>
        <time>2013-03-03T10:37:55Z</time>
      </trkpt>
      <trkpt lat="44.07983" lon="4.1338">
        <ele>144.089</ele>
        <time>2013-03-03T10:37:57Z</time>
      </trkpt>
      <trkpt lat="44.07974" lon="4.13327">
        <ele>142.659</ele>
        <time>2013-03-03T10:38:03Z</time>
      </trkpt>
      <trkpt lat="44.07973" lon="4.13288">
        <ele>140.769</ele>
        <time>2013-03-03T10:38:07Z</time>
      </trkpt>
      <trkpt lat="44.07984" lon="4.13249">
        <ele>140.47</ele>
        <time>2013-03-03T10:38:11Z</time>
      </trkpt>
      <trkpt lat="44.07992" lon="4.13231">
        <ele>140.079</ele>
        <time>2013-03-03T10:38:13Z</time>
      </trkpt>
      <trkpt lat="44.07998" lon="4.13191">
        <ele>139.89</ele>
        <time>2013-03-03T10:38:17Z</time>
      </trkpt>
      <trkpt lat="44.07999" lon="4.1312">
        <ele>140.211</ele>
        <time>2013-03-03T10:38:25Z</time>
      </trkpt>
      <trkpt lat="44.08" lon="4.13112">
        <ele>140.381</ele>
        <time>2013-03-03T10:38:26Z</time>
      </trkpt>
      <trkpt lat="44.08013" lon="4.13074">
        <ele>140.47</ele>
        <time>2013-03-03T10:38:32Z</time>
      </trkpt>
      <trkpt lat="44.08037" lon="4.13037">
        <ele>139.95</ele>
        <time>2013-03-03T10:38:39Z</time>
      </trkpt>
      <trkpt lat="44.08055" lon="4.12985">
        <ele>140.07</ele>
        <time>2013-03-03T10:38:47Z</time>
      </trkpt>
      <trkpt lat="44.08056" lon="4.12937">
        <ele>140.84</ele>
        <time>2013-03-03T10:38:54Z</time>
      </trkpt>
      <trkpt lat="44.0805" lon="4.12886">
        <ele>141.5</ele>
        <time>2013-03-03T10:39:02Z</time>
      </trkpt>
      <trkpt lat="44.08042" lon="4.12832">
        <ele>143.23</ele>
        <time>2013-03-03T10:39:11Z</time>
      </trkpt>
      <trkpt lat="44.0804" lon="4.12792">
        <ele>145.091</ele>
        <time>2013-03-03T10:39:18Z</time>
      </trkpt>
      <trkpt lat="44.08039" lon="4.12776">
        <ele>146.251</ele>
        <time>2013-03-03T10:39:21Z</time>
      </trkpt>
      <trkpt lat="44.08044" lon="4.12747">
        <ele>147.001</ele>
        <time>2013-03-03T10:39:26Z</time>
      </trkpt>
      <trkpt lat="44.08048" lon="4.12721">
        <ele>148.361</ele>
        <time>2013-03-03T10:39:32Z</time>
      </trkpt>
      <trkpt lat="44.0806" lon="4.12686">
        <ele>150.85</ele>
        <time>2013-03-03T10:39:41Z</time>
      </trkpt>
      <trkpt lat="44.08071" lon="4.12668">
        <ele>150.288</ele>
        <time>2013-03-03T10:39:47Z</time>
      </trkpt>
      <trkpt lat="44.08087" lon="4.12645">
        <ele>148.127</ele>
        <time>2013-03-03T10:39:53Z</time>
      </trkpt>
      <trkpt lat="44.08093" lon="4.1263">
        <ele>146.077</ele>
        <time>2013-03-03T10:39:57Z</time>
      </trkpt>
      <trkpt lat="44.08099" lon="4.12624">
        <ele>145.007</ele>
        <time>2013-03-03T10:39:59Z</time>
      </trkpt>
      <trkpt lat="44.08111" lon="4.12619">
        <ele>144.428</ele>
        <time>2013-03-03T10:40:02Z</time>
      </trkpt>
      <trkpt lat="44.08148" lon="4.12614">
        <ele>143.788</ele>
        <time>2013-03-03T10:40:10Z</time>
      </trkpt>
      <trkpt lat="44.08193" lon="4.12606">
        <ele>142.718</ele>
        <time>2013-03-03T10:40:19Z</time>
      </trkpt>
      <trkpt lat="44.08231" lon="4.12602">
        <ele>142.138</ele>
        <time>2013-03-03T10:40:26Z</time>
      </trkpt>
      <trkpt lat="44.08236" lon="4.12602">
        <ele>142.258</ele>
        <time>2013-03-03T10:40:27Z</time>
      </trkpt>
      <trkpt lat="44.08252" lon="4.12601">
        <ele>142.379</ele>
        <time>2013-03-03T10:40:30Z</time>
      </trkpt>
      <trkpt lat="44.08265" lon="4.12591">
        <ele>141.188</ele>
        <time>2013-03-03T10:40:34Z</time>
      </trkpt>
      <trkpt lat="44.08267" lon="4.12585">
        <ele>140.658</ele>
        <time>2013-03-03T10:40:35Z</time>
      </trkpt>
      <trkpt lat="44.08278" lon="4.12536">
        <ele>137.388</ele>
        <time>2013-03-03T10:40:42Z</time>
      </trkpt>
      <trkpt lat="44.08283" lon="4.12515">
        <ele>136.479</ele>
        <time>2013-03-03T10:40:45Z</time>
      </trkpt>
      <trkpt lat="44.08292" lon="4.12473">
        <ele>134.569</ele>
        <time>2013-03-03T10:40:52Z</time>
      </trkpt>
      <trkpt lat="44.08295" lon="4.12478">
        <ele>134.38</ele>
        <time>2013-03-03T10:40:57Z</time>
      </trkpt>
      <trkpt lat="44.0829" lon="4.12479">
        <ele>134.37</ele>
        <time>2013-03-03T10:41:01Z</time>
      </trkpt>
      <trkpt lat="44.08291" lon="4.12472">
        <ele>134.63</ele>
        <time>2013-03-03T10:41:04Z</time>
      </trkpt>
      <trkpt lat="44.08292" lon="4.12457">
        <ele>135.33</ele>
        <time>2013-03-03T10:41:09Z</time>
      </trkpt>
      <trkpt lat="44.083" lon="4.12431">
        <ele>135.389</ele>
        <time>2013-03-03T10:41:16Z</time>
      </trkpt>
      <trkpt lat="44.08307" lon="4.12405">
        <ele>135.27</ele>
        <time>2013-03-03T10:41:22Z</time>
      </trkpt>
      <trkpt lat="44.08315" lon="4.12373">
        <ele>135.309</ele>
        <time>2013-03-03T10:41:29Z</time>
      </trkpt>
      <trkpt lat="44.08319" lon="4.12354">
        <ele>135.089</ele>
        <time>2013-03-03T10:41:33Z</time>
      </trkpt>
      <trkpt lat="44.0833" lon="4.12314">
        <ele>134.069</ele>
        <time>2013-03-03T10:41:40Z</time>
      </trkpt>
      <trkpt lat="44.08343" lon="4.12274">
        <ele>132.028</ele>
        <time>2013-03-03T10:41:46Z</time>
      </trkpt>
      <trkpt lat="44.08355" lon="4.12241">
        <ele>130.828</ele>
        <time>2013-03-03T10:41:51Z</time>
      </trkpt>
      <trkpt lat="44.08358" lon="4.12205">
        <ele>129.008</ele>
        <time>2013-03-03T10:41:56Z</time>
      </trkpt>
      <trkpt lat="44.08361" lon="4.12178">
        <ele>126.397</ele>
        <time>2013-03-03T10:42:00Z</time>
      </trkpt>
      <trkpt lat="44.08372" lon="4.1216">
        <ele>125.238</ele>
        <time>2013-03-03T10:42:03Z</time>
      </trkpt>
      <trkpt lat="44.08406" lon="4.12118">
        <ele>123.528</ele>
        <time>2013-03-03T10:42:11Z</time>
      </trkpt>
      <trkpt lat="44.08433" lon="4.12086">
        <ele>122.469</ele>
        <time>2013-03-03T10:42:18Z</time>
      </trkpt>
      <trkpt lat="44.08454" lon="4.12061">
        <ele>121.989</ele>
        <time>2013-03-03T10:42:24Z</time>
      </trkpt>
      <trkpt lat="44.08459" lon="4.12044">
        <ele>121.429</ele>
        <time>2013-03-03T10:42:28Z</time>
      </trkpt>
      <trkpt lat="44.08455" lon="4.1202">
        <ele>120.788</ele>
        <time>2013-03-03T10:42:33Z</time>
      </trkpt>
      <trkpt lat="44.0845" lon="4.1199">
        <ele>120.718</ele>
        <time>2013-03-03T10:42:40Z</time>
      </trkpt>
      <trkpt lat="44.08447" lon="4.11969">
        <ele>120.428</ele>
        <time>2013-03-03T10:42:44Z</time>
      </trkpt>
      <trkpt lat="44.08441" lon="4.11941">
        <ele>120.279</ele>
        <time>2013-03-03T10:42:50Z</time>
      </trkpt>
      <trkpt lat="44.08429" lon="4.11936">
        <ele>121.059</ele>
        <time>2013-03-03T10:42:55Z</time>
      </trkpt>
      <trkpt lat="44.08415" lon="4.1194">
        <ele>121.889</ele>
        <time>2013-03-03T10:43:01Z</time>
      </trkpt>
      <trkpt lat="44.08414" lon="4.11941">
        <ele>122.089</ele>
        <time>2013-03-03T10:43:04Z</time>
      </trkpt>
      <trkpt lat="44.08415" lon="4.11937">
        <ele>123.678</ele>
        <time>2013-03-03T07:16:55Z</time>
      </trkpt>
      <trkpt lat="44.08415" lon="4.11933">
        <ele>123.138</ele>
        <time>2013-03-03T07:17:01Z</time>
      </trkpt>
      <trkpt lat="44.0842" lon="4.11934">
        <ele>122.728</ele>
        <time>2013-03-03T07:17:06Z</time>
      </trkpt>
      <trkpt lat="44.08422" lon="4.11939">
        <ele>122.739</ele>
        <time>2013-03-03T07:17:09Z</time>
      </trkpt>
      <trkpt lat="44.08427" lon="4.11938">
        <ele>122.529</ele>
        <time>2013-03-03T07:17:13Z</time>
      </trkpt>
      <trkpt lat="44.08431" lon="4.11935">
        <ele>122.559</ele>
        <time>2013-03-03T07:17:16Z</time>
      </trkpt>
      <trkpt lat="44.0844" lon="4.11937">
        <ele>121.458</ele>
        <time>2013-03-03T07:17:23Z</time>
      </trkpt>
      <trkpt lat="44.08444" lon="4.1194">
        <ele>121.349</ele>
        <time>2013-03-03T07:17:26Z</time>
      </trkpt>
      <trkpt lat="44.08452" lon="4.11938">
        <ele>120.338</ele>
        <time>2013-03-03T07:17:34Z</time>
      </trkpt>
      <trkpt lat="44.08462" lon="4.11935">
        <ele>119.547</ele>
        <time>2013-03-03T07:17:41Z</time>
      </trkpt>
      <trkpt lat="44.08472" lon="4.11931">
        <ele>119.748</ele>
        <time>2013-03-03T07:17:49Z</time>
      </trkpt>
      <trkpt lat="44.08476" lon="4.11929">
        <ele>119.818</ele>
        <time>2013-03-03T07:17:54Z</time>
      </trkpt>
      <trkpt lat="44.08478" lon="4.11917">
        <ele>121.159</ele>
        <time>2013-03-03T07:18:00Z</time>
      </trkpt>
      <trkpt lat="44.08478" lon="4.11915">
        <ele>121.239</ele>
        <time>2013-03-03T07:18:01Z</time>
      </trkpt>
      <trkpt lat="44.08479" lon="4.11891">
        <ele>121.769</ele>
        <time>2013-03-03T07:18:10Z</time>
      </trkpt>
      <trkpt lat="44.08478" lon="4.11865">
        <ele>121.628</ele>
        <time>2013-03-03T07:18:17Z</time>
      </trkpt>
      <trkpt lat="44.08474" lon="4.11837">
        <ele>121.779</ele>
        <time>2013-03-03T07:18:24Z</time>
      </trkpt>
      <trkpt lat="44.0847" lon="4.11803">
        <ele>121.788</ele>
        <time>2013-03-03T07:18:32Z</time>
      </trkpt>
      <trkpt lat="44.08469" lon="4.11769">
        <ele>120.108</ele>
        <time>2013-03-03T07:18:39Z</time>
      </trkpt>
      <trkpt lat="44.08464" lon="4.11746">
        <ele>119.238</ele>
        <time>2013-03-03T07:18:44Z</time>
      </trkpt>
      <trkpt lat="44.08452" lon="4.11737">
        <ele>118.548</ele>
        <time>2013-03-03T07:18:48Z</time>
      </trkpt>
      <trkpt lat="44.08428" lon="4.11736">
        <ele>118.109</ele>
        <time>2013-03-03T07:18:55Z</time>
      </trkpt>
      <trkpt lat="44.084" lon="4.11731">
        <ele>117.719</ele>
        <time>2013-03-03T07:19:03Z</time>
      </trkpt>
      <trkpt lat="44.0837" lon="4.11724">
        <ele>117.258</ele>
        <time>2013-03-03T07:19:11Z</time>
      </trkpt>
      <trkpt lat="44.08347" lon="4.11713">
        <ele>117.758</ele>
        <time>2013-03-03T07:19:18Z</time>
      </trkpt>
      <trkpt lat="44.08323" lon="4.11702">
        <ele>118.228</ele>
        <time>2013-03-03T07:19:26Z</time>
      </trkpt>
      <trkpt lat="44.08306" lon="4.11696">
        <ele>118.388</ele>
        <time>2013-03-03T07:19:32Z</time>
      </trkpt>
      <trkpt lat="44.08303" lon="4.11694">
        <ele>118.701</ele>
        <time>2013-03-03T07:19:36Z</time>
      </trkpt>
      <trkpt lat="44.08297" lon="4.11691">
        <ele>118.888</ele>
        <time>2013-03-03T07:19:40Z</time>
      </trkpt>
      <trkpt lat="44.08278" lon="4.11684">
        <ele>118.999</ele>
        <time>2013-03-03T07:19:47Z</time>
      </trkpt>
      <trkpt lat="44.08257" lon="4.11679">
        <ele>118.708</ele>
        <time>2013-03-03T07:19:54Z</time>
      </trkpt>
      <trkpt lat="44.08229" lon="4.11677">
        <ele>118.128</ele>
        <time>2013-03-03T07:20:02Z</time>
      </trkpt>
      <trkpt lat="44.08204" lon="4.11679">
        <ele>117.818</ele>
        <time>2013-03-03T07:20:09Z</time>
      </trkpt>
      <trkpt lat="44.08173" lon="4.11688">
        <ele>118.058</ele>
        <time>2013-03-03T07:20:17Z</time>
      </trkpt>
      <trkpt lat="44.08136" lon="4.11701">
        <ele>118.347</ele>
        <time>2013-03-03T07:20:26Z</time>
      </trkpt>
      <trkpt lat="44.08096" lon="4.11712">
        <ele>118.437</ele>
        <time>2013-03-03T07:20:35Z</time>
      </trkpt>
      <trkpt lat="44.08051" lon="4.11726">
        <ele>118.717</ele>
        <time>2013-03-03T07:20:45Z</time>
      </trkpt>
      <trkpt lat="44.08015" lon="4.11746">
        <ele>119.067</ele>
        <time>2013-03-03T07:20:53Z</time>
      </trkpt>
      <trkpt lat="44.07978" lon="4.11769">
        <ele>118.797</ele>
        <time>2013-03-03T07:21:01Z</time>
      </trkpt>
      <trkpt lat="44.07957" lon="4.11778">
        <ele>118.616</ele>
        <time>2013-03-03T07:21:05Z</time>
      </trkpt>
      <trkpt lat="44.079" lon="4.11783">
        <ele>118.037</ele>
        <time>2013-03-03T07:21:15Z</time>
      </trkpt>
      <trkpt lat="44.07869" lon="4.11781">
        <ele>117.967</ele>
        <time>2013-03-03T07:21:21Z</time>
      </trkpt>
      <trkpt lat="44.07829" lon="4.11777">
        <ele>117.956</ele>
        <time>2013-03-03T07:21:29Z</time>
      </trkpt>
      <trkpt lat="44.07808" lon="4.11771">
        <ele>117.616</ele>
        <time>2013-03-03T07:21:34Z</time>
      </trkpt>
      <trkpt lat="44.07799" lon="4.11755">
        <ele>117.576</ele>
        <time>2013-03-03T07:21:38Z</time>
      </trkpt>
      <trkpt lat="44.07797" lon="4.11749">
        <ele>117.667</ele>
        <time>2013-03-03T07:21:39Z</time>
      </trkpt>
      <trkpt lat="44.07779" lon="4.11694">
        <ele>118.357</ele>
        <time>2013-03-03T07:21:48Z</time>
      </trkpt>
      <trkpt lat="44.07759" lon="4.11638">
        <ele>118.987</ele>
        <time>2013-03-03T07:21:57Z</time>
      </trkpt>
      <trkpt lat="44.07757" lon="4.11632">
        <ele>118.936</ele>
        <time>2013-03-03T07:21:58Z</time>
      </trkpt>
      <trkpt lat="44.07735" lon="4.11604">
        <ele>119.107</ele>
        <time>2013-03-03T07:22:04Z</time>
      </trkpt>
      <trkpt lat="44.07711" lon="4.11588">
        <ele>120.384</ele>
        <time>2013-03-03T07:22:09Z</time>
      </trkpt>
      <trkpt lat="44.077" lon="4.11576">
        <ele>120.738</ele>
        <time>2013-03-03T07:22:12Z</time>
      </trkpt>
      <trkpt lat="44.07687" lon="4.11543">
        <ele>119.273</ele>
        <time>2013-03-03T07:22:17Z</time>
      </trkpt>
      <trkpt lat="44.07688" lon="4.11519">
        <ele>118.725</ele>
        <time>2013-03-03T07:22:20Z</time>
      </trkpt>
      <trkpt lat="44.07698" lon="4.11486">
        <ele>118.073</ele>
        <time>2013-03-03T07:22:25Z</time>
      </trkpt>
      <trkpt lat="44.07711" lon="4.11466">
        <ele>116.863</ele>
        <time>2013-03-03T07:22:30Z</time>
      </trkpt>
      <trkpt lat="44.07718" lon="4.11455">
        <ele>115.964</ele>
        <time>2013-03-03T07:22:34Z</time>
      </trkpt>
      <trkpt lat="44.07714" lon="4.11437">
        <ele>116.196</ele>
        <time>2013-03-03T07:22:39Z</time>
      </trkpt>
      <trkpt lat="44.07707" lon="4.11421">
        <ele>117.81</ele>
        <time>2013-03-03T07:22:44Z</time>
      </trkpt>
      <trkpt lat="44.07712" lon="4.11404">
        <ele>118.577</ele>
        <time>2013-03-03T07:22:48Z</time>
      </trkpt>
      <trkpt lat="44.07726" lon="4.11373">
        <ele>118.117</ele>
        <time>2013-03-03T07:22:55Z</time>
      </trkpt>
      <trkpt lat="44.07734" lon="4.11342">
        <ele>117.997</ele>
        <time>2013-03-03T07:23:01Z</time>
      </trkpt>
      <trkpt lat="44.07739" lon="4.11305">
        <ele>117.786</ele>
        <time>2013-03-03T07:23:08Z</time>
      </trkpt>
      <trkpt lat="44.07744" lon="4.11266">
        <ele>116.925</ele>
        <time>2013-03-03T07:23:15Z</time>
      </trkpt>
      <trkpt lat="44.07752" lon="4.11221">
        <ele>116.515</ele>
        <time>2013-03-03T07:23:23Z</time>
      </trkpt>
      <trkpt lat="44.07754" lon="4.11193">
        <ele>114.691</ele>
        <time>2013-03-03T07:23:28Z</time>
      </trkpt>
      <trkpt lat="44.07759" lon="4.11171">
        <ele>113.784</ele>
        <time>2013-03-03T07:23:32Z</time>
      </trkpt>
      <trkpt lat="44.07761" lon="4.11153">
        <ele>113.314</ele>
        <time>2013-03-03T07:23:35Z</time>
      </trkpt>
      <trkpt lat="44.07753" lon="4.11122">
        <ele>113.326</ele>
        <time>2013-03-03T07:23:41Z</time>
      </trkpt>
      <trkpt lat="44.0775" lon="4.11119">
        <ele>113.346</ele>
        <time>2013-03-03T07:23:42Z</time>
      </trkpt>
      <trkpt lat="44.07728" lon="4.11096">
        <ele>112.502</ele>
        <time>2013-03-03T07:23:49Z</time>
      </trkpt>
      <trkpt lat="44.07714" lon="4.11094">
        <ele>111.755</ele>
        <time>2013-03-03T07:23:53Z</time>
      </trkpt>
      <trkpt lat="44.07695" lon="4.11105">
        <ele>111.845</ele>
        <time>2013-03-03T07:23:59Z</time>
      </trkpt>
      <trkpt lat="44.07672" lon="4.11119">
        <ele>111.784</ele>
        <time>2013-03-03T07:24:05Z</time>
      </trkpt>
      <trkpt lat="44.07638" lon="4.11129">
        <ele>111.934</ele>
        <time>2013-03-03T07:24:13Z</time>
      </trkpt>
      <trkpt lat="44.07604" lon="4.11134">
        <ele>111.785</ele>
        <time>2013-03-03T07:24:21Z</time>
      </trkpt>
      <trkpt lat="44.07567" lon="4.11148">
        <ele>111.403</ele>
        <time>2013-03-03T07:24:30Z</time>
      </trkpt>
      <trkpt lat="44.07564" lon="4.1115">
        <ele>111.252</ele>
        <time>2013-03-03T07:24:31Z</time>
      </trkpt>
      <trkpt lat="44.0754" lon="4.11162">
        <ele>111.194</ele>
        <time>2013-03-03T07:24:37Z</time>
      </trkpt>
      <trkpt lat="44.07514" lon="4.1118">
        <ele>111.245</ele>
        <time>2013-03-03T07:24:44Z</time>
      </trkpt>
      <trkpt lat="44.07484" lon="4.11197">
        <ele>111.055</ele>
        <time>2013-03-03T07:24:52Z</time>
      </trkpt>
      <trkpt lat="44.07457" lon="4.11202">
        <ele>111.265</ele>
        <time>2013-03-03T07:24:59Z</time>
      </trkpt>
      <trkpt lat="44.07436" lon="4.11204">
        <ele>110.652</ele>
        <time>2013-03-03T07:25:04Z</time>
      </trkpt>
      <trkpt lat="44.07415" lon="4.11212">
        <ele>109.809</ele>
        <time>2013-03-03T07:25:09Z</time>
      </trkpt>
      <trkpt lat="44.07406" lon="4.11213">
        <ele>109.531</ele>
        <time>2013-03-03T07:25:11Z</time>
      </trkpt>
      <trkpt lat="44.07385" lon="4.11217">
        <ele>109.282</ele>
        <time>2013-03-03T07:25:16Z</time>
      </trkpt>
      <trkpt lat="44.07368" lon="4.11218">
        <ele>109.353</ele>
        <time>2013-03-03T07:25:20Z</time>
      </trkpt>
      <trkpt lat="44.07342" lon="4.11214">
        <ele>109.184</ele>
        <time>2013-03-03T07:25:26Z</time>
      </trkpt>
      <trkpt lat="44.07308" lon="4.11214">
        <ele>109.1</ele>
        <time>2013-03-03T07:25:34Z</time>
      </trkpt>
      <trkpt lat="44.07295" lon="4.11218">
        <ele>108.84</ele>
        <time>2013-03-03T07:25:37Z</time>
      </trkpt>
      <trkpt lat="44.07271" lon="4.11219">
        <ele>108.38</ele>
        <time>2013-03-03T07:25:43Z</time>
      </trkpt>
      <trkpt lat="44.07239" lon="4.11215">
        <ele>108.694</ele>
        <time>2013-03-03T07:25:51Z</time>
      </trkpt>
      <trkpt lat="44.07218" lon="4.11221">
        <ele>108.311</ele>
        <time>2013-03-03T07:25:56Z</time>
      </trkpt>
      <trkpt lat="44.07195" lon="4.11236">
        <ele>108.844</ele>
        <time>2013-03-03T07:26:02Z</time>
      </trkpt>
      <trkpt lat="44.07191" lon="4.11238">
        <ele>108.942</ele>
        <time>2013-03-03T07:26:03Z</time>
      </trkpt>
      <trkpt lat="44.07156" lon="4.11251">
        <ele>108.73</ele>
        <time>2013-03-03T07:26:11Z</time>
      </trkpt>
      <trkpt lat="44.07148" lon="4.11255">
        <ele>108.602</ele>
        <time>2013-03-03T07:26:13Z</time>
      </trkpt>
      <trkpt lat="44.07121" lon="4.11266">
        <ele>108.915</ele>
        <time>2013-03-03T07:26:20Z</time>
      </trkpt>
      <trkpt lat="44.07101" lon="4.11269">
        <ele>109.391</ele>
        <time>2013-03-03T07:26:25Z</time>
      </trkpt>
      <trkpt lat="44.07061" lon="4.11283">
        <ele>108.149</ele>
        <time>2013-03-03T07:26:35Z</time>
      </trkpt>
      <trkpt lat="44.07029" lon="4.11297">
        <ele>108.922</ele>
        <time>2013-03-03T07:26:43Z</time>
      </trkpt>
      <trkpt lat="44.07002" lon="4.11308">
        <ele>108.793</ele>
        <time>2013-03-03T07:26:50Z</time>
      </trkpt>
      <trkpt lat="44.06976" lon="4.11319">
        <ele>109.542</ele>
        <time>2013-03-03T07:26:57Z</time>
      </trkpt>
      <trkpt lat="44.06948" lon="4.11324">
        <ele>109.824</ele>
        <time>2013-03-03T07:27:04Z</time>
      </trkpt>
      <trkpt lat="44.06925" lon="4.11326">
        <ele>108.497</ele>
        <time>2013-03-03T07:27:09Z</time>
      </trkpt>
      <trkpt lat="44.0691" lon="4.11329">
        <ele>109.088</ele>
        <time>2013-03-03T07:27:12Z</time>
      </trkpt>
      <trkpt lat="44.06874" lon="4.11347">
        <ele>109.302</ele>
        <time>2013-03-03T07:27:21Z</time>
      </trkpt>
      <trkpt lat="44.06825" lon="4.11371">
        <ele>108.832</ele>
        <time>2013-03-03T07:27:33Z</time>
      </trkpt>
      <trkpt lat="44.06782" lon="4.11396">
        <ele>108.159</ele>
        <time>2013-03-03T07:27:43Z</time>
      </trkpt>
      <trkpt lat="44.06742" lon="4.11424">
        <ele>107.462</ele>
        <time>2013-03-03T07:27:53Z</time>
      </trkpt>
      <trkpt lat="44.06727" lon="4.11435">
        <ele>107.403</ele>
        <time>2013-03-03T07:27:57Z</time>
      </trkpt>
      <trkpt lat="44.06719" lon="4.11453">
        <ele>106.782</ele>
        <time>2013-03-03T07:28:01Z</time>
      </trkpt>
      <trkpt lat="44.06722" lon="4.11463">
        <ele>107.083</ele>
        <time>2013-03-03T07:28:03Z</time>
      </trkpt>
      <trkpt lat="44.06737" lon="4.11491">
        <ele>109.054</ele>
        <time>2013-03-03T07:28:10Z</time>
      </trkpt>
      <trkpt lat="44.06758" lon="4.1152">
        <ele>110.304</ele>
        <time>2013-03-03T07:28:18Z</time>
      </trkpt>
      <trkpt lat="44.06767" lon="4.11523">
        <ele>111.434</ele>
        <time>2013-03-03T07:28:21Z</time>
      </trkpt>
      <trkpt lat="44.06781" lon="4.11506">
        <ele>112.585</ele>
        <time>2013-03-03T07:28:27Z</time>
      </trkpt>
      <trkpt lat="44.068" lon="4.11485">
        <ele>115.074</ele>
        <time>2013-03-03T07:28:35Z</time>
      </trkpt>
      <trkpt lat="44.06809" lon="4.11493">
        <ele>116.204</ele>
        <time>2013-03-03T07:28:39Z</time>
      </trkpt>
      <trkpt lat="44.06814" lon="4.11518">
        <ele>117.914</ele>
        <time>2013-03-03T07:28:45Z</time>
      </trkpt>
      <trkpt lat="44.06811" lon="4.11538">
        <ele>119.384</ele>
        <time>2013-03-03T07:28:50Z</time>
      </trkpt>
      <trkpt lat="44.06797" lon="4.11559">
        <ele>119.913</ele>
        <time>2013-03-03T07:28:57Z</time>
      </trkpt>
      <trkpt lat="44.06783" lon="4.11585">
        <ele>122.264</ele>
        <time>2013-03-03T07:29:05Z</time>
      </trkpt>
      <trkpt lat="44.06769" lon="4.1161">
        <ele>123.544</ele>
        <time>2013-03-03T07:29:13Z</time>
      </trkpt>
      <trkpt lat="44.0675" lon="4.11638">
        <ele>123.793</ele>
        <time>2013-03-03T07:29:23Z</time>
      </trkpt>
      <trkpt lat="44.06734" lon="4.11667">
        <ele>123.643</ele>
        <time>2013-03-03T07:29:31Z</time>
      </trkpt>
      <trkpt lat="44.06734" lon="4.11693">
        <ele>124.193</ele>
        <time>2013-03-03T07:29:37Z</time>
      </trkpt>
      <trkpt lat="44.06742" lon="4.11716">
        <ele>125.324</ele>
        <time>2013-03-03T07:29:42Z</time>
      </trkpt>
      <trkpt lat="44.06757" lon="4.1173">
        <ele>124.653</ele>
        <time>2013-03-03T07:29:47Z</time>
      </trkpt>
      <trkpt lat="44.06768" lon="4.11742">
        <ele>124.654</ele>
        <time>2013-03-03T07:29:50Z</time>
      </trkpt>
      <trkpt lat="44.06778" lon="4.11762">
        <ele>124.954</ele>
        <time>2013-03-03T07:29:54Z</time>
      </trkpt>
      <trkpt lat="44.06784" lon="4.11796">
        <ele>126.064</ele>
        <time>2013-03-03T07:30:01Z</time>
      </trkpt>
      <trkpt lat="44.0679" lon="4.1183">
        <ele>127.905</ele>
        <time>2013-03-03T07:30:09Z</time>
      </trkpt>
      <trkpt lat="44.06792" lon="4.11863">
        <ele>130.934</ele>
        <time>2013-03-03T07:30:17Z</time>
      </trkpt>
      <trkpt lat="44.06793" lon="4.11892">
        <ele>132.483</ele>
        <time>2013-03-03T07:30:24Z</time>
      </trkpt>
      <trkpt lat="44.06794" lon="4.11901">
        <ele>132.272</ele>
        <time>2013-03-03T07:30:26Z</time>
      </trkpt>
      <trkpt lat="44.06795" lon="4.11927">
        <ele>130.912</ele>
        <time>2013-03-03T07:30:30Z</time>
      </trkpt>
      <trkpt lat="44.06784" lon="4.11964">
        <ele>129.223</ele>
        <time>2013-03-03T07:30:35Z</time>
      </trkpt>
      <trkpt lat="44.06779" lon="4.11978">
        <ele>129.254</ele>
        <time>2013-03-03T07:30:37Z</time>
      </trkpt>
      <trkpt lat="44.0677" lon="4.1202">
        <ele>129.003</ele>
        <time>2013-03-03T07:30:44Z</time>
      </trkpt>
      <trkpt lat="44.06764" lon="4.12037">
        <ele>128.633</ele>
        <time>2013-03-03T07:30:47Z</time>
      </trkpt>
      <trkpt lat="44.06759" lon="4.12057">
        <ele>128.273</ele>
        <time>2013-03-03T07:30:50Z</time>
      </trkpt>
      <trkpt lat="44.06757" lon="4.12085">
        <ele>126.892</ele>
        <time>2013-03-03T07:30:54Z</time>
      </trkpt>
      <trkpt lat="44.06759" lon="4.12113">
        <ele>125.802</ele>
        <time>2013-03-03T07:30:58Z</time>
      </trkpt>
      <trkpt lat="44.06767" lon="4.12147">
        <ele>124.222</ele>
        <time>2013-03-03T07:31:03Z</time>
      </trkpt>
      <trkpt lat="44.06771" lon="4.12172">
        <ele>123.273</ele>
        <time>2013-03-03T07:31:07Z</time>
      </trkpt>
      <trkpt lat="44.06774" lon="4.12177">
        <ele>123.284</ele>
        <time>2013-03-03T07:31:08Z</time>
      </trkpt>
      <trkpt lat="44.06798" lon="4.12216">
        <ele>123.314</ele>
        <time>2013-03-03T07:31:17Z</time>
      </trkpt>
      <trkpt lat="44.06807" lon="4.12241">
        <ele>123.334</ele>
        <time>2013-03-03T07:31:22Z</time>
      </trkpt>
      <trkpt lat="44.06814" lon="4.12286">
        <ele>122.764</ele>
        <time>2013-03-03T07:31:30Z</time>
      </trkpt>
      <trkpt lat="44.06812" lon="4.12295">
        <ele>122.244</ele>
        <time>2013-03-03T07:31:32Z</time>
      </trkpt>
      <trkpt lat="44.06792" lon="4.12318">
        <ele>120.383</ele>
        <time>2013-03-03T07:31:38Z</time>
      </trkpt>
      <trkpt lat="44.06762" lon="4.12343">
        <ele>118.093</ele>
        <time>2013-03-03T07:31:45Z</time>
      </trkpt>
      <trkpt lat="44.06739" lon="4.12364">
        <ele>115.983</ele>
        <time>2013-03-03T07:31:51Z</time>
      </trkpt>
      <trkpt lat="44.06729" lon="4.12384">
        <ele>114.883</ele>
        <time>2013-03-03T07:31:55Z</time>
      </trkpt>
      <trkpt lat="44.06712" lon="4.1241">
        <ele>115.656</ele>
        <time>2013-03-03T07:32:02Z</time>
      </trkpt>
      <trkpt lat="44.06708" lon="4.1242">
        <ele>116.696</ele>
        <time>2013-03-03T07:32:05Z</time>
      </trkpt>
      <trkpt lat="44.0669" lon="4.12442">
        <ele>119.146</ele>
        <time>2013-03-03T07:32:13Z</time>
      </trkpt>
      <trkpt lat="44.06681" lon="4.12463">
        <ele>121.066</ele>
        <time>2013-03-03T07:32:20Z</time>
      </trkpt>
      <trkpt lat="44.06676" lon="4.12491">
        <ele>122.535</ele>
        <time>2013-03-03T07:32:28Z</time>
      </trkpt>
      <trkpt lat="44.06666" lon="4.12521">
        <ele>125.136</ele>
        <time>2013-03-03T07:32:37Z</time>
      </trkpt>
      <trkpt lat="44.06666" lon="4.12532">
        <ele>125.896</ele>
        <time>2013-03-03T07:32:40Z</time>
      </trkpt>
      <trkpt lat="44.06674" lon="4.12542">
        <ele>126.185</ele>
        <time>2013-03-03T07:32:45Z</time>
      </trkpt>
      <trkpt lat="44.06677" lon="4.12543">
        <ele>126.165</ele>
        <time>2013-03-03T07:32:46Z</time>
      </trkpt>
      <trkpt lat="44.06703" lon="4.12571">
        <ele>125.875</ele>
        <time>2013-03-03T07:32:56Z</time>
      </trkpt>
      <trkpt lat="44.06724" lon="4.12603">
        <ele>126.494</ele>
        <time>2013-03-03T07:33:05Z</time>
      </trkpt>
      <trkpt lat="44.06739" lon="4.12622">
        <ele>125.944</ele>
        <time>2013-03-03T07:33:10Z</time>
      </trkpt>
      <trkpt lat="44.06749" lon="4.12647">
        <ele>125.204</ele>
        <time>2013-03-03T07:33:15Z</time>
      </trkpt>
      <trkpt lat="44.06758" lon="4.12698">
        <ele>124.074</ele>
        <time>2013-03-03T07:33:24Z</time>
      </trkpt>
      <trkpt lat="44.06762" lon="4.12717">
        <ele>123.714</ele>
        <time>2013-03-03T07:33:27Z</time>
      </trkpt>
      <trkpt lat="44.06778" lon="4.12758">
        <ele>123.155</ele>
        <time>2013-03-03T07:33:35Z</time>
      </trkpt>
      <trkpt lat="44.06784" lon="4.12771">
        <ele>123.755</ele>
        <time>2013-03-03T07:33:39Z</time>
      </trkpt>
      <trkpt lat="44.06775" lon="4.12786">
        <ele>124.366</ele>
        <time>2013-03-03T07:33:44Z</time>
      </trkpt>
      <trkpt lat="44.06758" lon="4.12797">
        <ele>125.307</ele>
        <time>2013-03-03T07:33:50Z</time>
      </trkpt>
      <trkpt lat="44.06732" lon="4.12806">
        <ele>124.515</ele>
        <time>2013-03-03T07:33:59Z</time>
      </trkpt>
      <trkpt lat="44.06703" lon="4.12814">
        <ele>124.816</ele>
        <time>2013-03-03T07:34:09Z</time>
      </trkpt>
      <trkpt lat="44.06681" lon="4.12825">
        <ele>126.266</ele>
        <time>2013-03-03T07:34:17Z</time>
      </trkpt>
      <trkpt lat="44.06668" lon="4.12837">
        <ele>127.276</ele>
        <time>2013-03-03T07:34:23Z</time>
      </trkpt>
      <trkpt lat="44.06664" lon="4.1284">
        <ele>128.476</ele>
        <time>2013-03-03T07:34:25Z</time>
      </trkpt>
      <trkpt lat="44.06667" lon="4.12848">
        <ele>130.277</ele>
        <time>2013-03-03T07:34:30Z</time>
      </trkpt>
      <trkpt lat="44.0667" lon="4.1285">
        <ele>130.666</ele>
        <time>2013-03-03T07:34:32Z</time>
      </trkpt>
      <trkpt lat="44.06672" lon="4.12859">
        <ele>132.686</ele>
        <time>2013-03-03T07:34:38Z</time>
      </trkpt>
      <trkpt lat="44.06668" lon="4.1286">
        <ele>133.166</ele>
        <time>2013-03-03T07:34:40Z</time>
      </trkpt>
      <trkpt lat="44.06653" lon="4.12867">
        <ele>133.435</ele>
        <time>2013-03-03T07:34:47Z</time>
      </trkpt>
      <trkpt lat="44.06637" lon="4.12876">
        <ele>133.264</ele>
        <time>2013-03-03T07:34:54Z</time>
      </trkpt>
      <trkpt lat="44.06625" lon="4.12886">
        <ele>134.115</ele>
        <time>2013-03-03T07:35:00Z</time>
      </trkpt>
      <trkpt lat="44.06617" lon="4.12897">
        <ele>134.986</ele>
        <time>2013-03-03T07:35:06Z</time>
      </trkpt>
      <trkpt lat="44.06614" lon="4.12908">
        <ele>137.356</ele>
        <time>2013-03-03T07:35:13Z</time>
      </trkpt>
      <trkpt lat="44.0661" lon="4.12926">
        <ele>139.226</ele>
        <time>2013-03-03T07:35:21Z</time>
      </trkpt>
      <trkpt lat="44.0661" lon="4.12928">
        <ele>139.276</ele>
        <time>2013-03-03T07:35:22Z</time>
      </trkpt>
      <trkpt lat="44.06608" lon="4.1294">
        <ele>141.656</ele>
        <time>2013-03-03T07:35:29Z</time>
      </trkpt>
      <trkpt lat="44.06604" lon="4.1295">
        <ele>143.576</ele>
        <time>2013-03-03T07:35:34Z</time>
      </trkpt>
      <trkpt lat="44.06603" lon="4.12956">
        <ele>144.176</ele>
        <time>2013-03-03T07:35:37Z</time>
      </trkpt>
      <trkpt lat="44.06604" lon="4.12978">
        <ele>146.316</ele>
        <time>2013-03-03T07:35:46Z</time>
      </trkpt>
      <trkpt lat="44.06604" lon="4.12991">
        <ele>147.486</ele>
        <time>2013-03-03T07:35:52Z</time>
      </trkpt>
      <trkpt lat="44.06606" lon="4.13003">
        <ele>148.146</ele>
        <time>2013-03-03T07:35:58Z</time>
      </trkpt>
      <trkpt lat="44.06607" lon="4.13017">
        <ele>148.696</ele>
        <time>2013-03-03T07:36:04Z</time>
      </trkpt>
      <trkpt lat="44.06607" lon="4.13029">
        <ele>149.797</ele>
        <time>2013-03-03T07:36:10Z</time>
      </trkpt>
      <trkpt lat="44.06609" lon="4.13041">
        <ele>151.396</ele>
        <time>2013-03-03T07:36:17Z</time>
      </trkpt>
      <trkpt lat="44.06609" lon="4.13049">
        <ele>151.016</ele>
        <time>2013-03-03T07:36:23Z</time>
      </trkpt>
      <trkpt lat="44.06609" lon="4.13059">
        <ele>151.486</ele>
        <time>2013-03-03T07:36:28Z</time>
      </trkpt>
      <trkpt lat="44.06604" lon="4.13071">
        <ele>152.886</ele>
        <time>2013-03-03T07:36:34Z</time>
      </trkpt>
      <trkpt lat="44.06597" lon="4.13081">
        <ele>153.076</ele>
        <time>2013-03-03T07:36:40Z</time>
      </trkpt>
      <trkpt lat="44.06584" lon="4.13093">
        <ele>153.266</ele>
        <time>2013-03-03T07:36:48Z</time>
      </trkpt>
      <trkpt lat="44.06573" lon="4.13108">
        <ele>155.007</ele>
        <time>2013-03-03T07:36:55Z</time>
      </trkpt>
      <trkpt lat="44.06564" lon="4.13122">
        <ele>156.887</ele>
        <time>2013-03-03T07:37:03Z</time>
      </trkpt>
      <trkpt lat="44.06558" lon="4.13135">
        <ele>156.801</ele>
        <time>2013-03-03T07:37:10Z</time>
      </trkpt>
      <trkpt lat="44.0655" lon="4.1315">
        <ele>157.547</ele>
        <time>2013-03-03T07:37:18Z</time>
      </trkpt>
      <trkpt lat="44.06543" lon="4.13163">
        <ele>158.086</ele>
        <time>2013-03-03T07:37:25Z</time>
      </trkpt>
      <trkpt lat="44.06532" lon="4.13178">
        <ele>157.826</ele>
        <time>2013-03-03T07:37:33Z</time>
      </trkpt>
      <trkpt lat="44.06519" lon="4.13193">
        <ele>157.495</ele>
        <time>2013-03-03T07:37:41Z</time>
      </trkpt>
      <trkpt lat="44.06503" lon="4.13207">
        <ele>156.825</ele>
        <time>2013-03-03T07:37:48Z</time>
      </trkpt>
      <trkpt lat="44.06477" lon="4.13238">
        <ele>157.476</ele>
        <time>2013-03-03T07:37:59Z</time>
      </trkpt>
      <trkpt lat="44.06458" lon="4.13264">
        <ele>157.806</ele>
        <time>2013-03-03T07:38:08Z</time>
      </trkpt>
      <trkpt lat="44.0644" lon="4.13288">
        <ele>157.215</ele>
        <time>2013-03-03T07:38:15Z</time>
      </trkpt>
      <trkpt lat="44.06419" lon="4.13314">
        <ele>154.724</ele>
        <time>2013-03-03T07:38:22Z</time>
      </trkpt>
      <trkpt lat="44.06403" lon="4.1333">
        <ele>153.294</ele>
        <time>2013-03-03T07:38:26Z</time>
      </trkpt>
      <trkpt lat="44.06385" lon="4.13356">
        <ele>151.414</ele>
        <time>2013-03-03T07:38:31Z</time>
      </trkpt>
      <trkpt lat="44.06372" lon="4.13377">
        <ele>150.294</ele>
        <time>2013-03-03T07:38:35Z</time>
      </trkpt>
      <trkpt lat="44.06349" lon="4.13404">
        <ele>153.336</ele>
        <time>2013-03-03T07:38:43Z</time>
      </trkpt>
      <trkpt lat="44.06332" lon="4.13427">
        <ele>154.836</ele>
        <time>2013-03-03T07:38:50Z</time>
      </trkpt>
      <trkpt lat="44.06335" lon="4.1344">
        <ele>156.317</ele>
        <time>2013-03-03T07:38:54Z</time>
      </trkpt>
      <trkpt lat="44.06352" lon="4.13453">
        <ele>158.367</ele>
        <time>2013-03-03T07:39:02Z</time>
      </trkpt>
      <trkpt lat="44.06374" lon="4.13471">
        <ele>160.917</ele>
        <time>2013-03-03T07:39:12Z</time>
      </trkpt>
      <trkpt lat="44.06391" lon="4.13485">
        <ele>162.656</ele>
        <time>2013-03-03T07:39:20Z</time>
      </trkpt>
      <trkpt lat="44.06404" lon="4.13495">
        <ele>163.776</ele>
        <time>2013-03-03T07:39:28Z</time>
      </trkpt>
      <trkpt lat="44.06414" lon="4.13504">
        <ele>163.996</ele>
        <time>2013-03-03T07:39:37Z</time>
      </trkpt>
      <trkpt lat="44.06419" lon="4.13507">
        <ele>164.946</ele>
        <time>2013-03-03T07:39:44Z</time>
      </trkpt>
      <trkpt lat="44.06419" lon="4.13509">
        <ele>165.096</ele>
        <time>2013-03-03T07:39:46Z</time>
      </trkpt>
      <trkpt lat="44.06423" lon="4.13519">
        <ele>166.847</ele>
        <time>2013-03-03T07:39:53Z</time>
      </trkpt>
      <trkpt lat="44.06422" lon="4.13527">
        <ele>168.077</ele>
        <time>2013-03-03T07:39:58Z</time>
      </trkpt>
      <trkpt lat="44.06421" lon="4.13528">
        <ele>168.207</ele>
        <time>2013-03-03T07:39:59Z</time>
      </trkpt>
      <trkpt lat="44.06414" lon="4.13543">
        <ele>171.037</ele>
        <time>2013-03-03T07:40:08Z</time>
      </trkpt>
      <trkpt lat="44.06405" lon="4.13553">
        <ele>172.597</ele>
        <time>2013-03-03T07:40:16Z</time>
      </trkpt>
      <trkpt lat="44.06396" lon="4.13556">
        <ele>172.996</ele>
        <time>2013-03-03T07:40:22Z</time>
      </trkpt>
      <trkpt lat="44.06394" lon="4.13557">
        <ele>173.396</ele>
        <time>2013-03-03T07:40:27Z</time>
      </trkpt>
      <trkpt lat="44.06387" lon="4.1357">
        <ele>175.247</ele>
        <time>2013-03-03T07:40:39Z</time>
      </trkpt>
      <trkpt lat="44.06385" lon="4.13573">
        <ele>175.807</ele>
        <time>2013-03-03T07:40:41Z</time>
      </trkpt>
      <trkpt lat="44.06378" lon="4.13583">
        <ele>175.706</ele>
        <time>2013-03-03T07:40:48Z</time>
      </trkpt>
      <trkpt lat="44.06369" lon="4.13586">
        <ele>175.556</ele>
        <time>2013-03-03T07:40:54Z</time>
      </trkpt>
      <trkpt lat="44.06358" lon="4.13589">
        <ele>175.275</ele>
        <time>2013-03-03T07:41:02Z</time>
      </trkpt>
      <trkpt lat="44.06348" lon="4.13589">
        <ele>177.647</ele>
        <time>2013-03-03T07:41:09Z</time>
      </trkpt>
      <trkpt lat="44.06342" lon="4.13591">
        <ele>179.357</ele>
        <time>2013-03-03T07:41:14Z</time>
      </trkpt>
      <trkpt lat="44.06336" lon="4.13602">
        <ele>181.877</ele>
        <time>2013-03-03T07:41:22Z</time>
      </trkpt>
      <trkpt lat="44.06329" lon="4.1361">
        <ele>184.976</ele>
        <time>2013-03-03T07:41:29Z</time>
      </trkpt>
      <trkpt lat="44.0632" lon="4.1362">
        <ele>185.906</ele>
        <time>2013-03-03T07:41:35Z</time>
      </trkpt>
      <trkpt lat="44.0631" lon="4.13634">
        <ele>185.585</ele>
        <time>2013-03-03T07:41:39Z</time>
      </trkpt>
      <trkpt lat="44.06289" lon="4.1365">
        <ele>182.654</ele>
        <time>2013-03-03T07:41:45Z</time>
      </trkpt>
      <trkpt lat="44.06278" lon="4.13657">
        <ele>181.254</ele>
        <time>2013-03-03T07:41:48Z</time>
      </trkpt>
      <trkpt lat="44.06256" lon="4.13662">
        <ele>179.635</ele>
        <time>2013-03-03T07:41:53Z</time>
      </trkpt>
      <trkpt lat="44.06249" lon="4.13665">
        <ele>180.396</ele>
        <time>2013-03-03T07:41:57Z</time>
      </trkpt>
      <trkpt lat="44.06246" lon="4.13669">
        <ele>180.706</ele>
        <time>2013-03-03T07:42:01Z</time>
      </trkpt>
      <trkpt lat="44.06245" lon="4.13671">
        <ele>181.006</ele>
        <time>2013-03-03T07:42:03Z</time>
      </trkpt>
      <trkpt lat="44.06238" lon="4.13679">
        <ele>180.876</ele>
        <time>2013-03-03T07:42:09Z</time>
      </trkpt>
      <trkpt lat="44.06227" lon="4.13691">
        <ele>181.496</ele>
        <time>2013-03-03T07:42:18Z</time>
      </trkpt>
      <trkpt lat="44.06222" lon="4.137">
        <ele>182.776</ele>
        <time>2013-03-03T07:42:25Z</time>
      </trkpt>
      <trkpt lat="44.06221" lon="4.13702">
        <ele>183.174</ele>
        <time>2013-03-03T07:42:28Z</time>
      </trkpt>
      <trkpt lat="44.06219" lon="4.13712">
        <ele>189.287</ele>
        <time>2013-03-03T07:43:15Z</time>
      </trkpt>
      <trkpt lat="44.06212" lon="4.13722">
        <ele>188.966</ele>
        <time>2013-03-03T07:43:21Z</time>
      </trkpt>
      <trkpt lat="44.06204" lon="4.13728">
        <ele>188.846</ele>
        <time>2013-03-03T07:43:27Z</time>
      </trkpt>
      <trkpt lat="44.06193" lon="4.13732">
        <ele>189.076</ele>
        <time>2013-03-03T07:43:33Z</time>
      </trkpt>
      <trkpt lat="44.06182" lon="4.13737">
        <ele>188.455</ele>
        <time>2013-03-03T07:43:40Z</time>
      </trkpt>
      <trkpt lat="44.06172" lon="4.1374">
        <ele>188.095</ele>
        <time>2013-03-03T07:43:45Z</time>
      </trkpt>
      <trkpt lat="44.06159" lon="4.13743">
        <ele>187.586</ele>
        <time>2013-03-03T07:43:51Z</time>
      </trkpt>
      <trkpt lat="44.06149" lon="4.13747">
        <ele>188.767</ele>
        <time>2013-03-03T07:43:56Z</time>
      </trkpt>
      <trkpt lat="44.06141" lon="4.13749">
        <ele>189.146</ele>
        <time>2013-03-03T07:44:01Z</time>
      </trkpt>
      <trkpt lat="44.06133" lon="4.13751">
        <ele>190.436</ele>
        <time>2013-03-03T07:44:06Z</time>
      </trkpt>
      <trkpt lat="44.06122" lon="4.13755">
        <ele>191.826</ele>
        <time>2013-03-03T07:44:12Z</time>
      </trkpt>
      <trkpt lat="44.0611" lon="4.1376">
        <ele>192.596</ele>
        <time>2013-03-03T07:44:19Z</time>
      </trkpt>
      <trkpt lat="44.06097" lon="4.13766">
        <ele>192.196</ele>
        <time>2013-03-03T07:44:26Z</time>
      </trkpt>
      <trkpt lat="44.06088" lon="4.13772">
        <ele>192.556</ele>
        <time>2013-03-03T07:44:32Z</time>
      </trkpt>
      <trkpt lat="44.06081" lon="4.13776">
        <ele>193.665</ele>
        <time>2013-03-03T07:44:36Z</time>
      </trkpt>
      <trkpt lat="44.06068" lon="4.13783">
        <ele>193.935</ele>
        <time>2013-03-03T07:44:43Z</time>
      </trkpt>
      <trkpt lat="44.06063" lon="4.13786">
        <ele>194.766</ele>
        <time>2013-03-03T07:44:46Z</time>
      </trkpt>
      <trkpt lat="44.06047" lon="4.13783">
        <ele>194.595</ele>
        <time>2013-03-03T07:44:51Z</time>
      </trkpt>
      <trkpt lat="44.06036" lon="4.13786">
        <ele>194.625</ele>
        <time>2013-03-03T07:44:55Z</time>
      </trkpt>
      <trkpt lat="44.06019" lon="4.13791">
        <ele>194.355</ele>
        <time>2013-03-03T07:45:02Z</time>
      </trkpt>
      <trkpt lat="44.06002" lon="4.13793">
        <ele>194.225</ele>
        <time>2013-03-03T07:45:08Z</time>
      </trkpt>
      <trkpt lat="44.05989" lon="4.13794">
        <ele>194.255</ele>
        <time>2013-03-03T07:45:12Z</time>
      </trkpt>
      <trkpt lat="44.0597" lon="4.13798">
        <ele>194.435</ele>
        <time>2013-03-03T07:45:18Z</time>
      </trkpt>
      <trkpt lat="44.05961" lon="4.13802">
        <ele>195.076</ele>
        <time>2013-03-03T07:45:22Z</time>
      </trkpt>
      <trkpt lat="44.05952" lon="4.13803">
        <ele>195.596</ele>
        <time>2013-03-03T07:45:27Z</time>
      </trkpt>
      <trkpt lat="44.05946" lon="4.13807">
        <ele>196.446</ele>
        <time>2013-03-03T07:45:31Z</time>
      </trkpt>
      <trkpt lat="44.05943" lon="4.13808">
        <ele>197.146</ele>
        <time>2013-03-03T07:45:33Z</time>
      </trkpt>
      <trkpt lat="44.05931" lon="4.13808">
        <ele>198.486</ele>
        <time>2013-03-03T07:45:40Z</time>
      </trkpt>
      <trkpt lat="44.05912" lon="4.1381">
        <ele>198.705</ele>
        <time>2013-03-03T07:45:48Z</time>
      </trkpt>
      <trkpt lat="44.05906" lon="4.13809">
        <ele>199.496</ele>
        <time>2013-03-03T07:45:51Z</time>
      </trkpt>
      <trkpt lat="44.05892" lon="4.13808">
        <ele>200.385</ele>
        <time>2013-03-03T07:45:57Z</time>
      </trkpt>
      <trkpt lat="44.05872" lon="4.13802">
        <ele>202.725</ele>
        <time>2013-03-03T07:46:05Z</time>
      </trkpt>
      <trkpt lat="44.05858" lon="4.13798">
        <ele>203.525</ele>
        <time>2013-03-03T07:46:11Z</time>
      </trkpt>
      <trkpt lat="44.05843" lon="4.13793">
        <ele>204.905</ele>
        <time>2013-03-03T07:46:18Z</time>
      </trkpt>
      <trkpt lat="44.05821" lon="4.13785">
        <ele>207.346</ele>
        <time>2013-03-03T07:46:27Z</time>
      </trkpt>
      <trkpt lat="44.05807" lon="4.13784">
        <ele>210.001</ele>
        <time>2013-03-03T07:46:34Z</time>
      </trkpt>
      <trkpt lat="44.05803" lon="4.13783">
        <ele>210.266</ele>
        <time>2013-03-03T07:46:36Z</time>
      </trkpt>
      <trkpt lat="44.05798" lon="4.1379">
        <ele>211.505</ele>
        <time>2013-03-03T07:46:40Z</time>
      </trkpt>
      <trkpt lat="44.05799" lon="4.13798">
        <ele>211.865</ele>
        <time>2013-03-03T07:46:43Z</time>
      </trkpt>
      <trkpt lat="44.05806" lon="4.13806">
        <ele>212.235</ele>
        <time>2013-03-03T07:46:48Z</time>
      </trkpt>
      <trkpt lat="44.05818" lon="4.13818">
        <ele>212.725</ele>
        <time>2013-03-03T07:46:55Z</time>
      </trkpt>
      <trkpt lat="44.05823" lon="4.13831">
        <ele>212.924</ele>
        <time>2013-03-03T07:46:59Z</time>
      </trkpt>
      <trkpt lat="44.05838" lon="4.13838">
        <ele>212.164</ele>
        <time>2013-03-03T07:47:04Z</time>
      </trkpt>
      <trkpt lat="44.05853" lon="4.1384">
        <ele>211.954</ele>
        <time>2013-03-03T07:47:09Z</time>
      </trkpt>
      <trkpt lat="44.05869" lon="4.13849">
        <ele>211.765</ele>
        <time>2013-03-03T07:47:15Z</time>
      </trkpt>
      <trkpt lat="44.05885" lon="4.13862">
        <ele>211.324</ele>
        <time>2013-03-03T07:47:21Z</time>
      </trkpt>
      <trkpt lat="44.05901" lon="4.13869">
        <ele>210.954</ele>
        <time>2013-03-03T07:47:27Z</time>
      </trkpt>
      <trkpt lat="44.05916" lon="4.13875">
        <ele>211.694</ele>
        <time>2013-03-03T07:47:32Z</time>
      </trkpt>
      <trkpt lat="44.0593" lon="4.13878">
        <ele>211.804</ele>
        <time>2013-03-03T07:47:37Z</time>
      </trkpt>
      <trkpt lat="44.05944" lon="4.13877">
        <ele>211.665</ele>
        <time>2013-03-03T07:47:42Z</time>
      </trkpt>
      <trkpt lat="44.0596" lon="4.13879">
        <ele>213.226</ele>
        <time>2013-03-03T07:47:48Z</time>
      </trkpt>
      <trkpt lat="44.05974" lon="4.13878">
        <ele>212.885</ele>
        <time>2013-03-03T07:47:53Z</time>
      </trkpt>
      <trkpt lat="44.0599" lon="4.13887">
        <ele>212.425</ele>
        <time>2013-03-03T07:47:59Z</time>
      </trkpt>
      <trkpt lat="44.06006" lon="4.13906">
        <ele>210.974</ele>
        <time>2013-03-03T07:48:05Z</time>
      </trkpt>
      <trkpt lat="44.06022" lon="4.13927">
        <ele>208.584</ele>
        <time>2013-03-03T07:48:11Z</time>
      </trkpt>
      <trkpt lat="44.06031" lon="4.13941">
        <ele>206.804</ele>
        <time>2013-03-03T07:48:15Z</time>
      </trkpt>
      <trkpt lat="44.06045" lon="4.13955">
        <ele>205.044</ele>
        <time>2013-03-03T07:48:20Z</time>
      </trkpt>
      <trkpt lat="44.06072" lon="4.13978">
        <ele>202.193</ele>
        <time>2013-03-03T07:48:27Z</time>
      </trkpt>
      <trkpt lat="44.06076" lon="4.13981">
        <ele>201.914</ele>
        <time>2013-03-03T07:48:28Z</time>
      </trkpt>
      <trkpt lat="44.06088" lon="4.13987">
        <ele>201.254</ele>
        <time>2013-03-03T07:48:31Z</time>
      </trkpt>
      <trkpt lat="44.061" lon="4.14003">
        <ele>201.204</ele>
        <time>2013-03-03T07:48:35Z</time>
      </trkpt>
      <trkpt lat="44.06107" lon="4.14017">
        <ele>202.104</ele>
        <time>2013-03-03T07:48:39Z</time>
      </trkpt>
      <trkpt lat="44.06118" lon="4.14038">
        <ele>201.195</ele>
        <time>2013-03-03T07:48:44Z</time>
      </trkpt>
      <trkpt lat="44.06125" lon="4.14057">
        <ele>200.475</ele>
        <time>2013-03-03T07:48:48Z</time>
      </trkpt>
      <trkpt lat="44.06133" lon="4.14074">
        <ele>200.755</ele>
        <time>2013-03-03T07:48:52Z</time>
      </trkpt>
      <trkpt lat="44.06137" lon="4.14089">
        <ele>201.956</ele>
        <time>2013-03-03T07:48:55Z</time>
      </trkpt>
      <trkpt lat="44.06147" lon="4.14105">
        <ele>202.947</ele>
        <time>2013-03-03T07:48:59Z</time>
      </trkpt>
      <trkpt lat="44.06151" lon="4.14106">
        <ele>203.076</ele>
        <time>2013-03-03T07:49:00Z</time>
      </trkpt>
      <trkpt lat="44.06169" lon="4.14111">
        <ele>204.837</ele>
        <time>2013-03-03T07:49:05Z</time>
      </trkpt>
      <trkpt lat="44.06186" lon="4.14117">
        <ele>205.277</ele>
        <time>2013-03-03T07:49:09Z</time>
      </trkpt>
      <trkpt lat="44.06216" lon="4.14129">
        <ele>205.656</ele>
        <time>2013-03-03T07:49:16Z</time>
      </trkpt>
      <trkpt lat="44.06235" lon="4.14149">
        <ele>205.506</ele>
        <time>2013-03-03T07:49:22Z</time>
      </trkpt>
      <trkpt lat="44.06255" lon="4.14166">
        <ele>205.506</ele>
        <time>2013-03-03T07:49:28Z</time>
      </trkpt>
      <trkpt lat="44.06268" lon="4.14191">
        <ele>203.876</ele>
        <time>2013-03-03T07:49:34Z</time>
      </trkpt>
      <trkpt lat="44.06274" lon="4.14213">
        <ele>203.535</ele>
        <time>2013-03-03T07:49:38Z</time>
      </trkpt>
      <trkpt lat="44.06285" lon="4.14247">
        <ele>202.276</ele>
        <time>2013-03-03T07:49:44Z</time>
      </trkpt>
      <trkpt lat="44.063" lon="4.14295">
        <ele>200.636</ele>
        <time>2013-03-03T07:49:52Z</time>
      </trkpt>
      <trkpt lat="44.06306" lon="4.14311">
        <ele>200.266</ele>
        <time>2013-03-03T07:49:55Z</time>
      </trkpt>
      <trkpt lat="44.06319" lon="4.14327">
        <ele>196.846</ele>
        <time>2013-03-03T07:49:59Z</time>
      </trkpt>
      <trkpt lat="44.06324" lon="4.14328">
        <ele>196.596</ele>
        <time>2013-03-03T07:50:00Z</time>
      </trkpt>
      <trkpt lat="44.0635" lon="4.14332">
        <ele>195.327</ele>
        <time>2013-03-03T07:50:07Z</time>
      </trkpt>
      <trkpt lat="44.06369" lon="4.14333">
        <ele>193.155</ele>
        <time>2013-03-03T07:50:13Z</time>
      </trkpt>
      <trkpt lat="44.0639" lon="4.14342">
        <ele>191.686</ele>
        <time>2013-03-03T07:50:19Z</time>
      </trkpt>
      <trkpt lat="44.06405" lon="4.14355">
        <ele>188.515</ele>
        <time>2013-03-03T07:50:24Z</time>
      </trkpt>
      <trkpt lat="44.06422" lon="4.14371">
        <ele>185.175</ele>
        <time>2013-03-03T07:50:30Z</time>
      </trkpt>
      <trkpt lat="44.06434" lon="4.14383">
        <ele>182.555</ele>
        <time>2013-03-03T07:50:36Z</time>
      </trkpt>
      <trkpt lat="44.06437" lon="4.14385">
        <ele>182.765</ele>
        <time>2013-03-03T07:50:37Z</time>
      </trkpt>
      <trkpt lat="44.06443" lon="4.14378">
        <ele>182.536</ele>
        <time>2013-03-03T07:50:41Z</time>
      </trkpt>
      <trkpt lat="44.06452" lon="4.14352">
        <ele>183.837</ele>
        <time>2013-03-03T07:50:49Z</time>
      </trkpt>
      <trkpt lat="44.06461" lon="4.14339">
        <ele>184.508</ele>
        <time>2013-03-03T07:50:54Z</time>
      </trkpt>
      <trkpt lat="44.06482" lon="4.14322">
        <ele>187.209</ele>
        <time>2013-03-03T07:51:01Z</time>
      </trkpt>
      <trkpt lat="44.06492" lon="4.14309">
        <ele>187.549</ele>
        <time>2013-03-03T07:51:05Z</time>
      </trkpt>
      <trkpt lat="44.06514" lon="4.14293">
        <ele>188.729</ele>
        <time>2013-03-03T07:51:13Z</time>
      </trkpt>
      <trkpt lat="44.06531" lon="4.14281">
        <ele>190.909</ele>
        <time>2013-03-03T07:51:19Z</time>
      </trkpt>
      <trkpt lat="44.06544" lon="4.14278">
        <ele>192.128</ele>
        <time>2013-03-03T07:51:24Z</time>
      </trkpt>
      <trkpt lat="44.06562" lon="4.14282">
        <ele>193.299</ele>
        <time>2013-03-03T07:51:31Z</time>
      </trkpt>
      <trkpt lat="44.0658" lon="4.14286">
        <ele>196.63</ele>
        <time>2013-03-03T07:51:38Z</time>
      </trkpt>
      <trkpt lat="44.06594" lon="4.14288">
        <ele>197.289</ele>
        <time>2013-03-03T07:51:45Z</time>
      </trkpt>
      <trkpt lat="44.06614" lon="4.14292">
        <ele>195.497</ele>
        <time>2013-03-03T07:51:52Z</time>
      </trkpt>
      <trkpt lat="44.06631" lon="4.14297">
        <ele>193.347</ele>
        <time>2013-03-03T07:51:58Z</time>
      </trkpt>
      <trkpt lat="44.06654" lon="4.14302">
        <ele>188.786</ele>
        <time>2013-03-03T07:52:05Z</time>
      </trkpt>
      <trkpt lat="44.06665" lon="4.14304">
        <ele>188.906</ele>
        <time>2013-03-03T07:52:08Z</time>
      </trkpt>
      <trkpt lat="44.06675" lon="4.14298">
        <ele>187.727</ele>
        <time>2013-03-03T07:52:12Z</time>
      </trkpt>
      <trkpt lat="44.06685" lon="4.14293">
        <ele>185.666</ele>
        <time>2013-03-03T07:52:17Z</time>
      </trkpt>
      <trkpt lat="44.06693" lon="4.14305">
        <ele>184.396</ele>
        <time>2013-03-03T07:52:21Z</time>
      </trkpt>
      <trkpt lat="44.06704" lon="4.14313">
        <ele>184.237</ele>
        <time>2013-03-03T07:52:25Z</time>
      </trkpt>
      <trkpt lat="44.06712" lon="4.14314">
        <ele>184.878</ele>
        <time>2013-03-03T07:52:27Z</time>
      </trkpt>
      <trkpt lat="44.06731" lon="4.14319">
        <ele>187.209</ele>
        <time>2013-03-03T07:52:32Z</time>
      </trkpt>
      <trkpt lat="44.06748" lon="4.14322">
        <ele>189.059</ele>
        <time>2013-03-03T07:52:37Z</time>
      </trkpt>
      <trkpt lat="44.06757" lon="4.14326">
        <ele>189.939</ele>
        <time>2013-03-03T07:52:40Z</time>
      </trkpt>
      <trkpt lat="44.06781" lon="4.1433">
        <ele>189.309</ele>
        <time>2013-03-03T07:52:47Z</time>
      </trkpt>
      <trkpt lat="44.06793" lon="4.14331">
        <ele>189.368</ele>
        <time>2013-03-03T07:52:52Z</time>
      </trkpt>
      <trkpt lat="44.068" lon="4.14328">
        <ele>188.728</ele>
        <time>2013-03-03T07:52:55Z</time>
      </trkpt>
      <trkpt lat="44.06815" lon="4.14331">
        <ele>187.298</ele>
        <time>2013-03-03T07:53:00Z</time>
      </trkpt>
      <trkpt lat="44.06832" lon="4.14335">
        <ele>186.688</ele>
        <time>2013-03-03T07:53:05Z</time>
      </trkpt>
      <trkpt lat="44.06852" lon="4.14344">
        <ele>185.057</ele>
        <time>2013-03-03T07:53:11Z</time>
      </trkpt>
      <trkpt lat="44.06867" lon="4.14349">
        <ele>184.378</ele>
        <time>2013-03-03T07:53:15Z</time>
      </trkpt>
      <trkpt lat="44.06888" lon="4.14356">
        <ele>183.768</ele>
        <time>2013-03-03T07:53:21Z</time>
      </trkpt>
      <trkpt lat="44.06904" lon="4.14361">
        <ele>182.998</ele>
        <time>2013-03-03T07:53:26Z</time>
      </trkpt>
      <trkpt lat="44.06922" lon="4.14368">
        <ele>183.588</ele>
        <time>2013-03-03T07:53:32Z</time>
      </trkpt>
      <trkpt lat="44.06941" lon="4.14376">
        <ele>186.099</ele>
        <time>2013-03-03T07:53:38Z</time>
      </trkpt>
      <trkpt lat="44.0696" lon="4.14381">
        <ele>187.499</ele>
        <time>2013-03-03T07:53:44Z</time>
      </trkpt>
      <trkpt lat="44.06979" lon="4.14386">
        <ele>189.79</ele>
        <time>2013-03-03T07:53:50Z</time>
      </trkpt>
      <trkpt lat="44.06999" lon="4.14392">
        <ele>190.489</ele>
        <time>2013-03-03T07:53:56Z</time>
      </trkpt>
      <trkpt lat="44.07014" lon="4.144">
        <ele>189.139</ele>
        <time>2013-03-03T07:54:00Z</time>
      </trkpt>
      <trkpt lat="44.07041" lon="4.14414">
        <ele>186.369</ele>
        <time>2013-03-03T07:54:07Z</time>
      </trkpt>
      <trkpt lat="44.07071" lon="4.14427">
        <ele>189.87</ele>
        <time>2013-03-03T07:54:15Z</time>
        <extensions>
          <visugpx:TrkExtension xmlns:visugpx="https://www.visugpx.com/editgpx/">
            <visugpx:node>3</visugpx:node>
            </visugpx:TrkExtension>
        </extensions>
      </trkpt>
      <trkpt lat="44.07076" lon="4.14433">
        <ele>186.04</ele>
        <time>2013-03-03T07:56:43Z</time>
        <extensions>
          <visugpx:TrkExtension xmlns:visugpx="https://www.visugpx.com/editgpx/">
            <visugpx:node>3</visugpx:node>
            </visugpx:TrkExtension>
        </extensions>
      </trkpt>
      <trkpt lat="44.0708" lon="4.14441">
        <ele>185.969</ele>
        <time>2013-03-03T07:56:47Z</time>
      </trkpt>
      <trkpt lat="44.07085" lon="4.14446">
        <ele>185.85</ele>
        <time>2013-03-03T07:56:50Z</time>
      </trkpt>
      <trkpt lat="44.07086" lon="4.1445">
        <ele>185.221</ele>
        <time>2013-03-03T07:56:55Z</time>
      </trkpt>
      <trkpt lat="44.07083" lon="4.14458">
        <ele>185.429</ele>
        <time>2013-03-03T07:57:01Z</time>
      </trkpt>
      <trkpt lat="44.07083" lon="4.14469">
        <ele>185.159</ele>
        <time>2013-03-03T07:57:05Z</time>
      </trkpt>
      <trkpt lat="44.07076" lon="4.14489">
        <ele>183.339</ele>
        <time>2013-03-03T07:57:11Z</time>
      </trkpt>
      <trkpt lat="44.07076" lon="4.145">
        <ele>182.898</ele>
        <time>2013-03-03T07:57:13Z</time>
      </trkpt>
      <trkpt lat="44.07074" lon="4.14523">
        <ele>181.948</ele>
        <time>2013-03-03T07:57:17Z</time>
      </trkpt>
      <trkpt lat="44.07072" lon="4.14532">
        <ele>181.568</ele>
        <time>2013-03-03T07:57:19Z</time>
      </trkpt>
      <trkpt lat="44.07074" lon="4.14553">
        <ele>179.718</ele>
        <time>2013-03-03T07:57:24Z</time>
      </trkpt>
      <trkpt lat="44.07064" lon="4.1458">
        <ele>178.619</ele>
        <time>2013-03-03T07:57:29Z</time>
      </trkpt>
      <trkpt lat="44.0705" lon="4.14613">
        <ele>178.069</ele>
        <time>2013-03-03T07:57:35Z</time>
      </trkpt>
      <trkpt lat="44.07051" lon="4.14632">
        <ele>177.409</ele>
        <time>2013-03-03T07:57:38Z</time>
      </trkpt>
      <trkpt lat="44.07051" lon="4.14667">
        <ele>175.558</ele>
        <time>2013-03-03T07:57:43Z</time>
      </trkpt>
      <trkpt lat="44.07048" lon="4.14684">
        <ele>174.439</ele>
        <time>2013-03-03T07:57:46Z</time>
      </trkpt>
      <trkpt lat="44.07053" lon="4.14692">
        <ele>173.346</ele>
        <time>2013-03-03T07:57:49Z</time>
      </trkpt>
      <trkpt lat="44.07069" lon="4.14704">
        <ele>172.749</ele>
        <time>2013-03-03T07:57:54Z</time>
      </trkpt>
      <trkpt lat="44.07085" lon="4.1471">
        <ele>172.61</ele>
        <time>2013-03-03T07:57:58Z</time>
      </trkpt>
      <trkpt lat="44.07091" lon="4.14717">
        <ele>172.31</ele>
        <time>2013-03-03T07:58:00Z</time>
      </trkpt>
      <trkpt lat="44.07099" lon="4.14724">
        <ele>172.08</ele>
        <time>2013-03-03T07:58:02Z</time>
      </trkpt>
      <trkpt lat="44.07116" lon="4.14736">
        <ele>170.869</ele>
        <time>2013-03-03T07:58:06Z</time>
      </trkpt>
      <trkpt lat="44.0714" lon="4.14757">
        <ele>169.129</ele>
        <time>2013-03-03T07:58:13Z</time>
      </trkpt>
      <trkpt lat="44.07154" lon="4.1477">
        <ele>169.439</ele>
        <time>2013-03-03T07:58:17Z</time>
      </trkpt>
      <trkpt lat="44.07177" lon="4.14775">
        <ele>168.679</ele>
        <time>2013-03-03T07:58:22Z</time>
      </trkpt>
      <trkpt lat="44.07181" lon="4.14774">
        <ele>168.229</ele>
        <time>2013-03-03T07:58:23Z</time>
      </trkpt>
      <trkpt lat="44.0721" lon="4.14782">
        <ele>166.669</ele>
        <time>2013-03-03T07:58:30Z</time>
      </trkpt>
      <trkpt lat="44.07231" lon="4.14795">
        <ele>166.679</ele>
        <time>2013-03-03T07:58:36Z</time>
      </trkpt>
      <trkpt lat="44.07247" lon="4.14806">
        <ele>164.988</ele>
        <time>2013-03-03T07:58:41Z</time>
      </trkpt>
      <trkpt lat="44.07263" lon="4.14812">
        <ele>164.219</ele>
        <time>2013-03-03T07:58:45Z</time>
      </trkpt>
      <trkpt lat="44.07279" lon="4.1482">
        <ele>163.179</ele>
        <time>2013-03-03T07:58:49Z</time>
      </trkpt>
      <trkpt lat="44.07299" lon="4.14827">
        <ele>162.95</ele>
        <time>2013-03-03T07:58:54Z</time>
      </trkpt>
      <trkpt lat="44.07312" lon="4.14839">
        <ele>161.21</ele>
        <time>2013-03-03T07:58:59Z</time>
      </trkpt>
      <trkpt lat="44.07324" lon="4.14847">
        <ele>160.489</ele>
        <time>2013-03-03T07:59:03Z</time>
      </trkpt>
      <trkpt lat="44.0733" lon="4.14856">
        <ele>160.56</ele>
        <time>2013-03-03T07:59:06Z</time>
      </trkpt>
      <trkpt lat="44.0734" lon="4.14878">
        <ele>159.47</ele>
        <time>2013-03-03T07:59:11Z</time>
      </trkpt>
      <trkpt lat="44.07355" lon="4.14902">
        <ele>158.88</ele>
        <time>2013-03-03T07:59:17Z</time>
      </trkpt>
      <trkpt lat="44.07369" lon="4.14912">
        <ele>158.05</ele>
        <time>2013-03-03T07:59:21Z</time>
      </trkpt>
      <trkpt lat="44.07373" lon="4.14915">
        <ele>157.62</ele>
        <time>2013-03-03T07:59:22Z</time>
      </trkpt>
      <trkpt lat="44.07385" lon="4.14929">
        <ele>155.729</ele>
        <time>2013-03-03T07:59:25Z</time>
      </trkpt>
      <trkpt lat="44.07404" lon="4.14944">
        <ele>154.169</ele>
        <time>2013-03-03T07:59:29Z</time>
      </trkpt>
      <trkpt lat="44.07416" lon="4.14958">
        <ele>152.539</ele>
        <time>2013-03-03T07:59:32Z</time>
      </trkpt>
      <trkpt lat="44.07426" lon="4.14966">
        <ele>151.719</ele>
        <time>2013-03-03T07:59:34Z</time>
      </trkpt>
      <trkpt lat="44.07439" lon="4.14982">
        <ele>150.879</ele>
        <time>2013-03-03T07:59:37Z</time>
      </trkpt>
      <trkpt lat="44.07454" lon="4.14992">
        <ele>150.029</ele>
        <time>2013-03-03T07:59:41Z</time>
      </trkpt>
      <trkpt lat="44.07469" lon="4.15013">
        <ele>149.27</ele>
        <time>2013-03-03T07:59:46Z</time>
      </trkpt>
      <trkpt lat="44.07481" lon="4.15044">
        <ele>147.97</ele>
        <time>2013-03-03T07:59:52Z</time>
      </trkpt>
      <trkpt lat="44.07482" lon="4.15049">
        <ele>147.8</ele>
        <time>2013-03-03T07:59:53Z</time>
      </trkpt>
      <trkpt lat="44.07492" lon="4.15085">
        <ele>146.26</ele>
        <time>2013-03-03T07:59:59Z</time>
      </trkpt>
      <trkpt lat="44.07501" lon="4.15115">
        <ele>145.68</ele>
        <time>2013-03-03T08:00:04Z</time>
      </trkpt>
      <trkpt lat="44.0751" lon="4.15133">
        <ele>144.291</ele>
        <time>2013-03-03T08:00:08Z</time>
      </trkpt>
      <trkpt lat="44.07525" lon="4.15152">
        <ele>143.47</ele>
        <time>2013-03-03T08:00:13Z</time>
      </trkpt>
      <trkpt lat="44.07534" lon="4.15162">
        <ele>143.35</ele>
        <time>2013-03-03T08:00:16Z</time>
      </trkpt>
      <trkpt lat="44.07542" lon="4.15167">
        <ele>143.48</ele>
        <time>2013-03-03T08:00:18Z</time>
      </trkpt>
      <trkpt lat="44.07551" lon="4.15185">
        <ele>142.66</ele>
        <time>2013-03-03T08:00:22Z</time>
      </trkpt>
      <trkpt lat="44.07561" lon="4.15203">
        <ele>140.61</ele>
        <time>2013-03-03T08:00:26Z</time>
      </trkpt>
      <trkpt lat="44.07573" lon="4.15221">
        <ele>138.69</ele>
        <time>2013-03-03T08:00:31Z</time>
      </trkpt>
      <trkpt lat="44.07587" lon="4.15245">
        <ele>137.2</ele>
        <time>2013-03-03T08:00:37Z</time>
      </trkpt>
      <trkpt lat="44.07596" lon="4.15261">
        <ele>136.691</ele>
        <time>2013-03-03T08:00:41Z</time>
      </trkpt>
      <trkpt lat="44.07607" lon="4.15283">
        <ele>135.771</ele>
        <time>2013-03-03T08:00:46Z</time>
      </trkpt>
      <trkpt lat="44.07618" lon="4.15309">
        <ele>134.151</ele>
        <time>2013-03-03T08:00:51Z</time>
      </trkpt>
      <trkpt lat="44.07618" lon="4.15341">
        <ele>133.401</ele>
        <time>2013-03-03T08:00:56Z</time>
      </trkpt>
      <trkpt lat="44.07618" lon="4.15346">
        <ele>132.941</ele>
        <time>2013-03-03T08:00:57Z</time>
      </trkpt>
      <trkpt lat="44.07627" lon="4.15358">
        <ele>131.682</ele>
        <time>2013-03-03T08:01:01Z</time>
      </trkpt>
      <trkpt lat="44.07638" lon="4.15365">
        <ele>131.232</ele>
        <time>2013-03-03T08:01:04Z</time>
      </trkpt>
      <trkpt lat="44.0767" lon="4.15376">
        <ele>130.572</ele>
        <time>2013-03-03T08:01:12Z</time>
      </trkpt>
      <trkpt lat="44.07684" lon="4.15382">
        <ele>129.722</ele>
        <time>2013-03-03T08:01:17Z</time>
      </trkpt>
      <trkpt lat="44.07679" lon="4.15394">
        <ele>129.102</ele>
        <time>2013-03-03T08:01:20Z</time>
      </trkpt>
      <trkpt lat="44.07661" lon="4.15421">
        <ele>129.763</ele>
        <time>2013-03-03T08:01:25Z</time>
      </trkpt>
      <trkpt lat="44.07653" lon="4.15438">
        <ele>131.153</ele>
        <time>2013-03-03T08:01:28Z</time>
      </trkpt>
      <trkpt lat="44.07638" lon="4.15454">
        <ele>132.154</ele>
        <time>2013-03-03T08:01:32Z</time>
      </trkpt>
      <trkpt lat="44.07635" lon="4.15458">
        <ele>132.785</ele>
        <time>2013-03-03T08:01:33Z</time>
      </trkpt>
      <trkpt lat="44.07622" lon="4.15476">
        <ele>136.745</ele>
        <time>2013-03-03T08:01:38Z</time>
      </trkpt>
      <trkpt lat="44.0762" lon="4.1548">
        <ele>136.895</ele>
        <time>2013-03-03T08:01:39Z</time>
      </trkpt>
      <trkpt lat="44.07611" lon="4.15493">
        <ele>136.984</ele>
        <time>2013-03-03T08:01:43Z</time>
      </trkpt>
      <trkpt lat="44.07608" lon="4.15504">
        <ele>136.473</ele>
        <time>2013-03-03T08:01:45Z</time>
      </trkpt>
      <trkpt lat="44.07588" lon="4.1553">
        <ele>136.153</ele>
        <time>2013-03-03T08:01:51Z</time>
      </trkpt>
      <trkpt lat="44.07584" lon="4.15535">
        <ele>135.643</ele>
        <time>2013-03-03T08:01:52Z</time>
      </trkpt>
      <trkpt lat="44.0757" lon="4.15549">
        <ele>134.823</ele>
        <time>2013-03-03T08:01:55Z</time>
      </trkpt>
      <trkpt lat="44.07563" lon="4.15561">
        <ele>134.303</ele>
        <time>2013-03-03T08:01:57Z</time>
      </trkpt>
      <trkpt lat="44.07541" lon="4.15584">
        <ele>133.063</ele>
        <time>2013-03-03T08:02:02Z</time>
      </trkpt>
      <trkpt lat="44.07531" lon="4.15593">
        <ele>132.703</ele>
        <time>2013-03-03T08:02:04Z</time>
      </trkpt>
      <trkpt lat="44.07516" lon="4.15611">
        <ele>132.293</ele>
        <time>2013-03-03T08:02:08Z</time>
      </trkpt>
      <trkpt lat="44.07506" lon="4.15602">
        <ele>130.513</ele>
        <time>2013-03-03T08:02:12Z</time>
      </trkpt>
      <trkpt lat="44.07491" lon="4.15599">
        <ele>130.413</ele>
        <time>2013-03-03T08:02:16Z</time>
      </trkpt>
      <trkpt lat="44.07474" lon="4.15603">
        <ele>128.822</ele>
        <time>2013-03-03T08:02:22Z</time>
      </trkpt>
      <trkpt lat="44.07458" lon="4.15608">
        <ele>127.172</ele>
        <time>2013-03-03T08:02:26Z</time>
      </trkpt>
      <trkpt lat="44.07449" lon="4.15607">
        <ele>127.643</ele>
        <time>2013-03-03T08:02:29Z</time>
      </trkpt>
      <trkpt lat="44.07439" lon="4.15603">
        <ele>127.853</ele>
        <time>2013-03-03T08:02:33Z</time>
      </trkpt>
      <trkpt lat="44.07433" lon="4.15603">
        <ele>127.473</ele>
        <time>2013-03-03T08:02:35Z</time>
      </trkpt>
      <trkpt lat="44.07422" lon="4.15596">
        <ele>126.983</ele>
        <time>2013-03-03T08:02:39Z</time>
      </trkpt>
      <trkpt lat="44.07407" lon="4.15588">
        <ele>126.963</ele>
        <time>2013-03-03T08:02:43Z</time>
      </trkpt>
      <trkpt lat="44.07384" lon="4.15582">
        <ele>127.464</ele>
        <time>2013-03-03T08:02:48Z</time>
      </trkpt>
      <trkpt lat="44.07371" lon="4.15581">
        <ele>127.623</ele>
        <time>2013-03-03T08:02:51Z</time>
      </trkpt>
      <trkpt lat="44.07343" lon="4.15579">
        <ele>126.052</ele>
        <time>2013-03-03T08:02:57Z</time>
      </trkpt>
      <trkpt lat="44.07333" lon="4.15579">
        <ele>125.622</ele>
        <time>2013-03-03T08:02:59Z</time>
      </trkpt>
      <trkpt lat="44.07323" lon="4.15578">
        <ele>125.432</ele>
        <time>2013-03-03T08:03:01Z</time>
      </trkpt>
      <trkpt lat="44.07289" lon="4.15579">
        <ele>124.242</ele>
        <time>2013-03-03T08:03:07Z</time>
      </trkpt>
      <trkpt lat="44.07277" lon="4.15582">
        <ele>124.333</ele>
        <time>2013-03-03T08:03:09Z</time>
      </trkpt>
      <trkpt lat="44.07266" lon="4.15587">
        <ele>123.732</ele>
        <time>2013-03-03T08:03:11Z</time>
      </trkpt>
      <trkpt lat="44.07252" lon="4.15611">
        <ele>122.762</ele>
        <time>2013-03-03T08:03:15Z</time>
      </trkpt>
      <trkpt lat="44.07239" lon="4.15636">
        <ele>122.162</ele>
        <time>2013-03-03T08:03:19Z</time>
      </trkpt>
      <trkpt lat="44.07229" lon="4.15641">
        <ele>121.952</ele>
        <time>2013-03-03T08:03:21Z</time>
      </trkpt>
      <trkpt lat="44.07215" lon="4.15648">
        <ele>122.293</ele>
        <time>2013-03-03T08:03:24Z</time>
      </trkpt>
      <trkpt lat="44.07201" lon="4.15645">
        <ele>122.213</ele>
        <time>2013-03-03T08:03:28Z</time>
      </trkpt>
      <trkpt lat="44.07198" lon="4.15642">
        <ele>122.183</ele>
        <time>2013-03-03T08:03:29Z</time>
      </trkpt>
      <trkpt lat="44.0718" lon="4.15616">
        <ele>125.905</ele>
        <time>2013-03-03T08:03:37Z</time>
      </trkpt>
      <trkpt lat="44.07169" lon="4.15602">
        <ele>128.104</ele>
        <time>2013-03-03T08:03:42Z</time>
      </trkpt>
      <trkpt lat="44.07154" lon="4.15605">
        <ele>129.724</ele>
        <time>2013-03-03T08:03:47Z</time>
      </trkpt>
      <trkpt lat="44.07134" lon="4.15611">
        <ele>130.993</ele>
        <time>2013-03-03T08:03:54Z</time>
      </trkpt>
      <trkpt lat="44.0713" lon="4.15616">
        <ele>131.924</ele>
        <time>2013-03-03T08:03:56Z</time>
      </trkpt>
      <trkpt lat="44.07134" lon="4.15632">
        <ele>132.373</ele>
        <time>2013-03-03T08:04:01Z</time>
      </trkpt>
      <trkpt lat="44.07147" lon="4.15663">
        <ele>132.602</ele>
        <time>2013-03-03T08:04:10Z</time>
      </trkpt>
      <trkpt lat="44.07152" lon="4.15684">
        <ele>132.042</ele>
        <time>2013-03-03T08:04:15Z</time>
      </trkpt>
      <trkpt lat="44.07159" lon="4.15721">
        <ele>131.262</ele>
        <time>2013-03-03T08:04:22Z</time>
      </trkpt>
      <trkpt lat="44.07169" lon="4.15754">
        <ele>130.762</ele>
        <time>2013-03-03T08:04:28Z</time>
      </trkpt>
      <trkpt lat="44.07163" lon="4.15766">
        <ele>129.832</ele>
        <time>2013-03-03T08:04:32Z</time>
      </trkpt>
      <trkpt lat="44.07137" lon="4.15773">
        <ele>127.922</ele>
        <time>2013-03-03T08:04:40Z</time>
      </trkpt>
      <trkpt lat="44.07121" lon="4.15776">
        <ele>127.742</ele>
        <time>2013-03-03T08:04:45Z</time>
      </trkpt>
      <trkpt lat="44.07105" lon="4.15789">
        <ele>127.562</ele>
        <time>2013-03-03T08:04:50Z</time>
      </trkpt>
      <trkpt lat="44.07103" lon="4.15793">
        <ele>127.402</ele>
        <time>2013-03-03T08:04:51Z</time>
      </trkpt>
      <trkpt lat="44.07098" lon="4.15803">
        <ele>127.282</ele>
        <time>2013-03-03T08:04:53Z</time>
      </trkpt>
      <trkpt lat="44.07092" lon="4.15819">
        <ele>126.812</ele>
        <time>2013-03-03T08:04:56Z</time>
      </trkpt>
      <trkpt lat="44.07088" lon="4.1583">
        <ele>126.422</ele>
        <time>2013-03-03T08:04:58Z</time>
      </trkpt>
      <trkpt lat="44.07081" lon="4.15853">
        <ele>126.392</ele>
        <time>2013-03-03T08:05:02Z</time>
      </trkpt>
      <trkpt lat="44.07069" lon="4.15869">
        <ele>126.512</ele>
        <time>2013-03-03T08:05:06Z</time>
      </trkpt>
      <trkpt lat="44.07062" lon="4.15859">
        <ele>126.233</ele>
        <time>2013-03-03T08:05:09Z</time>
      </trkpt>
      <trkpt lat="44.0705" lon="4.15834">
        <ele>126.813</ele>
        <time>2013-03-03T08:05:15Z</time>
      </trkpt>
      <trkpt lat="44.0704" lon="4.15819">
        <ele>126.973</ele>
        <time>2013-03-03T08:05:19Z</time>
      </trkpt>
      <trkpt lat="44.07033" lon="4.15806">
        <ele>127.233</ele>
        <time>2013-03-03T08:05:22Z</time>
      </trkpt>
      <trkpt lat="44.07014" lon="4.15782">
        <ele>126.662</ele>
        <time>2013-03-03T08:05:28Z</time>
      </trkpt>
      <trkpt lat="44.07004" lon="4.15775">
        <ele>126.422</ele>
        <time>2013-03-03T08:05:31Z</time>
      </trkpt>
      <trkpt lat="44.0698" lon="4.15748">
        <ele>127.733</ele>
        <time>2013-03-03T08:05:39Z</time>
      </trkpt>
      <trkpt lat="44.06971" lon="4.15728">
        <ele>129.243</ele>
        <time>2013-03-03T08:05:44Z</time>
      </trkpt>
      <trkpt lat="44.06964" lon="4.15702">
        <ele>130.363</ele>
        <time>2013-03-03T08:05:50Z</time>
      </trkpt>
      <trkpt lat="44.06954" lon="4.15699">
        <ele>129.862</ele>
        <time>2013-03-03T08:05:54Z</time>
      </trkpt>
      <trkpt lat="44.0694" lon="4.15692">
        <ele>129.252</ele>
        <time>2013-03-03T08:05:58Z</time>
      </trkpt>
      <trkpt lat="44.06934" lon="4.15687">
        <ele>129.372</ele>
        <time>2013-03-03T08:06:00Z</time>
      </trkpt>
      <trkpt lat="44.06911" lon="4.15661">
        <ele>130.523</ele>
        <time>2013-03-03T08:06:09Z</time>
      </trkpt>
      <trkpt lat="44.06888" lon="4.15634">
        <ele>132.083</ele>
        <time>2013-03-03T08:06:18Z</time>
      </trkpt>
      <trkpt lat="44.06867" lon="4.1561">
        <ele>132.952</ele>
        <time>2013-03-03T08:06:26Z</time>
      </trkpt>
      <trkpt lat="44.06852" lon="4.1559">
        <ele>132.952</ele>
        <time>2013-03-03T08:06:32Z</time>
      </trkpt>
      <trkpt lat="44.0684" lon="4.1558">
        <ele>133.493</ele>
        <time>2013-03-03T08:06:36Z</time>
      </trkpt>
      <trkpt lat="44.06828" lon="4.15592">
        <ele>133.612</ele>
        <time>2013-03-03T08:06:41Z</time>
      </trkpt>
      <trkpt lat="44.06826" lon="4.15596">
        <ele>133.632</ele>
        <time>2013-03-03T08:06:42Z</time>
      </trkpt>
      <trkpt lat="44.06793" lon="4.15641">
        <ele>132.6</ele>
        <time>2013-03-03T08:06:53Z</time>
      </trkpt>
      <trkpt lat="44.06782" lon="4.15661">
        <ele>132.321</ele>
        <time>2013-03-03T08:06:57Z</time>
      </trkpt>
      <trkpt lat="44.06762" lon="4.15711">
        <ele>132.341</ele>
        <time>2013-03-03T08:07:06Z</time>
      </trkpt>
      <trkpt lat="44.06752" lon="4.15747">
        <ele>133.462</ele>
        <time>2013-03-03T08:07:12Z</time>
      </trkpt>
      <trkpt lat="44.0675" lon="4.15754">
        <ele>133.852</ele>
        <time>2013-03-03T08:07:13Z</time>
      </trkpt>
      <trkpt lat="44.06745" lon="4.15786">
        <ele>134.722</ele>
        <time>2013-03-03T08:07:18Z</time>
      </trkpt>
      <trkpt lat="44.06748" lon="4.15839">
        <ele>132.791</ele>
        <time>2013-03-03T08:07:26Z</time>
      </trkpt>
      <trkpt lat="44.06748" lon="4.1586">
        <ele>132.471</ele>
        <time>2013-03-03T08:07:29Z</time>
      </trkpt>
      <trkpt lat="44.06748" lon="4.15872">
        <ele>132.202</ele>
        <time>2013-03-03T08:07:31Z</time>
      </trkpt>
      <trkpt lat="44.06745" lon="4.15892">
        <ele>132.162</ele>
        <time>2013-03-03T08:07:35Z</time>
      </trkpt>
      <trkpt lat="44.06736" lon="4.15894">
        <ele>132.112</ele>
        <time>2013-03-03T08:07:38Z</time>
      </trkpt>
      <trkpt lat="44.06716" lon="4.15895">
        <ele>132.843</ele>
        <time>2013-03-03T08:07:44Z</time>
      </trkpt>
      <trkpt lat="44.06702" lon="4.15902">
        <ele>133.523</ele>
        <time>2013-03-03T08:07:49Z</time>
      </trkpt>
      <trkpt lat="44.06693" lon="4.15907">
        <ele>134.543</ele>
        <time>2013-03-03T08:07:53Z</time>
      </trkpt>
      <trkpt lat="44.06677" lon="4.15903">
        <ele>136.233</ele>
        <time>2013-03-03T08:07:59Z</time>
      </trkpt>
      <trkpt lat="44.06669" lon="4.15894">
        <ele>136.552</ele>
        <time>2013-03-03T08:08:03Z</time>
      </trkpt>
      <trkpt lat="44.06661" lon="4.15871">
        <ele>136.531</ele>
        <time>2013-03-03T08:08:10Z</time>
      </trkpt>
      <trkpt lat="44.06652" lon="4.15858">
        <ele>137.642</ele>
        <time>2013-03-03T08:08:15Z</time>
      </trkpt>
      <trkpt lat="44.06639" lon="4.15852">
        <ele>138.071</ele>
        <time>2013-03-03T08:08:21Z</time>
      </trkpt>
      <trkpt lat="44.06625" lon="4.15841">
        <ele>138.242</ele>
        <time>2013-03-03T08:08:26Z</time>
      </trkpt>
      <trkpt lat="44.06619" lon="4.15832">
        <ele>138.591</ele>
        <time>2013-03-03T08:08:30Z</time>
      </trkpt>
      <trkpt lat="44.06602" lon="4.1582">
        <ele>138.261</ele>
        <time>2013-03-03T08:08:36Z</time>
      </trkpt>
      <trkpt lat="44.06582" lon="4.15805">
        <ele>137.992</ele>
        <time>2013-03-03T08:08:43Z</time>
      </trkpt>
      <trkpt lat="44.06557" lon="4.15788">
        <ele>137.821</ele>
        <time>2013-03-03T08:08:51Z</time>
      </trkpt>
      <trkpt lat="44.06554" lon="4.15786">
        <ele>137.751</ele>
        <time>2013-03-03T08:08:52Z</time>
      </trkpt>
      <trkpt lat="44.06548" lon="4.15767">
        <ele>137.521</ele>
        <time>2013-03-03T08:08:57Z</time>
      </trkpt>
      <trkpt lat="44.06549" lon="4.15763">
        <ele>137.511</ele>
        <time>2013-03-03T08:08:58Z</time>
      </trkpt>
      <trkpt lat="44.06555" lon="4.1573">
        <ele>137.771</ele>
        <time>2013-03-03T08:09:06Z</time>
      </trkpt>
      <trkpt lat="44.06565" lon="4.15691">
        <ele>137.861</ele>
        <time>2013-03-03T08:09:15Z</time>
      </trkpt>
      <trkpt lat="44.06571" lon="4.15647">
        <ele>137.571</ele>
        <time>2013-03-03T08:09:24Z</time>
      </trkpt>
      <trkpt lat="44.06576" lon="4.15614">
        <ele>137.791</ele>
        <time>2013-03-03T08:09:31Z</time>
      </trkpt>
      <trkpt lat="44.06588" lon="4.15567">
        <ele>138.142</ele>
        <time>2013-03-03T08:09:41Z</time>
      </trkpt>
      <trkpt lat="44.06597" lon="4.15525">
        <ele>138.121</ele>
        <time>2013-03-03T08:09:50Z</time>
      </trkpt>
      <trkpt lat="44.06602" lon="4.15479">
        <ele>138.58</ele>
        <time>2013-03-03T08:09:59Z</time>
      </trkpt>
      <trkpt lat="44.06598" lon="4.15458">
        <ele>138.96</ele>
        <time>2013-03-03T08:10:03Z</time>
      </trkpt>
      <trkpt lat="44.06595" lon="4.15453">
        <ele>139.441</ele>
        <time>2013-03-03T08:10:04Z</time>
      </trkpt>
      <trkpt lat="44.06561" lon="4.15413">
        <ele>141.51</ele>
        <time>2013-03-03T08:10:14Z</time>
      </trkpt>
      <trkpt lat="44.06549" lon="4.15421">
        <ele>142.101</ele>
        <time>2013-03-03T08:10:18Z</time>
      </trkpt>
      <trkpt lat="44.06539" lon="4.15458">
        <ele>143.751</ele>
        <time>2013-03-03T08:10:26Z</time>
      </trkpt>
      <trkpt lat="44.06527" lon="4.15492">
        <ele>144.781</ele>
        <time>2013-03-03T08:10:34Z</time>
      </trkpt>
      <trkpt lat="44.06517" lon="4.15522">
        <ele>145.52</ele>
        <time>2013-03-03T08:10:41Z</time>
      </trkpt>
      <trkpt lat="44.06497" lon="4.15548">
        <ele>146.571</ele>
        <time>2013-03-03T08:10:48Z</time>
      </trkpt>
      <trkpt lat="44.06469" lon="4.15571">
        <ele>147.471</ele>
        <time>2013-03-03T08:10:56Z</time>
      </trkpt>
      <trkpt lat="44.06449" lon="4.15598">
        <ele>148.501</ele>
        <time>2013-03-03T08:11:03Z</time>
      </trkpt>
      <trkpt lat="44.06435" lon="4.15626">
        <ele>149.811</ele>
        <time>2013-03-03T08:11:09Z</time>
      </trkpt>
      <trkpt lat="44.06426" lon="4.15651">
        <ele>150.511</ele>
        <time>2013-03-03T08:11:14Z</time>
      </trkpt>
      <trkpt lat="44.06406" lon="4.15661">
        <ele>152.041</ele>
        <time>2013-03-03T08:11:20Z</time>
      </trkpt>
      <trkpt lat="44.06397" lon="4.15653">
        <ele>152.441</ele>
        <time>2013-03-03T08:11:23Z</time>
      </trkpt>
      <trkpt lat="44.0638" lon="4.15629">
        <ele>154.862</ele>
        <time>2013-03-03T08:11:31Z</time>
      </trkpt>
      <trkpt lat="44.06372" lon="4.15621">
        <ele>155.621</ele>
        <time>2013-03-03T08:11:35Z</time>
      </trkpt>
      <trkpt lat="44.06362" lon="4.15626">
        <ele>156.121</ele>
        <time>2013-03-03T08:11:39Z</time>
      </trkpt>
      <trkpt lat="44.06333" lon="4.15657">
        <ele>157.521</ele>
        <time>2013-03-03T08:11:50Z</time>
      </trkpt>
      <trkpt lat="44.06313" lon="4.15665">
        <ele>157.07</ele>
        <time>2013-03-03T08:11:56Z</time>
      </trkpt>
      <trkpt lat="44.06296" lon="4.15661">
        <ele>157.06</ele>
        <time>2013-03-03T08:12:01Z</time>
      </trkpt>
      <trkpt lat="44.0627" lon="4.15655">
        <ele>156.8</ele>
        <time>2013-03-03T08:12:09Z</time>
      </trkpt>
      <trkpt lat="44.06255" lon="4.15668">
        <ele>157.15</ele>
        <time>2013-03-03T08:12:14Z</time>
      </trkpt>
      <trkpt lat="44.06235" lon="4.15689">
        <ele>157.67</ele>
        <time>2013-03-03T08:12:21Z</time>
      </trkpt>
      <trkpt lat="44.06221" lon="4.15701">
        <ele>158.831</ele>
        <time>2013-03-03T08:12:26Z</time>
      </trkpt>
      <trkpt lat="44.06207" lon="4.15696">
        <ele>159.05</ele>
        <time>2013-03-03T08:12:31Z</time>
      </trkpt>
      <trkpt lat="44.06198" lon="4.15706">
        <ele>160.501</ele>
        <time>2013-03-03T08:12:35Z</time>
      </trkpt>
      <trkpt lat="44.06196" lon="4.1571">
        <ele>160.781</ele>
        <time>2013-03-03T08:12:36Z</time>
      </trkpt>
      <trkpt lat="44.06191" lon="4.15723">
        <ele>160.7</ele>
        <time>2013-03-03T08:12:39Z</time>
      </trkpt>
      <trkpt lat="44.06197" lon="4.15739">
        <ele>160.049</ele>
        <time>2013-03-03T08:12:43Z</time>
      </trkpt>
      <trkpt lat="44.06212" lon="4.15763">
        <ele>158.979</ele>
        <time>2013-03-03T08:12:48Z</time>
      </trkpt>
      <trkpt lat="44.06229" lon="4.15794">
        <ele>157.999</ele>
        <time>2013-03-03T08:12:54Z</time>
      </trkpt>
      <trkpt lat="44.06251" lon="4.1583">
        <ele>157.08</ele>
        <time>2013-03-03T08:13:01Z</time>
      </trkpt>
      <trkpt lat="44.06256" lon="4.15837">
        <ele>156.569</ele>
        <time>2013-03-03T08:13:03Z</time>
      </trkpt>
      <trkpt lat="44.0625" lon="4.15846">
        <ele>155.288</ele>
        <time>2013-03-03T08:13:07Z</time>
      </trkpt>
      <trkpt lat="44.06248" lon="4.1585">
        <ele>154.948</ele>
        <time>2013-03-03T08:13:08Z</time>
      </trkpt>
      <trkpt lat="44.06236" lon="4.15866">
        <ele>153.278</ele>
        <time>2013-03-03T08:13:12Z</time>
      </trkpt>
      <trkpt lat="44.06218" lon="4.15892">
        <ele>151.249</ele>
        <time>2013-03-03T08:13:18Z</time>
      </trkpt>
      <trkpt lat="44.06206" lon="4.159">
        <ele>150.529</ele>
        <time>2013-03-03T08:13:22Z</time>
      </trkpt>
      <trkpt lat="44.062" lon="4.15902">
        <ele>149.508</ele>
        <time>2013-03-03T08:13:24Z</time>
      </trkpt>
      <trkpt lat="44.06186" lon="4.15918">
        <ele>148.989</ele>
        <time>2013-03-03T08:13:29Z</time>
      </trkpt>
      <trkpt lat="44.06171" lon="4.15935">
        <ele>146.797</ele>
        <time>2013-03-03T08:13:34Z</time>
      </trkpt>
      <trkpt lat="44.06155" lon="4.15929">
        <ele>144.168</ele>
        <time>2013-03-03T08:13:39Z</time>
      </trkpt>
      <trkpt lat="44.06146" lon="4.15921">
        <ele>143.378</ele>
        <time>2013-03-03T08:13:41Z</time>
      </trkpt>
      <trkpt lat="44.06136" lon="4.15916">
        <ele>142.569</ele>
        <time>2013-03-03T08:13:43Z</time>
      </trkpt>
      <trkpt lat="44.06115" lon="4.15896">
        <ele>140.81</ele>
        <time>2013-03-03T08:13:49Z</time>
      </trkpt>
      <trkpt lat="44.06101" lon="4.15888">
        <ele>139.579</ele>
        <time>2013-03-03T08:13:54Z</time>
      </trkpt>
      <trkpt lat="44.06086" lon="4.15898">
        <ele>136.308</ele>
        <time>2013-03-03T08:13:59Z</time>
      </trkpt>
      <trkpt lat="44.06079" lon="4.15894">
        <ele>134.148</ele>
        <time>2013-03-03T08:14:02Z</time>
      </trkpt>
      <trkpt lat="44.06082" lon="4.1588">
        <ele>131.868</ele>
        <time>2013-03-03T08:14:06Z</time>
      </trkpt>
      <trkpt lat="44.06079" lon="4.15868">
        <ele>131.238</ele>
        <time>2013-03-03T08:14:09Z</time>
      </trkpt>
      <trkpt lat="44.06072" lon="4.1585">
        <ele>130.469</ele>
        <time>2013-03-03T08:14:13Z</time>
      </trkpt>
      <trkpt lat="44.06068" lon="4.15838">
        <ele>129.619</ele>
        <time>2013-03-03T08:14:16Z</time>
      </trkpt>
      <trkpt lat="44.06048" lon="4.15832">
        <ele>129.769</ele>
        <time>2013-03-03T08:14:23Z</time>
      </trkpt>
      <trkpt lat="44.06042" lon="4.1583">
        <ele>129.76</ele>
        <time>2013-03-03T08:14:25Z</time>
      </trkpt>
      <trkpt lat="44.06026" lon="4.15829">
        <ele>129.88</ele>
        <time>2013-03-03T08:14:30Z</time>
      </trkpt>
      <trkpt lat="44.06009" lon="4.15829">
        <ele>129.91</ele>
        <time>2013-03-03T08:14:35Z</time>
      </trkpt>
      <trkpt lat="44.06001" lon="4.15827">
        <ele>130.01</ele>
        <time>2013-03-03T08:14:38Z</time>
      </trkpt>
      <trkpt lat="44.0599" lon="4.15828">
        <ele>130.34</ele>
        <time>2013-03-03T08:14:43Z</time>
      </trkpt>
      <trkpt lat="44.05988" lon="4.15826">
        <ele>130.37</ele>
        <time>2013-03-03T08:14:44Z</time>
      </trkpt>
      <trkpt lat="44.05975" lon="4.15821">
        <ele>131.051</ele>
        <time>2013-03-03T08:14:50Z</time>
      </trkpt>
      <trkpt lat="44.05959" lon="4.15818">
        <ele>131.29</ele>
        <time>2013-03-03T08:14:55Z</time>
      </trkpt>
      <trkpt lat="44.05951" lon="4.15818">
        <ele>131.53</ele>
        <time>2013-03-03T08:14:57Z</time>
      </trkpt>
      <trkpt lat="44.05938" lon="4.15837">
        <ele>131.589</ele>
        <time>2013-03-03T08:15:02Z</time>
      </trkpt>
      <trkpt lat="44.05923" lon="4.15862">
        <ele>131.769</ele>
        <time>2013-03-03T08:15:07Z</time>
      </trkpt>
      <trkpt lat="44.05903" lon="4.15878">
        <ele>133.24</ele>
        <time>2013-03-03T08:15:13Z</time>
      </trkpt>
      <trkpt lat="44.05887" lon="4.15878">
        <ele>132.709</ele>
        <time>2013-03-03T08:15:18Z</time>
      </trkpt>
      <trkpt lat="44.05883" lon="4.15877">
        <ele>132.78</ele>
        <time>2013-03-03T08:15:19Z</time>
      </trkpt>
      <trkpt lat="44.05859" lon="4.15867">
        <ele>134.2</ele>
        <time>2013-03-03T08:15:26Z</time>
      </trkpt>
      <trkpt lat="44.05834" lon="4.15856">
        <ele>135.991</ele>
        <time>2013-03-03T08:15:33Z</time>
      </trkpt>
      <trkpt lat="44.05822" lon="4.15847">
        <ele>136.94</ele>
        <time>2013-03-03T08:15:38Z</time>
      </trkpt>
      <trkpt lat="44.05804" lon="4.15835">
        <ele>138.791</ele>
        <time>2013-03-03T08:15:45Z</time>
      </trkpt>
      <trkpt lat="44.05795" lon="4.15834">
        <ele>139.9</ele>
        <time>2013-03-03T08:15:50Z</time>
      </trkpt>
      <trkpt lat="44.05783" lon="4.15836">
        <ele>140.4</ele>
        <time>2013-03-03T08:15:56Z</time>
      </trkpt>
      <trkpt lat="44.05767" lon="4.1584">
        <ele>140.7</ele>
        <time>2013-03-03T08:16:04Z</time>
      </trkpt>
      <trkpt lat="44.0575" lon="4.15835">
        <ele>141.63</ele>
        <time>2013-03-03T08:16:10Z</time>
      </trkpt>
      <trkpt lat="44.05736" lon="4.15822">
        <ele>143.52</ele>
        <time>2013-03-03T08:16:16Z</time>
      </trkpt>
      <trkpt lat="44.05716" lon="4.15809">
        <ele>145.1</ele>
        <time>2013-03-03T08:16:25Z</time>
      </trkpt>
      <trkpt lat="44.05694" lon="4.158">
        <ele>146.78</ele>
        <time>2013-03-03T08:16:35Z</time>
      </trkpt>
      <trkpt lat="44.0569" lon="4.15798">
        <ele>147.22</ele>
        <time>2013-03-03T08:16:37Z</time>
      </trkpt>
      <trkpt lat="44.05688" lon="4.15787">
        <ele>147.069</ele>
        <time>2013-03-03T08:16:42Z</time>
      </trkpt>
      <trkpt lat="44.05683" lon="4.15776">
        <ele>147.849</ele>
        <time>2013-03-03T08:16:46Z</time>
      </trkpt>
      <trkpt lat="44.05673" lon="4.15764">
        <ele>147.608</ele>
        <time>2013-03-03T08:16:51Z</time>
      </trkpt>
      <trkpt lat="44.05657" lon="4.15747">
        <ele>148.419</ele>
        <time>2013-03-03T08:16:58Z</time>
      </trkpt>
      <trkpt lat="44.05648" lon="4.1574">
        <ele>149.299</ele>
        <time>2013-03-03T08:17:02Z</time>
      </trkpt>
      <trkpt lat="44.05636" lon="4.15747">
        <ele>149.459</ele>
        <time>2013-03-03T08:17:08Z</time>
      </trkpt>
      <trkpt lat="44.05616" lon="4.15767">
        <ele>149.848</ele>
        <time>2013-03-03T08:17:17Z</time>
      </trkpt>
      <trkpt lat="44.05598" lon="4.15786">
        <ele>150.068</ele>
        <time>2013-03-03T08:17:24Z</time>
      </trkpt>
      <trkpt lat="44.05581" lon="4.15805">
        <ele>150.348</ele>
        <time>2013-03-03T08:17:31Z</time>
      </trkpt>
      <trkpt lat="44.05569" lon="4.15818">
        <ele>149.858</ele>
        <time>2013-03-03T08:17:35Z</time>
      </trkpt>
      <trkpt lat="44.0555" lon="4.15841">
        <ele>148.397</ele>
        <time>2013-03-03T08:17:41Z</time>
      </trkpt>
      <trkpt lat="44.05537" lon="4.1586">
        <ele>147.427</ele>
        <time>2013-03-03T08:17:45Z</time>
      </trkpt>
      <trkpt lat="44.05505" lon="4.15909">
        <ele>146.207</ele>
        <time>2013-03-03T08:17:55Z</time>
      </trkpt>
      <trkpt lat="44.05476" lon="4.15954">
        <ele>147.598</ele>
        <time>2013-03-03T08:18:04Z</time>
      </trkpt>
      <trkpt lat="44.05443" lon="4.15996">
        <ele>147.908</ele>
        <time>2013-03-03T08:18:14Z</time>
      </trkpt>
      <trkpt lat="44.05411" lon="4.16028">
        <ele>148.128</ele>
        <time>2013-03-03T08:18:23Z</time>
      </trkpt>
      <trkpt lat="44.05403" lon="4.16021">
        <ele>146.577</ele>
        <time>2013-03-03T08:18:27Z</time>
      </trkpt>
      <trkpt lat="44.05402" lon="4.16017">
        <ele>146.318</ele>
        <time>2013-03-03T08:18:28Z</time>
      </trkpt>
      <trkpt lat="44.05381" lon="4.15973">
        <ele>143.837</ele>
        <time>2013-03-03T08:18:37Z</time>
      </trkpt>
      <trkpt lat="44.05361" lon="4.1593">
        <ele>142.217</ele>
        <time>2013-03-03T08:18:45Z</time>
      </trkpt>
      <trkpt lat="44.05353" lon="4.15917">
        <ele>141.807</ele>
        <time>2013-03-03T08:18:48Z</time>
      </trkpt>
      <trkpt lat="44.05333" lon="4.1592">
        <ele>140.257</ele>
        <time>2013-03-03T08:18:53Z</time>
      </trkpt>
      <trkpt lat="44.05312" lon="4.15923">
        <ele>139.987</ele>
        <time>2013-03-03T08:18:58Z</time>
      </trkpt>
      <trkpt lat="44.05284" lon="4.15949">
        <ele>140.578</ele>
        <time>2013-03-03T08:19:06Z</time>
      </trkpt>
      <trkpt lat="44.05259" lon="4.15967">
        <ele>142.678</ele>
        <time>2013-03-03T08:19:14Z</time>
      </trkpt>
      <trkpt lat="44.05242" lon="4.15985">
        <ele>144.468</ele>
        <time>2013-03-03T08:19:21Z</time>
      </trkpt>
      <trkpt lat="44.05227" lon="4.16008">
        <ele>146.388</ele>
        <time>2013-03-03T08:19:30Z</time>
      </trkpt>
      <trkpt lat="44.05212" lon="4.16027">
        <ele>149.058</ele>
        <time>2013-03-03T08:19:39Z</time>
      </trkpt>
      <trkpt lat="44.05201" lon="4.16045">
        <ele>151.508</ele>
        <time>2013-03-03T08:19:47Z</time>
      </trkpt>
      <trkpt lat="44.05198" lon="4.16064">
        <ele>151.438</ele>
        <time>2013-03-03T08:19:55Z</time>
      </trkpt>
      <trkpt lat="44.05197" lon="4.16082">
        <ele>151.767</ele>
        <time>2013-03-03T08:20:02Z</time>
      </trkpt>
      <trkpt lat="44.05191" lon="4.16095">
        <ele>152.568</ele>
        <time>2013-03-03T08:20:08Z</time>
      </trkpt>
      <trkpt lat="44.05179" lon="4.161">
        <ele>152.757</ele>
        <time>2013-03-03T08:20:14Z</time>
      </trkpt>
      <trkpt lat="44.05162" lon="4.16108">
        <ele>153.038</ele>
        <time>2013-03-03T08:20:22Z</time>
      </trkpt>
      <trkpt lat="44.0515" lon="4.16114">
        <ele>154.208</ele>
        <time>2013-03-03T08:20:28Z</time>
      </trkpt>
      <trkpt lat="44.05136" lon="4.16125">
        <ele>156.819</ele>
        <time>2013-03-03T08:20:36Z</time>
      </trkpt>
      <trkpt lat="44.05121" lon="4.16141">
        <ele>160.529</ele>
        <time>2013-03-03T08:20:45Z</time>
      </trkpt>
      <trkpt lat="44.05109" lon="4.1615">
        <ele>162.069</ele>
        <time>2013-03-03T08:20:52Z</time>
      </trkpt>
      <trkpt lat="44.05105" lon="4.16151">
        <ele>162.169</ele>
        <time>2013-03-03T08:20:54Z</time>
      </trkpt>
      <trkpt lat="44.05096" lon="4.16139">
        <ele>162.107</ele>
        <time>2013-03-03T08:21:00Z</time>
      </trkpt>
      <trkpt lat="44.05081" lon="4.16123">
        <ele>161.357</ele>
        <time>2013-03-03T08:21:07Z</time>
      </trkpt>
      <trkpt lat="44.05067" lon="4.16108">
        <ele>160.647</ele>
        <time>2013-03-03T08:21:13Z</time>
      </trkpt>
      <trkpt lat="44.05063" lon="4.16103">
        <ele>160.337</ele>
        <time>2013-03-03T08:21:15Z</time>
      </trkpt>
      <trkpt lat="44.0505" lon="4.16108">
        <ele>159.687</ele>
        <time>2013-03-03T08:21:20Z</time>
      </trkpt>
      <trkpt lat="44.05037" lon="4.16115">
        <ele>159.418</ele>
        <time>2013-03-03T08:21:26Z</time>
      </trkpt>
      <trkpt lat="44.05027" lon="4.16118">
        <ele>159.468</ele>
        <time>2013-03-03T08:21:32Z</time>
      </trkpt>
      <trkpt lat="44.05024" lon="4.16115">
        <ele>159.608</ele>
        <time>2013-03-03T08:21:37Z</time>
      </trkpt>
      <trkpt lat="44.05019" lon="4.16105">
        <ele>160.071</ele>
        <time>2013-03-03T08:21:43Z</time>
      </trkpt>
      <trkpt lat="44.05009" lon="4.16092">
        <ele>159.688</ele>
        <time>2013-03-03T08:21:49Z</time>
      </trkpt>
      <trkpt lat="44.05002" lon="4.16085">
        <ele>159.808</ele>
        <time>2013-03-03T08:21:52Z</time>
      </trkpt>
      <trkpt lat="44.04991" lon="4.16087">
        <ele>160.238</ele>
        <time>2013-03-03T08:21:56Z</time>
      </trkpt>
      <trkpt lat="44.04981" lon="4.16097">
        <ele>162.409</ele>
        <time>2013-03-03T08:22:02Z</time>
      </trkpt>
      <trkpt lat="44.04975" lon="4.16111">
        <ele>164.028</ele>
        <time>2013-03-03T08:22:08Z</time>
      </trkpt>
      <trkpt lat="44.04966" lon="4.16114">
        <ele>165.348</ele>
        <time>2013-03-03T08:22:13Z</time>
      </trkpt>
      <trkpt lat="44.04954" lon="4.16109">
        <ele>165.557</ele>
        <time>2013-03-03T08:22:19Z</time>
      </trkpt>
      <trkpt lat="44.0494" lon="4.16113">
        <ele>165.757</ele>
        <time>2013-03-03T08:22:25Z</time>
      </trkpt>
      <trkpt lat="44.04925" lon="4.16123">
        <ele>165.607</ele>
        <time>2013-03-03T08:22:31Z</time>
      </trkpt>
      <trkpt lat="44.0492" lon="4.16125">
        <ele>165.327</ele>
        <time>2013-03-03T08:22:33Z</time>
      </trkpt>
      <trkpt lat="44.04913" lon="4.16131">
        <ele>164.767</ele>
        <time>2013-03-03T08:22:38Z</time>
      </trkpt>
      <trkpt lat="44.04912" lon="4.16134">
        <ele>165.157</ele>
        <time>2013-03-03T08:22:39Z</time>
      </trkpt>
      <trkpt lat="44.049" lon="4.16155">
        <ele>166.718</ele>
        <time>2013-03-03T08:22:47Z</time>
      </trkpt>
      <trkpt lat="44.04892" lon="4.16172">
        <ele>168.968</ele>
        <time>2013-03-03T08:22:53Z</time>
      </trkpt>
      <trkpt lat="44.04885" lon="4.1619">
        <ele>171.038</ele>
        <time>2013-03-03T08:22:59Z</time>
      </trkpt>
      <trkpt lat="44.0488" lon="4.16213">
        <ele>171.697</ele>
        <time>2013-03-03T08:23:05Z</time>
      </trkpt>
      <trkpt lat="44.04874" lon="4.16235">
        <ele>171.096</ele>
        <time>2013-03-03T08:23:11Z</time>
      </trkpt>
      <trkpt lat="44.04869" lon="4.1625">
        <ele>170.666</ele>
        <time>2013-03-03T08:23:15Z</time>
      </trkpt>
      <trkpt lat="44.04858" lon="4.16265">
        <ele>169.536</ele>
        <time>2013-03-03T08:23:20Z</time>
      </trkpt>
      <trkpt lat="44.04849" lon="4.16284">
        <ele>169.206</ele>
        <time>2013-03-03T08:23:24Z</time>
      </trkpt>
      <trkpt lat="44.04841" lon="4.16304">
        <ele>168.005</ele>
        <time>2013-03-03T08:23:28Z</time>
      </trkpt>
      <trkpt lat="44.04833" lon="4.16329">
        <ele>166.465</ele>
        <time>2013-03-03T08:23:34Z</time>
      </trkpt>
      <trkpt lat="44.0482" lon="4.16349">
        <ele>165.566</ele>
        <time>2013-03-03T08:23:39Z</time>
      </trkpt>
      <trkpt lat="44.04807" lon="4.16374">
        <ele>164.906</ele>
        <time>2013-03-03T08:23:44Z</time>
      </trkpt>
      <trkpt lat="44.04802" lon="4.16384">
        <ele>164.636</ele>
        <time>2013-03-03T08:23:46Z</time>
      </trkpt>
      <trkpt lat="44.04785" lon="4.16403">
        <ele>164.687</ele>
        <time>2013-03-03T08:23:52Z</time>
      </trkpt>
      <trkpt lat="44.04766" lon="4.16417">
        <ele>163.556</ele>
        <time>2013-03-03T08:23:58Z</time>
      </trkpt>
      <trkpt lat="44.04752" lon="4.16432">
        <ele>162.877</ele>
        <time>2013-03-03T08:24:03Z</time>
      </trkpt>
      <trkpt lat="44.0475" lon="4.16437">
        <ele>162.897</ele>
        <time>2013-03-03T08:24:05Z</time>
      </trkpt>
      <trkpt lat="44.04745" lon="4.16449">
        <ele>162.416</ele>
        <time>2013-03-03T08:24:11Z</time>
      </trkpt>
      <trkpt lat="44.0474" lon="4.1646">
        <ele>160.737</ele>
        <time>2013-03-03T08:24:18Z</time>
      </trkpt>
      <trkpt lat="44.04734" lon="4.1647">
        <ele>161.227</ele>
        <time>2013-03-03T08:24:22Z</time>
      </trkpt>
      <trkpt lat="44.04731" lon="4.16476">
        <ele>161.707</ele>
        <time>2013-03-03T08:24:24Z</time>
      </trkpt>
      <trkpt lat="44.04721" lon="4.16496">
        <ele>162.687</ele>
        <time>2013-03-03T08:24:31Z</time>
      </trkpt>
      <trkpt lat="44.04717" lon="4.16509">
        <ele>161.717</ele>
        <time>2013-03-03T08:24:36Z</time>
      </trkpt>
      <trkpt lat="44.04708" lon="4.16528">
        <ele>161.887</ele>
        <time>2013-03-03T08:24:43Z</time>
      </trkpt>
      <trkpt lat="44.04702" lon="4.16551">
        <ele>161.497</ele>
        <time>2013-03-03T08:24:49Z</time>
      </trkpt>
      <trkpt lat="44.04698" lon="4.16566">
        <ele>161.097</ele>
        <time>2013-03-03T08:24:54Z</time>
      </trkpt>
      <trkpt lat="44.04691" lon="4.16578">
        <ele>161.127</ele>
        <time>2013-03-03T08:24:58Z</time>
      </trkpt>
      <trkpt lat="44.04683" lon="4.16596">
        <ele>160.887</ele>
        <time>2013-03-03T08:25:04Z</time>
      </trkpt>
      <trkpt lat="44.04669" lon="4.1662">
        <ele>160.877</ele>
        <time>2013-03-03T08:25:12Z</time>
      </trkpt>
      <trkpt lat="44.04659" lon="4.16638">
        <ele>161.507</ele>
        <time>2013-03-03T08:25:18Z</time>
      </trkpt>
      <trkpt lat="44.04639" lon="4.16669">
        <ele>162.568</ele>
        <time>2013-03-03T08:25:27Z</time>
      </trkpt>
      <trkpt lat="44.04622" lon="4.16697">
        <ele>163.478</ele>
        <time>2013-03-03T08:25:35Z</time>
      </trkpt>
      <trkpt lat="44.04608" lon="4.16722">
        <ele>164.908</ele>
        <time>2013-03-03T08:25:42Z</time>
      </trkpt>
      <trkpt lat="44.04593" lon="4.16744">
        <ele>166.918</ele>
        <time>2013-03-03T08:25:49Z</time>
      </trkpt>
      <trkpt lat="44.04575" lon="4.16772">
        <ele>169.178</ele>
        <time>2013-03-03T08:25:58Z</time>
      </trkpt>
      <trkpt lat="44.04563" lon="4.16797">
        <ele>168.137</ele>
        <time>2013-03-03T08:26:05Z</time>
      </trkpt>
      <trkpt lat="44.04547" lon="4.1684">
        <ele>167.527</ele>
        <time>2013-03-03T08:26:14Z</time>
      </trkpt>
      <trkpt lat="44.04527" lon="4.16886">
        <ele>167.048</ele>
        <time>2013-03-03T08:26:24Z</time>
      </trkpt>
      <trkpt lat="44.04511" lon="4.16913">
        <ele>167.498</ele>
        <time>2013-03-03T08:26:31Z</time>
      </trkpt>
      <trkpt lat="44.0451" lon="4.16935">
        <ele>167.088</ele>
        <time>2013-03-03T08:26:36Z</time>
      </trkpt>
      <trkpt lat="44.04507" lon="4.16977">
        <ele>166.317</ele>
        <time>2013-03-03T08:26:46Z</time>
      </trkpt>
      <trkpt lat="44.04504" lon="4.17008">
        <ele>165.447</ele>
        <time>2013-03-03T08:26:53Z</time>
      </trkpt>
      <trkpt lat="44.04501" lon="4.17066">
        <ele>162.646</ele>
        <time>2013-03-03T08:27:04Z</time>
      </trkpt>
      <trkpt lat="44.04503" lon="4.17109">
        <ele>161.157</ele>
        <time>2013-03-03T08:27:12Z</time>
      </trkpt>
      <trkpt lat="44.04509" lon="4.17144">
        <ele>160.187</ele>
        <time>2013-03-03T08:27:19Z</time>
      </trkpt>
      <trkpt lat="44.04516" lon="4.17177">
        <ele>160.268</ele>
        <time>2013-03-03T08:27:26Z</time>
      </trkpt>
      <trkpt lat="44.04523" lon="4.17212">
        <ele>160.588</ele>
        <time>2013-03-03T08:27:35Z</time>
      </trkpt>
      <trkpt lat="44.04531" lon="4.17239">
        <ele>160.097</ele>
        <time>2013-03-03T08:27:42Z</time>
      </trkpt>
      <trkpt lat="44.04543" lon="4.17262">
        <ele>159.517</ele>
        <time>2013-03-03T08:27:48Z</time>
      </trkpt>
      <trkpt lat="44.0456" lon="4.17275">
        <ele>159.938</ele>
        <time>2013-03-03T08:27:54Z</time>
      </trkpt>
      <trkpt lat="44.04573" lon="4.17274">
        <ele>160.597</ele>
        <time>2013-03-03T08:27:58Z</time>
      </trkpt>
      <trkpt lat="44.04594" lon="4.17287">
        <ele>161.267</ele>
        <time>2013-03-03T08:28:04Z</time>
      </trkpt>
      <trkpt lat="44.04623" lon="4.17312">
        <ele>161.858</ele>
        <time>2013-03-03T08:28:13Z</time>
      </trkpt>
      <trkpt lat="44.04646" lon="4.17331">
        <ele>162.839</ele>
        <time>2013-03-03T08:28:20Z</time>
      </trkpt>
      <trkpt lat="44.04661" lon="4.1734">
        <ele>164.509</ele>
        <time>2013-03-03T08:28:25Z</time>
      </trkpt>
      <trkpt lat="44.04677" lon="4.17334">
        <ele>165.669</ele>
        <time>2013-03-03T08:28:30Z</time>
      </trkpt>
      <trkpt lat="44.04694" lon="4.17334">
        <ele>166.378</ele>
        <time>2013-03-03T08:28:35Z</time>
      </trkpt>
      <trkpt lat="44.04703" lon="4.17347">
        <ele>167.369</ele>
        <time>2013-03-03T08:28:39Z</time>
      </trkpt>
      <trkpt lat="44.04715" lon="4.1738">
        <ele>168.149</ele>
        <time>2013-03-03T08:28:47Z</time>
      </trkpt>
      <trkpt lat="44.0471" lon="4.17398">
        <ele>167.648</ele>
        <time>2013-03-03T08:28:51Z</time>
      </trkpt>
      <trkpt lat="44.04699" lon="4.17429">
        <ele>166.918</ele>
        <time>2013-03-03T08:28:58Z</time>
      </trkpt>
      <trkpt lat="44.04694" lon="4.17444">
        <ele>166.908</ele>
        <time>2013-03-03T08:29:01Z</time>
      </trkpt>
      <trkpt lat="44.04699" lon="4.17464">
        <ele>165.887</ele>
        <time>2013-03-03T08:29:05Z</time>
      </trkpt>
      <trkpt lat="44.04706" lon="4.17471">
        <ele>165.088</ele>
        <time>2013-03-03T08:29:07Z</time>
      </trkpt>
      <trkpt lat="44.04739" lon="4.17496">
        <ele>162.657</ele>
        <time>2013-03-03T08:29:14Z</time>
      </trkpt>
      <trkpt lat="44.04783" lon="4.17524">
        <ele>159.888</ele>
        <time>2013-03-03T08:29:22Z</time>
      </trkpt>
      <trkpt lat="44.04823" lon="4.1755">
        <ele>157.677</ele>
        <time>2013-03-03T08:29:29Z</time>
      </trkpt>
      <trkpt lat="44.0486" lon="4.1757">
        <ele>156.317</ele>
        <time>2013-03-03T08:29:35Z</time>
      </trkpt>
      <trkpt lat="44.04879" lon="4.17585">
        <ele>155.467</ele>
        <time>2013-03-03T08:29:38Z</time>
      </trkpt>
      <trkpt lat="44.04926" lon="4.17613">
        <ele>153.998</ele>
        <time>2013-03-03T08:29:45Z</time>
      </trkpt>
      <trkpt lat="44.04956" lon="4.17625">
        <ele>154.268</ele>
        <time>2013-03-03T08:29:50Z</time>
      </trkpt>
      <trkpt lat="44.04981" lon="4.17638">
        <ele>154.419</ele>
        <time>2013-03-03T08:29:55Z</time>
      </trkpt>
      <trkpt lat="44.04986" lon="4.17641">
        <ele>154.559</ele>
        <time>2013-03-03T08:29:56Z</time>
      </trkpt>
      <trkpt lat="44.05011" lon="4.17645">
        <ele>154.668</ele>
        <time>2013-03-03T08:30:01Z</time>
      </trkpt>
      <trkpt lat="44.05059" lon="4.17639">
        <ele>151.818</ele>
        <time>2013-03-03T08:30:10Z</time>
      </trkpt>
      <trkpt lat="44.05091" lon="4.17629">
        <ele>149.629</ele>
        <time>2013-03-03T08:30:16Z</time>
      </trkpt>
      <trkpt lat="44.05106" lon="4.17634">
        <ele>149.52</ele>
        <time>2013-03-03T08:30:20Z</time>
      </trkpt>
      <trkpt lat="44.05118" lon="4.17658">
        <ele>151.961</ele>
        <time>2013-03-03T08:30:27Z</time>
      </trkpt>
      <trkpt lat="44.0513" lon="4.1768">
        <ele>153.661</ele>
        <time>2013-03-03T08:30:34Z</time>
      </trkpt>
      <trkpt lat="44.05147" lon="4.17685">
        <ele>154.851</ele>
        <time>2013-03-03T08:30:39Z</time>
      </trkpt>
      <trkpt lat="44.05169" lon="4.17681">
        <ele>154.81</ele>
        <time>2013-03-03T08:30:45Z</time>
      </trkpt>
      <trkpt lat="44.05192" lon="4.17685">
        <ele>155.25</ele>
        <time>2013-03-03T08:30:51Z</time>
      </trkpt>
      <trkpt lat="44.05196" lon="4.17686">
        <ele>155.5</ele>
        <time>2013-03-03T08:30:52Z</time>
      </trkpt>
      <trkpt lat="44.0521" lon="4.17699">
        <ele>155</ele>
        <time>2013-03-03T08:30:56Z</time>
      </trkpt>
      <trkpt lat="44.05213" lon="4.17712">
        <ele>154.17</ele>
        <time>2013-03-03T08:30:58Z</time>
      </trkpt>
      <trkpt lat="44.05226" lon="4.17737">
        <ele>153.02</ele>
        <time>2013-03-03T08:31:03Z</time>
      </trkpt>
      <trkpt lat="44.05243" lon="4.17749">
        <ele>151.73</ele>
        <time>2013-03-03T08:31:07Z</time>
      </trkpt>
      <trkpt lat="44.05251" lon="4.17777">
        <ele>149.399</ele>
        <time>2013-03-03T08:31:11Z</time>
      </trkpt>
      <trkpt lat="44.05252" lon="4.17785">
        <ele>148.719</ele>
        <time>2013-03-03T08:31:12Z</time>
      </trkpt>
      <trkpt lat="44.05266" lon="4.17874">
        <ele>146.481</ele>
        <time>2013-03-03T08:31:22Z</time>
      </trkpt>
      <trkpt lat="44.05272" lon="4.17916">
        <ele>147.211</ele>
        <time>2013-03-03T08:31:28Z</time>
      </trkpt>
      <trkpt lat="44.05274" lon="4.17923">
        <ele>147.291</ele>
        <time>2013-03-03T08:31:30Z</time>
      </trkpt>
      <trkpt lat="44.05283" lon="4.17926">
        <ele>146.31</ele>
        <time>2013-03-03T08:31:34Z</time>
      </trkpt>
      <trkpt lat="44.05289" lon="4.17919">
        <ele>145.019</ele>
        <time>2013-03-03T08:31:37Z</time>
      </trkpt>
      <trkpt lat="44.05304" lon="4.17921">
        <ele>144.11</ele>
        <time>2013-03-03T08:31:41Z</time>
      </trkpt>
      <trkpt lat="44.0532" lon="4.17925">
        <ele>143.57</ele>
        <time>2013-03-03T08:31:45Z</time>
      </trkpt>
      <trkpt lat="44.05335" lon="4.17932">
        <ele>142.79</ele>
        <time>2013-03-03T08:31:49Z</time>
      </trkpt>
      <trkpt lat="44.05346" lon="4.17932">
        <ele>142.21</ele>
        <time>2013-03-03T08:31:52Z</time>
      </trkpt>
      <trkpt lat="44.05361" lon="4.17935">
        <ele>141.61</ele>
        <time>2013-03-03T08:31:56Z</time>
      </trkpt>
      <trkpt lat="44.05362" lon="4.17949">
        <ele>140.81</ele>
        <time>2013-03-03T08:31:59Z</time>
      </trkpt>
      <trkpt lat="44.0536" lon="4.17968">
        <ele>140.4</ele>
        <time>2013-03-03T08:32:02Z</time>
      </trkpt>
      <trkpt lat="44.05357" lon="4.17972">
        <ele>140.421</ele>
        <time>2013-03-03T08:32:03Z</time>
      </trkpt>
      <trkpt lat="44.05349" lon="4.1798">
        <ele>139.92</ele>
        <time>2013-03-03T08:32:05Z</time>
      </trkpt>
      <trkpt lat="44.0533" lon="4.17993">
        <ele>139.622</ele>
        <time>2013-03-03T08:32:10Z</time>
      </trkpt>
      <trkpt lat="44.05318" lon="4.18003">
        <ele>139.431</ele>
        <time>2013-03-03T08:32:14Z</time>
      </trkpt>
      <trkpt lat="44.05317" lon="4.18011">
        <ele>138.781</ele>
        <time>2013-03-03T08:32:17Z</time>
      </trkpt>
      <trkpt lat="44.05327" lon="4.18016">
        <ele>138.411</ele>
        <time>2013-03-03T08:32:20Z</time>
      </trkpt>
      <trkpt lat="44.05335" lon="4.1802">
        <ele>137.981</ele>
        <time>2013-03-03T08:32:22Z</time>
      </trkpt>
      <trkpt lat="44.05348" lon="4.1804">
        <ele>136.01</ele>
        <time>2013-03-03T08:32:27Z</time>
      </trkpt>
      <trkpt lat="44.05351" lon="4.18057">
        <ele>134.62</ele>
        <time>2013-03-03T08:32:30Z</time>
      </trkpt>
      <trkpt lat="44.05356" lon="4.1807">
        <ele>133.43</ele>
        <time>2013-03-03T08:32:33Z</time>
      </trkpt>
      <trkpt lat="44.05361" lon="4.18075">
        <ele>132.62</ele>
        <time>2013-03-03T08:32:35Z</time>
      </trkpt>
      <trkpt lat="44.05372" lon="4.18104">
        <ele>130.531</ele>
        <time>2013-03-03T08:32:41Z</time>
      </trkpt>
      <trkpt lat="44.05369" lon="4.18127">
        <ele>128.96</ele>
        <time>2013-03-03T08:32:46Z</time>
      </trkpt>
      <trkpt lat="44.05359" lon="4.18138">
        <ele>127.62</ele>
        <time>2013-03-03T08:32:49Z</time>
      </trkpt>
      <trkpt lat="44.05347" lon="4.1816">
        <ele>125.4</ele>
        <time>2013-03-03T08:32:55Z</time>
      </trkpt>
      <trkpt lat="44.0534" lon="4.18166">
        <ele>123.938</ele>
        <time>2013-03-03T08:32:58Z</time>
      </trkpt>
      <trkpt lat="44.05326" lon="4.18164">
        <ele>121.829</ele>
        <time>2013-03-03T08:33:02Z</time>
      </trkpt>
      <trkpt lat="44.05317" lon="4.18163">
        <ele>121.09</ele>
        <time>2013-03-03T08:33:04Z</time>
      </trkpt>
      <trkpt lat="44.05311" lon="4.18163">
        <ele>120.16</ele>
        <time>2013-03-03T08:33:06Z</time>
      </trkpt>
      <trkpt lat="44.05306" lon="4.18184">
        <ele>118.019</ele>
        <time>2013-03-03T08:33:11Z</time>
      </trkpt>
      <trkpt lat="44.05304" lon="4.18197">
        <ele>115.699</ele>
        <time>2013-03-03T08:33:15Z</time>
      </trkpt>
      <trkpt lat="44.05307" lon="4.18205">
        <ele>114.21</ele>
        <time>2013-03-03T08:33:18Z</time>
      </trkpt>
      <trkpt lat="44.05308" lon="4.18212">
        <ele>113.44</ele>
        <time>2013-03-03T08:33:20Z</time>
      </trkpt>
      <trkpt lat="44.05315" lon="4.18234">
        <ele>109.94</ele>
        <time>2013-03-03T08:33:27Z</time>
      </trkpt>
      <trkpt lat="44.05327" lon="4.1825">
        <ele>108.93</ele>
        <time>2013-03-03T08:33:31Z</time>
      </trkpt>
      <trkpt lat="44.05355" lon="4.18273">
        <ele>107.951</ele>
        <time>2013-03-03T08:33:38Z</time>
      </trkpt>
      <trkpt lat="44.05363" lon="4.18277">
        <ele>107.681</ele>
        <time>2013-03-03T08:33:40Z</time>
      </trkpt>
      <trkpt lat="44.05376" lon="4.18284">
        <ele>107.601</ele>
        <time>2013-03-03T08:33:43Z</time>
      </trkpt>
      <trkpt lat="44.05394" lon="4.18292">
        <ele>107.582</ele>
        <time>2013-03-03T08:33:48Z</time>
      </trkpt>
      <trkpt lat="44.05412" lon="4.18297">
        <ele>106.881</ele>
        <time>2013-03-03T08:33:52Z</time>
      </trkpt>
      <trkpt lat="44.05444" lon="4.18305">
        <ele>105.14</ele>
        <time>2013-03-03T08:33:58Z</time>
      </trkpt>
      <trkpt lat="44.05461" lon="4.18312">
        <ele>102.069</ele>
        <time>2013-03-03T08:34:03Z</time>
      </trkpt>
      <trkpt lat="44.05469" lon="4.18315">
        <ele>100.88</ele>
        <time>2013-03-03T08:34:06Z</time>
      </trkpt>
      <trkpt lat="44.05486" lon="4.18312">
        <ele>100.082</ele>
        <time>2013-03-03T08:34:10Z</time>
      </trkpt>
      <trkpt lat="44.05504" lon="4.18319">
        <ele>99.662</ele>
        <time>2013-03-03T08:34:14Z</time>
      </trkpt>
      <trkpt lat="44.05505" lon="4.18324">
        <ele>99.622</ele>
        <time>2013-03-03T08:34:15Z</time>
      </trkpt>
      <trkpt lat="44.05517" lon="4.18348">
        <ele>99.763</ele>
        <time>2013-03-03T08:34:21Z</time>
      </trkpt>
      <trkpt lat="44.05543" lon="4.18362">
        <ele>100.923</ele>
        <time>2013-03-03T08:34:28Z</time>
      </trkpt>
      <trkpt lat="44.05577" lon="4.18376">
        <ele>102.343</ele>
        <time>2013-03-03T08:34:37Z</time>
      </trkpt>
      <trkpt lat="44.05604" lon="4.18376">
        <ele>103.803</ele>
        <time>2013-03-03T08:34:44Z</time>
      </trkpt>
      <trkpt lat="44.05634" lon="4.18365">
        <ele>105.193</ele>
        <time>2013-03-03T08:34:52Z</time>
      </trkpt>
      <trkpt lat="44.05653" lon="4.18367">
        <ele>106.013</ele>
        <time>2013-03-03T08:34:57Z</time>
      </trkpt>
      <trkpt lat="44.05671" lon="4.18381">
        <ele>107.524</ele>
        <time>2013-03-03T08:35:03Z</time>
      </trkpt>
      <trkpt lat="44.05691" lon="4.18401">
        <ele>109.124</ele>
        <time>2013-03-03T08:35:11Z</time>
      </trkpt>
      <trkpt lat="44.0571" lon="4.18423">
        <ele>111.334</ele>
        <time>2013-03-03T08:35:20Z</time>
      </trkpt>
      <trkpt lat="44.05729" lon="4.1845">
        <ele>113.274</ele>
        <time>2013-03-03T08:35:30Z</time>
      </trkpt>
      <trkpt lat="44.0574" lon="4.18476">
        <ele>112.894</ele>
        <time>2013-03-03T08:35:37Z</time>
      </trkpt>
      <trkpt lat="44.05749" lon="4.18495">
        <ele>113.474</ele>
        <time>2013-03-03T08:35:43Z</time>
      </trkpt>
      <trkpt lat="44.05773" lon="4.18511">
        <ele>114.554</ele>
        <time>2013-03-03T08:35:52Z</time>
      </trkpt>
      <trkpt lat="44.05785" lon="4.18504">
        <ele>115.224</ele>
        <time>2013-03-03T08:35:57Z</time>
      </trkpt>
      <trkpt lat="44.0579" lon="4.18484">
        <ele>116.664</ele>
        <time>2013-03-03T08:36:03Z</time>
      </trkpt>
      <trkpt lat="44.0579" lon="4.18459">
        <ele>119.045</ele>
        <time>2013-03-03T08:36:10Z</time>
      </trkpt>
      <trkpt lat="44.05783" lon="4.18441">
        <ele>120.755</ele>
        <time>2013-03-03T08:36:16Z</time>
      </trkpt>
      <trkpt lat="44.05773" lon="4.18417">
        <ele>121.554</ele>
        <time>2013-03-03T08:36:23Z</time>
      </trkpt>
      <trkpt lat="44.05767" lon="4.18391">
        <ele>122.124</ele>
        <time>2013-03-03T08:36:30Z</time>
      </trkpt>
      <trkpt lat="44.05768" lon="4.18369">
        <ele>122.264</ele>
        <time>2013-03-03T08:36:36Z</time>
      </trkpt>
      <trkpt lat="44.05777" lon="4.18361">
        <ele>122.304</ele>
        <time>2013-03-03T08:36:40Z</time>
      </trkpt>
      <trkpt lat="44.05785" lon="4.18367">
        <ele>122.995</ele>
        <time>2013-03-03T08:36:44Z</time>
      </trkpt>
      <trkpt lat="44.0579" lon="4.18388">
        <ele>123.455</ele>
        <time>2013-03-03T08:36:50Z</time>
      </trkpt>
      <trkpt lat="44.058" lon="4.18413">
        <ele>124.135</ele>
        <time>2013-03-03T08:36:58Z</time>
        <extensions>
          <visugpx:TrkExtension xmlns:visugpx="https://www.visugpx.com/editgpx/">
            <visugpx:node>1</visugpx:node>
            </visugpx:TrkExtension>
        </extensions>
      </trkpt>
      <trkpt lat="44.05802" lon="4.18413">
        <ele>122.4</ele>
      </trkpt>
      <trkpt lat="44.05813" lon="4.18421">
        <ele>123.3</ele>
      </trkpt>
      <trkpt lat="44.05827" lon="4.18419">
        <ele>124.4</ele>
      </trkpt>
      <trkpt lat="44.05839" lon="4.18405">
        <ele>126.1</ele>
      </trkpt>
      <trkpt lat="44.05846" lon="4.18396">
        <ele>126.9</ele>
        <extensions>
          <visugpx:TrkExtension xmlns:visugpx="https://www.visugpx.com/editgpx/">
            <visugpx:node>2</visugpx:node>
            </visugpx:TrkExtension>
        </extensions>
      </trkpt>
    </trkseg>
  </trk>
</gpx>